     2              OBSERVATION DATA    GPS                 RINEX VERSION / TYPE
teqc 2000Jul20 Karen Wendt 20020311 22:08:47UTC             PGM / RUN BY / DATE
                                                            COMMENT
L2: 1 -> 1; 150 -> 5; 250 -> 9                              COMMENT
L2: 1 -> 1; 150 -> 5; 250 -> 9                              COMMENT
L2: 1 -> 1; 150 -> 5; 250 -> 9                              COMMENT
L2: 1 -> 1; 150 -> 5; 250 -> 9                              COMMENT
L2: 1 -> 1; 150 -> 5; 250 -> 9                              COMMENT
L2: 1 -> 1; 150 -> 5; 250 -> 9                              COMMENT
L2: 1 -> 1; 150 -> 5; 250 -> 9                              COMMENT
L2: 1 -> 1; 150 -> 5; 250 -> 9                              COMMENT
L2: 1 -> 1; 150 -> 5; 250 -> 9                              COMMENT
L2: 1 -> 1; 150 -> 5; 250 -> 9                              COMMENT
L2: 1 -> 1; 150 -> 5; 250 -> 9                              COMMENT
L2: 1 -> 1; 150 -> 5; 250 -> 9                              COMMENT
L2: 1 -> 1; 150 -> 5; 250 -> 9                              COMMENT
L2: 1 -> 1; 150 -> 5; 250 -> 9                              COMMENT
Original Marker Name: pner Pioneer_1963_USC&GS              COMMENT
Campaign Name: USGS Mojave 2002                             COMMENT
4-Character Station Name: PNER                              COMMENT
6-Character Antenna Code: DMRCHT                            COMMENT
Vertical Measurement Point: BCR                             COMMENT
Vertical Offset to Rinex Ref. Point: 0.0348                 COMMENT
Radial Measurement Point: ECF                               COMMENT
Radial Offset to Rinex Ref. Point: 0.1897                   COMMENT
Antenna Height from Field Measurement: 1.3820 m             COMMENT
Additional Antenna Identification Info.:                    COMMENT
Turborogue and Ashtech Choke Ring                           COMMENT
Original XYZ: -2351339.2473 -4645163.8652 3673740.4352      COMMENT
New XYZ position is based on association with SCEC monument COMMENT
E1F4C3B6+0011. Position of that monument is believed to be  COMMENT
valid to within 1 m horizontally; vertical accuracy         COMMENT
should be no worse than 3-times this value.                 COMMENT
                                                            COMMENT
Revised Rinex header created by UCSD GPS archive for        COMMENT
GSAC on 17-Jul-2003 (2003:198) 21:09:51 GMT                 COMMENT
For assistance contact dagnew@ucsd.edu                      COMMENT
or anderson@python.ucsd.edu                                 COMMENT
                                                            COMMENT
PIONEER 1963                                                MARKER NAME
CHS US GEOLOGICAL SURVEY                                    OBSERVER / AGENCY
LP03360 ASHTECH Z-XII3 CC00                                 REC # / TYPE / VERS
CR14330 DORNE-MARGOL. TYPE T                                ANT # / TYPE
 -2351353.1544 -4645133.7194  3673722.5412                  APPROX POSITION XYZ
        1.3341        0.0000        0.0000                  ANTENNA: DELTA H/E/N
     1     1     0                                          WAVELENGTH FACT L1/2
     5    C1    L1    L2    P1    P2                        # / TYPES OF OBSERV
    30                                                      INTERVAL
  2002     3     7     0     1    0.000000                  TIME OF FIRST OBS
  2002     3     7    21     4   30.000000                  TIME OF LAST OBS
                                                            END OF HEADER
 02  3  7  0  1  0.0000000  0  9G23G26G18G10G 6G17G30G22G15
  20554636.304   -24927341.77249 -19039490.03148  20554635.682    20554646.097
  22438903.630   -12769262.06549  -9929518.19746  22438903.490    22438918.806
  22280458.633   -18051606.78149 -13683762.79946  22280458.050    22280471.255
  22985791.458   -12891991.02449  -9383206.71246  22985790.668    22985805.450
  20279373.604   -26970808.98349 -20991379.84648  20279373.282    20279383.468
  21343490.773   -18862038.26849 -13790543.79047  21343490.139    21343501.920
  23316170.923    -6556489.08049  -4758152.63446  23316171.151    23316187.802
  23717818.995    -6886659.05749  -5322928.29545  23717818.136    23717835.791
  22014322.450   -18669556.67549 -13317937.97147  22014321.683    22014335.317
 02  3  7  0  1 30.0000000  0  9G23G26G18G10G 6G17G30G22G15
  20555791.382   -24921271.40149 -19034759.84248  20555790.812    20555801.216
  22426754.564   -12833104.93649  -9979265.68646  22426754.441    22426769.643
  22263611.611   -18140137.61149 -13752747.65246  22263611.004    22263624.150
  23004165.734   -12795434.16249  -9307967.73246  23004164.948    23004179.739
  20281272.430   -26960830.59249 -20983604.47748  20281272.137    20281282.294
  21336408.370   -18899256.21049 -13819544.71147  21336407.732    21336419.536
  23335685.303    -6453941.79349  -4678245.88846  23335685.381    23335702.217
  23709519.729    -6930271.16849  -5356911.62845  23709518.842    23709536.425
  22003251.960   -18727732.16249 -13363269.37747  22003251.136    22003264.756
 02  3  7  0  2  0.0000000  0  9G23G26G18G10G 6G17G30G22G15
  20557039.679   -24914711.40149 -19029648.12448  20557039.098    20557049.500
  22414687.690   -12896516.17349 -10028676.83046  22414687.555    22414702.738
  22246824.652   -18228352.81549 -13821486.58946  22246824.075    22246837.164
  23022577.557   -12698680.11049  -9232575.10246  23022576.701    23022591.510
  20283258.751   -26950392.37049 -20975470.80348  20283258.452    20283268.618
  21329357.904   -18936306.52749 -13848415.02247  21329357.253    21329369.012
  23355214.958    -6351313.29549  -4598275.86546  23355215.101    23355231.976
  23701317.526    -6973373.77949  -5390497.92745  23701316.680    23701334.104
  21992214.032   -18785736.49049 -13408467.42147  21992213.208    21992226.758
 02  3  7  0  2 30.0000000  0  9G23G26G18G10G 6G17G30G22G15
  20558380.504   -24907665.19149 -19024157.55448  20558379.910    20558390.338
  22402703.013   -12959495.00649 -10077751.04946  22402702.902    22402718.041
  22230097.654   -18316252.81949 -13889979.90547  22230097.124    22230110.165
  23041025.951   -12601733.89249  -9157032.73646  23041025.010    23041039.852
  20285332.306   -26939495.90049 -20966980.05348  20285332.007    20285342.157
  21322338.855   -18973191.62349 -13877156.59347  21322338.193    21322349.932
  23374759.083    -6248608.80749  -4518246.64046  23374759.290    23374776.228
  23693212.112    -7015967.84649  -5423687.99045  23693211.301    23693228.735
  21981208.151   -18843571.98049 -13453533.90247  21981207.357    21981220.889
 02  3  7  0  3  0.0000000  0  9G23G26G18G10G 6G17G30G22G15
  20559814.122   -24900131.22649 -19018286.91048  20559813.547    20559823.976
  22390801.703   -13022035.91349 -10126484.01946  22390801.581    22390816.684
  22213431.411   -18403833.64749 -13958224.51247  22213430.862    22213443.882
  23059510.845   -12504595.67849  -9081340.74046  23059509.953    23059524.822
  20287493.617   -26928137.96149 -20958129.71948  20287493.321    20287503.499
  21315351.644   -19009909.26349 -13905767.67347  21315350.990    21315362.725
  23394317.608    -6145828.85449  -4438158.60046  23394317.811    23394334.816
  23685204.084    -7058049.83449  -5456479.06245  23685203.256    23685220.679
  21970234.890   -18901236.26349 -13498466.97147  21970234.114    21970247.663
 02  3  7  0  3 30.0000000  0  9G23G26G18G10G 6G17G30G22G15
  20561339.920   -24892113.07549 -19012038.97748  20561339.291    20561349.745
  22378983.751   -13084138.24349 -10174875.26346  22378983.663    22378998.782
  22196825.787   -18491095.93149 -14026220.89347  22196825.248    22196838.259
  23078031.348   -12407270.51049  -9005503.07246  23078030.421    23078045.332
  20289742.448   -26916320.22249 -20948921.09648  20289742.154    20289752.333
  21308395.866   -19046461.91849 -13934250.19347  21308395.195    21308406.908
  23413889.541    -6042978.62049  -4358015.80546  23413889.741    23413906.922
  23677293.118    -7099621.16449  -5488872.19745  23677292.212    23677309.728
  21959293.782   -18958731.68249 -13543268.47247  21959293.018    21959306.531
 02  3  7  0  4  0.0000000  0  9G23G26G18G10G 6G17G30G22G15
  20562957.932   -24883610.40649 -19005413.50548  20562957.281    20562967.749
  22367250.246   -13145797.31149 -10222921.11046  22367250.235    22367265.235
  22180281.440   -18578036.24549 -14093966.39947  22180280.871    22180293.894
  23096587.175   -12309759.38649  -8929520.51246  23096586.276    23096601.280
  20292079.238   -26904040.37349 -20939352.39748  20292078.946    20292089.114
  21301471.721   -19082848.29149 -13962603.14847  21301471.069    21301482.763
  23433474.578    -5940059.57649  -4277819.39546  23433474.693    23433491.965
  23669479.813    -7140679.10149  -5520865.28945  23669478.941    23669496.321
  21948385.097   -19016056.84049 -13587937.31347  21948384.340    21948397.782
 02  3  7  0  4 30.0000000  0  9G23G26G18G10G 6G17G30G22G15
  20564668.085   -24874623.08449 -18998410.37648  20564667.477    20564677.941
  22355601.943   -13207008.89949 -10270618.28346  22355601.919    22355616.838
  22163798.871   -18664651.75649 -14161458.80947  22163798.342    22163811.320
  23115178.078   -12212063.67749  -8853394.12046  23115177.226    23115192.305
  20294504.395   -26891296.43649 -20929422.06648  20294504.077    20294514.227
  21294579.394   -19119067.49749 -13990825.83847  21294578.740    21294590.392
  23453072.332    -5837073.63949  -4197570.84546  23453072.476    23453089.781
  23661764.757    -7181221.37149  -5552456.54645  23661763.922    23661781.088
  21937509.051   -19073210.53649 -13632472.53547  21937508.259    21937521.641
 02  3  7  0  5  0.0000000  0  9G23G26G18G10G 6G17G30G22G15
  20566469.674   -24865155.61649 -18991033.11148  20566469.050    20566479.519
  22344038.730   -13267773.28749 -10317966.96746  22344038.714    22344053.571
  22147377.839   -18750944.11549 -14228699.42047  22147377.300    22147390.220
  23133803.101   -12114189.27749  -8777128.50346  23133802.202    23133817.341
  20297017.284   -26878090.98649 -20919132.11548  20297016.978    20297027.140
  21287718.245   -19155122.81149 -14018920.83447  21287717.600    21287729.245
  23472681.641    -5734026.67749  -4117274.77846  23472681.770    23472699.162
  23654147.571    -7221250.32449  -5583647.83545  23654146.725    23654163.822
  21926665.019   -19130195.93049 -13676876.61947  21926664.227    21926677.551
 02  3  7  0  5 30.0000000  0  9G23G26G18G10G 6G17G30G22G15
  20568362.841   -24855206.96949 -18983280.90348  20568362.209    20568372.668
  22332561.633   -13328085.21749 -10364963.10846  22332561.669    22332576.397
  22131019.084   -18836909.39249 -14295685.13847  22131018.525    22131031.394
  23152461.938   -12016136.61949  -8700723.97246  23152461.115    23152476.270
  20299618.530   -26864421.21949 -20908480.36548  20299618.237    20299628.432
  21280888.664   -19191012.18549 -14046886.52847  21280888.028    21280899.667
  23492302.470    -5630919.56449  -4036931.82146  23492302.567    23492320.086
  23646628.478    -7260762.65949  -5614436.56445  23646627.631    23646644.927
  21915853.447   -19187010.75649 -13721147.79847  21915852.651    21915865.999
 02  3  7  0  6  0.0000000  0  9G23G26G18G10G 6G17G30G22G15
  20570347.380   -24844778.24349 -18975154.60248  20570346.715    20570357.146
  22321171.226   -13387941.70049 -10411604.33646  22321171.235    22321185.870
  22114722.788   -18922546.00749 -14362414.76847  22114722.257    22114735.073
  23171154.273   -11917908.25349  -8624182.52046  23171153.465    23171168.650
  20302308.312   -26850286.42449 -20897466.24848  20302308.025    20302318.228
  21274090.622   -19226735.84049 -14074723.08647  21274089.984    21274101.611
  23511934.187    -5527755.23249  -3956544.27846  23511934.296    23511951.868
  23639207.910    -7299757.21549  -5644821.84845  23639207.137    23639224.464
  21905074.337   -19243654.82849 -13765285.93247  21905073.533    21905086.758
 02  3  7  0  6 30.0000000  0  9G23G26G18G10G 6G17G30G22G15
  20572422.896   -24833871.09649 -18966655.51248  20572422.298    20572432.686
  22309868.008   -13447340.24849 -10457888.74446  22309867.950    22309882.537
  22098489.263   -19007852.90849 -14428887.49047  22098488.735    22098501.511
  23189879.708   -11819507.32649  -8547506.61146  23189878.730    23189893.814
  20305086.575   -26835686.49049 -20886089.68848  20305086.311    20305096.533
  21267324.030   -19262294.28649 -14102430.91347  21267323.389    21267334.997
  23531576.281    -5424536.86049  -3876114.64446  23531576.358    23531593.907
  23631886.135    -7338233.60049  -5674803.35345  23631885.396    23631902.553
  21894327.554   -19300128.83349 -13809291.54847  21894326.774    21894340.017
 02  3  7  0  7  0.0000000  0  9G23G26G18G10G 6G17G30G22G15
  20574589.122   -24822487.47749 -18957785.13948  20574588.509    20574598.907
  22298652.161   -13506278.56549 -10503814.50846  22298652.205    22298666.768
  22082318.654   -19092829.21049 -14495102.59647  22082318.109    22082330.824
  23208636.995   -11720937.30449  -8470698.95146  23208636.066    23208651.206
  20307953.352   -26820621.41249 -20874350.67548  20307953.077    20307963.307
  21260588.743   -19297688.36749 -14130010.66647  21260588.101    21260599.672
  23551227.901    -5321268.15549  -3795645.76746  23551227.924    23551245.544
  23624662.914    -7376191.63449  -5704380.97945  23624662.137    23624679.232
  21883613.016   -19356433.43449 -13853165.16247  21883612.261    21883625.524
 02  3  7  0  7 30.0000000  0  9G23G26G18G10G 6G17G30G22G15
  20576845.984   -24810627.55649 -18948543.62748  20576845.366    20576855.768
  22287524.849   -13564752.67249 -10549378.56446  22287524.808    22287539.320
  22066211.548   -19177471.95449 -14561057.78347  22066211.010    22066223.645
  23227426.165   -11622199.58349  -8393760.62046  23227425.248    23227440.427
  20310908.985   -26805089.58049 -20862247.96548  20310908.720    20310918.929
  21253884.835   -19332917.42449 -14157461.83347  21253884.182    21253895.767
  23570888.700    -5217950.79949  -3715138.99146  23570888.763    23570906.509
  23617538.759    -7413629.18849  -5733553.04045  23617537.979    23617554.900
  21872930.944   -19412567.82349 -13896906.15447  21872930.156    21872943.349
 02  3  7  0  8  0.0000000  0  9G23G26G18G10G 6G17G30G22G15
  20579193.188   -24798292.60649 -18938931.96448  20579192.601    20579202.991
  22276486.182   -13622759.79449 -10594578.73446  22276486.200    22276500.704
  22050168.164   -19261779.78749 -14626752.00947  22050167.627    22050180.174
  23246246.969   -11523296.80949  -8316693.68646  23246245.919    23246261.191
  20313953.512   -26789090.56549 -20849781.22748  20313953.223    20313963.427
  21247212.321   -19367981.43949 -14184784.40247  21247211.682    21247223.220
  23590558.179    -5114587.94749  -3634596.76746  23590558.265    23590576.043
  23610513.770    -7450545.37349  -5762318.84645  23610512.962    23610529.876
  21862281.171   -19468532.09849 -13940514.58847  21862280.388    21862293.637
 02  3  7  0  8 30.0000000  0  9G23G26G18G10G 6G17G30G22G15
  20581630.727   -24785483.04049 -18928950.47148  20581630.174    20581640.578
  22265537.325   -13680296.02149 -10639411.98746  22265537.290    22265551.710
  22034188.973   -19345750.08749 -14692183.22647  22034188.449    22034200.964
  23265098.591   -11424230.58449  -8239499.37646  23265097.608    23265113.009
  20317087.288   -26772622.74249 -20836949.17348  20317087.003    20317097.185
  21240571.331   -19402879.75449 -14211977.85747  21240570.709    21240582.223
  23610235.925    -5011181.62649  -3554020.67646  23610236.033    23610253.836
  23603588.335    -7486938.50649  -5790677.06645  23603587.437    23603604.280
  21851664.039   -19524325.17749 -13983989.62547  21851663.288    21851676.465
 02  3  7  0  9  0.0000000  0  9G23G26G18G10G 6G17G30G22G15
  20584157.782   -24772203.31049 -18918602.61048  20584157.195    20584167.594
  22254678.029   -13737361.60049 -10683878.47046  22254677.997    22254692.353
  22018273.735   -19429384.53649 -14757352.73947  22018273.187    22018285.670
  23283980.375   -11325006.40049  -8162181.96446  23283979.516    23283994.870
  20320309.701   -26755688.79349 -20823753.90348  20320309.413    20320319.626
  21233961.280   -19437615.57249 -14239044.68547  21233960.665    21233972.155
  23629920.778    -4907737.78549  -3473415.32846  23629920.946    23629938.770
  23596762.087    -7522810.86749  -5818629.47645  23596761.122    23596777.985
  21841078.887   -19579950.10149 -14027333.62747  21841078.096    21841091.257
 02  3  7  0  9 30.0000000  0  9G23G26G18G10G 6G17G30G22G15
  20586774.888   -24758450.47649 -18907886.10548  20586774.243    20586784.644
  22243909.468   -13793949.49349 -10727972.74846  22243909.532    22243923.891
  22002423.474   -19512677.43049 -14822256.10047  22002422.950    22002435.398
  23302892.634   -11225622.69549  -8084740.27046  23302891.694    23302907.104
  20323621.726   -26738283.89349 -20810191.66148  20323621.440    20323631.672
  21227382.967   -19472184.81249 -14265981.71547  21227382.329    21227393.815
  23649613.146    -4804254.81049  -3392779.51045  23649613.264    23649631.146
  23590035.810    -7558157.36449  -5846172.11845  23590034.809    23590051.699
  21830526.537   -19635402.75549 -14070543.40047  21830525.752    21830538.866
 02  3  7  0 10  0.0000000  0  9G23G26G18G10G 6G17G30G22G15
  20589480.948   -24744229.65749 -18896804.93548  20589480.369    20589490.777
  22233231.623   -13850060.50749 -10771695.42546  22233231.724    22233246.078
  21986637.816   -19595630.65749 -14886894.79847  21986637.318    21986649.735
  23321834.137   -11126085.83549  -8007179.24046  23321833.061    23321848.477
  20327022.820   -26720411.24849 -20796264.94148  20327022.515    20327032.770
  21220835.568   -19506591.48549 -14292792.06847  21220834.932    21220846.400
  23669311.553    -4700739.62249  -3312118.57345  23669311.736    23669329.669
  23583408.996    -7592980.80349  -5873307.18645  23583408.056    23583424.907
  21820006.250   -19690686.98949 -14113621.93447  21820005.435    21820018.541
 02  3  7  0 10 30.0000000  0  9G23G26G18G10G 6G17G30G22G15
  20592276.503   -24729538.79949 -18885357.49648  20592275.924    20592286.347
  22222645.871   -13905688.71549 -10815041.91046  22222645.922    22222660.156
  21970917.725   -19678239.61749 -14951265.23347  21970917.221    21970929.600
  23340804.597   -11026395.11549  -7929498.31146  23340803.707    23340819.146
  20330513.558   -26702067.24349 -20781970.93048  20330513.259    20330523.512
  21214319.691   -19540832.40649 -14319473.25947  21214319.063    21214330.534
  23689016.277    -4597191.83349  -3231432.26245  23689016.494    23689034.317
  23576882.511    -7627277.15549  -5900031.54045  23576881.664    23576898.447
  21809518.652   -19745799.33649 -14156566.53347  21809517.875    21809530.912
 02  3  7  0 11  0.0000000  0  9G23G26G18G10G 6G17G30G22G15
  20595160.711   -24714382.18749 -18873547.13448  20595160.137    20595170.522
  22212151.954   -13960833.97249 -10858012.07346  22212152.017    22212166.184
  21955262.923   -19760505.68349 -15015368.48047  21955262.368    21955274.722
  23359803.631   -10926555.98449  -7851701.72446  23359802.625    23359818.073
  20334093.520   -26683254.23649 -20767311.46448  20334093.250    20334103.487
  21207834.756   -19574910.70349 -14346027.73047  21207834.142    21207845.608
  23708726.092    -4493616.98549  -3150724.86045  23708726.389    23708744.167
  23570456.086    -7661048.65849  -5926346.93845  23570455.203    23570471.940
  21799063.182   -19800742.63749 -14199379.39847  21799062.373    21799075.502
 02  3  7  0 11 30.0000000  0  9G23G26G18G10G 6G17G30G22G15
  20598133.666   -24698759.49649 -18861373.59548  20598133.039    20598143.404
  22201750.731   -14015491.94549 -10900602.52046  22201750.758    22201764.978
  21939673.988   -19842425.31849 -15079201.80247  21939673.450    21939685.748
  23378830.614   -10826569.29149  -7773790.17045  23378829.543    23378845.018
  20337763.237   -26663969.84149 -20752284.68348  20337762.960    20337773.204
  21201381.169   -19608824.41649 -14372453.95747  21201380.550    21201392.008
  23728440.665    -4390016.41649  -3069997.38945  23728441.082    23728458.968
  23564129.971    -7694292.77449  -5952251.36245  23564129.063    23564145.788
  21788640.204   -19855515.37149 -14242059.36147  21788639.419    21788652.464
 02  3  7  0 12  0.0000000  0  9G23G26G18G10G 6G17G30G22G15
  20601194.885   -24682672.53449 -18848838.28548  20601194.280    20601204.621
  22191442.592   -14069660.08349 -10942811.30046  22191442.765    22191456.957
  21924151.118   -19923997.68149 -15142764.51447  21924150.617    21924162.860
  23397885.099   -10726437.94149  -7695765.91145  23397884.002    23397899.501
  20341522.642   -26644214.04949 -20736890.57748  20341522.377    20341532.608
  21194958.742   -19642574.49249 -14398752.67347  21194958.106    21194969.552
  23748159.814    -4286393.31549  -2989252.39745  23748160.130    23748178.058
  23557904.164    -7727009.09249  -5977744.53645  23557903.323    23557920.093
  21778249.561   -19910117.91349 -14284606.69847  21778248.802    21778261.863
 02  3  7  0 12 30.0000000  0 10G23G26G18G10G 6G21G17G30G22G15
  20604343.555   -24666126.03149 -18835944.88548  20604342.970    20604353.315
  22181227.795   -14123339.19649 -10984639.03646  22181227.856    22181241.947
  21908694.005   -20005224.65149 -15206058.09747  21908693.497    21908705.705
  23416965.830   -10626167.87949  -7617633.54845  23416964.901    23416980.424
  20345371.197   -26623989.78249 -20721131.43048  20345370.933    20345381.174
  24859685.979    -1834426.48949  -1395171.64645  24859685.438    24859709.798
  21188566.781   -19676164.30849 -14424926.50947  21188566.151    21188577.582
  23767881.956    -4182754.04049  -2908494.78245  23767882.257    23767900.223
  23551778.247    -7759200.48149  -6002828.66245  23551777.374    23551794.380
  21767890.694   -19964553.85449 -14327024.21547  21767889.934    21767902.917
 02  3  7  0 13  0.0000000  0 10G23G26G18G10G 6G21G17G30G22G15
  20607579.936   -24649118.62549 -18822692.33648  20607579.330    20607589.699
  22171106.996   -14176523.64649 -11026081.32346  22171107.062    22171121.074
  21893303.494   -20086101.91849 -15269079.17647  21893302.952    21893315.106
  23436073.181   -10525758.63849  -7539392.72845  23436072.274    23436087.838
  20349309.485   -26603293.91149 -20705004.79648  20349309.226    20349319.498
  24841812.444    -1928351.10749  -1468359.19145  24841811.972    24841836.357
  21182205.802   -19709591.23249 -14450973.41647  21182205.175    21182216.594
  23787607.127    -4079098.34549  -2827724.37945  23787607.421    23787625.511
  23545752.843    -7790863.30249  -6027500.91345  23545752.025    23545769.122
  21757564.010   -20018820.23849 -14369309.60547  21757563.283    21757576.290
 02  3  7  0 13 30.0000000  0 10G23G26G18G10G 6G21G17G30G22G15
  20610904.279   -24631648.78849 -18809079.45548  20610903.708    20610914.092
  22161081.564   -14229207.68649 -11067133.68746  22161081.523    22161095.462
  21877980.337   -20166624.92849 -15331824.22247  21877979.790    21877991.870
  23455207.127   -10425209.90649  -7461043.22645  23455206.178    23455221.785
  20353338.227   -26582122.86049 -20688507.89148  20353337.957    20353348.252
  24823965.555    -2022136.09549  -1541438.07045  24823964.957    24823989.464
  21175876.347   -19742852.33449 -14476891.10947  21175875.736    21175887.163
  23807335.427    -3975426.51449  -2746941.39445  23807335.704    23807353.868
  23539828.834    -7821993.89549  -6051758.44045  23539828.007    23539845.052
  21747270.240   -20072914.16949 -14411460.61647  21747269.479    21747282.443
 02  3  7  0 14  0.0000000  0 10G23G26G18G10G 6G21G17G30G22G15
  20614316.101   -24613719.29149 -18795108.39448  20614315.546    20614325.947
  22151151.419   -14281389.90149 -11107795.00646  22151151.408    22151165.407
  21862724.608   -20246793.67849 -15394293.22747  21862724.071    21862736.120
  23474366.824   -10324525.69049  -7382588.13445  23474365.904    23474381.565
  20357457.159   -26560477.73449 -20671641.57948  20357456.896    20357467.199
  24806145.154    -2115781.63849  -1614408.14645  24806144.564    24806168.871
  21169578.246   -19775948.93249 -14502680.62047  21169577.637    21169589.055
  23827066.085    -3871742.38049  -2666148.82545  23827066.315    23827084.583
  23534005.982    -7852593.00549  -6075601.82745  23534005.088    23534022.081
  21737008.981   -20126836.80749 -14453478.15347  21737008.252    21737021.187
 02  3  7  0 14 30.0000000  0 10G23G26G18G10G 6G21G17G30G22G15
  20617814.991   -24595332.26749 -18780780.81948  20617814.454    20617824.853
  22141317.186   -14333068.47749 -11148063.89846  22141317.195    22141331.197
  21847536.367   -20326607.66549 -15456485.78847  21847535.836    21847547.822
  23493551.571   -10223708.88049  -7304029.74845  23493550.732    23493566.489
  20361666.245   -26538359.01949 -20654406.23348  20361665.962    20361676.269
  24788351.568    -2209286.86849  -1687268.98645  24788351.002    24788375.191
  21163311.189   -19808882.22649 -14528342.87847  21163310.585    21163321.999
  23846798.337    -3768049.69349  -2585349.60245  23846798.614    23846816.839
  23528284.124    -7882660.86449  -6099031.24545  23528283.199    23528300.150
  21726780.237   -20180588.86549 -14495362.76647  21726779.494    21726792.408
 02  3  7  0 15  0.0000000  0 10G23G26G18G10G 6G21G17G30G22G15
  20621400.910   -24576488.31149 -18766097.18948  20621400.352    20621410.735
  22131579.496   -14384240.01149 -11187937.67946  22131579.467    22131593.493
  21832416.166   -20406064.42249 -15518399.99847  21832415.633    21832427.549
  23512761.247   -10122761.23649  -7225369.41745  23512760.504    23512776.449
  20365965.643   -26515765.55949 -20636800.94848  20365965.375    20365975.677
  24770584.886    -2302649.77549  -1760018.89845  24770584.342    24770608.425
  21157075.400   -19841651.30249 -14553877.17547  21157074.802    21157086.207
  23866531.905    -3664350.34949  -2504545.19345  23866532.143    23866550.436
  23522663.685    -7912195.93449  -6122045.49545  23522662.750    23522679.723
  21716584.000   -20234169.72749 -14537113.98247  21716583.322    21716596.210
 02  3  7  0 15 30.0000000  0 10G23G26G18G10G 6G21G17G30G22G15
  20625073.357   -24557189.43949 -18751059.08848  20625072.769    20625083.164
  22121938.856   -14434901.85849 -11227414.31846  22121938.791    22121952.723
  21817364.123   -20485162.97049 -15580035.08247  21817363.564    21817375.438
  23531995.424   -10021685.68949  -7146609.41745  23531994.639    23532010.649
  20370355.371   -26492697.37949 -20618825.75248  20370355.097    20370365.407
  24752845.523    -2395869.60949  -1832657.31045  24752844.892    24752868.890
  21150870.783   -19874256.61249 -14579283.87047  21150870.187    21150881.558
  23886266.110    -3560647.68449  -2423738.18645  23886266.292    23886284.731
  23517144.570    -7941198.02249  -6144644.43745  23517143.781    23517160.791
  21706420.381   -20287579.66549 -14578732.01247  21706419.678    21706432.545
 02  3  7  0 16  0.0000000  0 10G23G26G18G10G 6G21G17G30G22G15
  20628831.975   -24537437.34749 -18735667.82648  20628831.427    20628841.819
  22112395.540   -14485051.61649 -11266491.92746  22112395.508    22112409.386
  21802380.457   -20563901.78049 -15641389.85747  21802379.947    21802391.756
  23551253.378    -9920484.71949  -7067751.69445  23551252.647    23551268.760
  20374835.501   -26469154.24349 -20600480.46848  20374835.215    20374845.538
  24735133.752    -2488944.76249  -1905182.97745  24735133.055    24735156.893
  21144697.277   -19906698.48749 -14604563.20347  21144696.691    21144708.041
  23906000.374    -3456944.35549  -2342930.68245  23906000.639    23906019.099
  23511727.166    -7969666.67549  -6166827.72445  23511726.331    23511743.283
  21696289.325   -20340818.58849 -14620216.78147  21696288.612    21696301.406
 02  3  7  0 16 30.0000000  0 10G23G26G18G10G 6G21G17G30G22G15
  20632676.468   -24517234.33649 -18719925.20848  20632675.926    20632686.306
  22102949.925   -14534687.60749 -11305169.18746  22102949.926    22102963.803
  21787465.375   -20642280.43649 -15702463.99147  21787464.882    21787476.662
  23570534.691    -9819161.56249  -6988798.74545  23570533.928    23570550.059
  20379405.883   -26445136.61849 -20581765.45448  20379405.611    20379415.961
  24717449.393    -2581874.37549  -1977595.24545  24717448.687    24717472.581
  21138554.734   -19938977.60149 -14629715.70647  21138554.133    21138565.477
  23925734.153    -3353244.21549  -2262125.65645  23925734.288    23925752.878
  23506411.140    -7997602.10049  -6188595.49045  23506410.321    23506427.350
  21686190.685   -20393887.18749 -14661568.83247  21686189.933    21686202.697
 02  3  7  0 17  0.0000000  0 10G23G26G18G10G 6G21G17G30G22G15
  20636606.569   -24496581.41949 -18703832.01348  20636606.015    20636616.397
  22093602.720   -14583806.74749 -11343443.69746  22093602.757    22093616.632
  21772619.230   -20720296.82349 -15763255.83647  21772618.730    21772630.501
  23589838.962    -9717718.18949  -6909752.14845  23589838.114    23589854.332
  20384066.750   -26420643.76549 -20562680.12848  20384066.484    20384076.832
  24699793.152    -2674656.90449  -2049892.89845  24699792.490    24699816.278
  21132443.178   -19971093.87049 -14654741.31747  21132442.575    21132453.930
  23945466.831    -3249549.53449  -2181324.89445  23945466.968    23945485.636
  23501196.784    -8025003.51949  -6209947.12545  23501195.921    23501212.979
  21676124.433   -20446785.24049 -14702787.98647  21676123.692    21676136.445
 02  3  7  0 17 30.0000000  0 10G23G26G18G10G 6G21G17G30G22G15
  20640622.080   -24475479.87349 -18687389.23848  20640621.515    20640631.868
  22084354.487   -14632406.26349 -11381313.29746  22084354.500    22084368.357
  21757842.308   -20797949.58949 -15823764.34147  21757841.780    21757853.532
  23609165.537    -9616157.02449  -6830613.77446  23609164.734    23609180.955
  20388818.106   -26395675.20149 -20543224.11948  20388817.845    20388828.194
  24682165.261    -2767290.87549  -2122074.77745  24682164.574    24682188.200
  21126362.670   -20003047.00349 -14679639.81247  21126362.074    21126373.400
  23965197.837    -3145863.04449  -2100530.51645  23965198.039    23965216.788
  23496084.123    -8051870.19049  -6230882.09545  23496083.290    23496100.357
  21666090.785   -20499512.30149 -14743873.90747  21666090.008    21666102.675
 02  3  7  0 18  0.0000000  0 10G23G26G18G10G 6G21G17G30G22G15
  20644722.612   -24453931.29149 -18670598.12848  20644722.056    20644732.405
  22075205.498   -14680483.70649 -11418776.07846  22075205.543    22075219.378
  21743134.725   -20875237.59149 -15883988.61147  21743134.232    21743145.954
  23628514.055    -9514480.57449  -6751385.54845  23628513.210    23628529.509
  20393660.049   -26370230.84549 -20523397.36348  20393659.783    20393670.107
  24664565.687    -2859775.18949  -2194140.09445  24664565.068    24664588.650
  21120313.124   -20034837.31249 -14704411.43147  21120312.512    21120323.845
  23984926.829    -3042187.52649  -2019744.69145  23984927.020    23984945.920
  23491073.322    -8078201.69849  -6251400.06445  23491072.509    23491089.533
  21656089.512   -20552068.97149 -14784827.06047  21656088.732    21656101.369
 02  3  7  0 18 30.0000000  0 10G23G26G18G10G 6G21G17G30G22G15
  20648907.937   -24431937.18249 -18653459.85848  20648907.359    20648917.716
  22066156.474   -14728036.28649 -11455829.88946  22066156.518    22066170.301
  21728496.913   -20952159.10649 -15943927.30747  21728496.425    21728508.157
  23647884.147    -9412690.80849  -6672069.00745  23647883.370    23647899.573
  20398592.606   -26344310.25049 -20503199.51648  20398592.338    20398602.639
  24646995.014    -2952108.05049  -2266087.36745  24646994.311    24647017.823
  21114294.576   -20066464.74749 -14729056.14447  21114293.969    21114305.283
  24004653.218    -2938525.51149  -1938969.38745  24004653.454    24004672.455
  23486164.516    -8103997.54849  -6271500.61745  23486163.738    23486180.680
  21646120.751   -20604454.69949 -14825647.01247  21646119.973    21646132.609
 02  3  7  0 19  0.0000000  0 10G23G26G18G10G 6G21G17G30G22G15
  20653177.837   -24409498.72249 -18635975.33948  20653177.243    20653187.603
  22057207.866   -14775061.22749 -11492472.55646  22057207.853    22057221.561
  21713929.145   -21028712.59049 -16003579.22147  21713928.660    21713940.352
  23667275.388    -9310790.03449  -6592665.96945  23667274.547    23667290.843
  20403615.930   -26317912.73249 -20482630.03548  20403615.651    20403625.941
  24629453.473    -3044287.79149  -2337915.31545  24629452.775    24629476.295
  21108307.116   -20097928.97049 -14753573.66847  21108306.504    21108317.815
  24024376.579    -2834879.59549  -1858206.63145  24024376.820    24024395.984
  23481357.845    -8129256.85849  -6291183.09445  23481356.985    23481373.886
  21636184.637   -20656669.26949 -14866333.59547  21636183.832    21636196.441
 02  3  7  0 19 30.0000000  0 10G23G26G18G10G 6G21G17G30G22G15
  20657531.840   -24386618.31549 -18618146.44948  20657531.219    20657541.584
  22048360.010   -14821556.86649 -11528702.77146  22048359.928    22048373.583
  21699431.532   -21104897.40749 -16062943.87047  21699431.067    21699442.710
  23686687.211    -9208781.14049  -6513178.67245  23686686.359    23686702.725
  20408729.847   -26291038.87349 -20461689.37948  20408729.570    20408739.862
  24611941.307    -3136313.59549  -2409623.26445  24611940.569    24611963.930
  21102350.547   -20129230.69749 -14777964.58047  21102349.947    21102361.231
  24044096.216    -2731253.24749  -1777459.12245  24044096.558    24044115.601
  23476653.075    -8153980.06549  -6310447.82845  23476652.212    23476669.137
  21626280.889   -20708713.28749 -14906887.28747  21626280.088    21626292.704
 02  3  7  0 20  0.0000000  0 10G23G26G18G10G 6G21G17G30G22G15
  20661969.639   -24363297.44649 -18599974.33348  20661969.027    20661979.404
  22039613.276   -14867520.49349 -11564518.44746  22039613.243    22039626.855
  21685004.370   -21180712.16349 -16122020.15247  21685003.875    21685015.493
  23706118.991    -9106666.79849  -6433609.21945  23706118.176    23706134.526
  20413934.434   -26263688.55449 -20440377.45148  20413934.147    20413944.469
  24594458.459    -3228184.07049  -2481210.15745  24594457.842    24594481.165
  21096424.890   -20160370.05049 -14802228.95947  21096424.269    21096435.538
  24063811.709    -2627649.02549  -1696728.86745  24063811.999    24063831.135
  23472050.390    -8178166.64249  -6329294.42845  23472049.519    23472066.470
  21616409.606   -20760586.69749 -14947308.03547  21616408.812    21616421.378
 02  3  7  0 20 30.0000000  0 10G23G26G18G10G 6G21G17G30G22G15
  20666491.007   -24339537.51049 -18581460.09448  20666490.406    20666500.781
  22030968.271   -14912949.43549 -11599917.47946  22030968.268    22030981.845
  21670647.945   -21256155.21049 -16180806.79347  21670647.423    21670658.997
  23725570.436    -9004449.36949  -6353959.45645  23725569.679    23725586.036
  20419229.758   -26235861.38749 -20418693.96648  20419229.492    20419239.832
  24577005.502    -3319897.90949  -2552674.98945  24577004.904    24577028.195
  21090530.203   -20191346.82949 -14826366.66547  21090529.590    21090540.820
  24083522.455    -2524069.59349  -1616017.91345  24083522.644    24083541.867
  23467549.826    -8201816.06649  -6347722.45745  23467548.995    23467565.983
  21606570.898   -20812289.07749 -14987595.51947  21606570.123    21606582.692
 02  3  7  0 21  0.0000000  0 10G23G26G18G10G 6G21G17G30G22G15
  20671095.900   -24315338.73249 -18562603.89748  20671095.259    20671105.636
  22022425.654   -14957840.14449 -11634897.10846  22022425.672    22022439.282
  21656362.642   -21331224.19749 -16239301.96147  21656362.143    21656373.674
  23745041.251    -8902129.77249  -6274230.07945  23745040.510    23745056.901
  20424616.114   -26207556.00149 -20396637.84548  20424615.853    20424626.188
  24559582.822    -3411452.86249  -2624015.99645  24559582.286    24559605.353
  21084666.619   -20222159.85349 -14850376.77447  21084666.010    21084677.227
  24103228.071    -2420516.40449  -1535327.42545  24103228.371    24103247.696
  23463151.835    -8224926.87749  -6365730.78845  23463151.039    23463168.134
  21596764.951   -20863819.10149 -15027748.70547  21596764.201    21596776.755
 02  3  7  0 21 30.0000000  0 10G23G26G18G10G 6G21G17G30G22G15
  20675783.713   -24290704.25749 -18543408.19648  20675783.063    20675793.423
  22013985.661   -15002191.52849 -11669456.50146  22013985.725    22013999.320
  21642148.552   -21405919.28749 -16297505.78147  21642148.023    21642159.549
  23764530.868    -8799711.55349  -6194423.83645  23764530.158    23764546.501
  20430093.250   -26178773.65449 -20374210.06748  20430092.981    20430103.293
  24542190.541    -3502848.23249  -2695232.65145  24542189.946    24542212.895
  21078833.926   -20252810.69049 -14874260.50647  21078833.327    21078844.519
  24122927.990    -2316993.68649  -1454660.65345  24122928.303    24122947.646
  23458856.239    -8247500.10749  -6383320.24345  23458855.462    23458872.499
  21586991.523   -20915178.19149 -15067768.69047  21586990.797    21587003.353
 02  3  7  0 22  0.0000000  0 10G23G26G18G10G 6G21G17G30G22G15
  20680554.331   -24265634.37649 -18523873.21648  20680553.671    20680564.041
  22005649.166   -15045999.79749 -11703592.69546  22005649.246    22005662.719
  21628006.104   -21480237.59649 -16355416.00847  21628005.593    21628017.080
  23784039.074    -8697195.66749  -6114541.45045  23784038.443    23784054.800
  20435661.478   -26149512.61949 -20351409.28948  20435661.196    20435671.516
  24524829.069    -3594081.56649  -2766323.02545  24524828.425    24524851.301
  21073032.384   -20283297.76349 -14898016.63247  21073031.774    21073042.972
  24142621.804    -2213502.79549  -1374018.70045  24142622.140    24142641.706
  23454663.389    -8269533.90349  -6400489.35945  23454662.644    23454679.570
  21577250.916   -20966364.94549 -15107654.39047  21577250.191    21577262.736
 02  3  7  0 22 30.0000000  0 10G23G26G18G10G 6G21G17G30G22G15
  20685407.026   -24240133.18049 -18504002.14848  20685406.391    20685416.734
  21997415.956   -15089265.04149 -11737305.76446  21997416.096    21997429.481
  21613935.133   -21554180.51449 -16413033.72447  21613934.665    21613946.078
  23803565.066    -8594587.07149  -6034586.85945  23803564.245    23803580.758
  20441320.294   -26119775.38949 -20328237.45048  20441320.009    20441330.319
  24507498.185    -3685153.84849  -2837287.89945  24507497.573    24507520.169
  21067261.474   -20313623.69649 -14921647.19347  21067260.899    21067272.112
  24162308.713    -2110048.61249  -1293405.34645  24162309.032    24162328.629
  23450572.656    -8291030.70249  -6417240.04845  23450571.897    23450588.791
  21567542.663   -21017381.97849 -15147407.83847  21567541.911    21567554.410
 02  3  7  0 23  0.0000000  0 10G23G26G18G10G 6G21G17G30G22G15
  20690341.754   -24214201.10249 -18483795.33048  20690341.145    20690351.443
  21989286.814   -15131983.67749 -11770592.90746  21989286.973    21989300.264
  21599936.089   -21627745.36949 -16470356.84747  21599935.606    21599946.997
  23823108.510    -8491886.60749  -5954560.66445  23823107.614    23823124.151
  20447070.019   -26089560.58349 -20304693.47448  20447069.738    20447080.040
  24490198.306    -3776063.10849  -2908125.75745  24490197.740    24490220.310
  21061521.503   -20343787.26249 -14945151.23747  21061520.923    21061532.131
  24181988.332    -2006633.06549  -1212822.10545  24181988.547    24182008.208
  23446584.514    -8311988.91849  -6433571.06345  23446583.698    23446600.401
  21557866.991   -21068227.80449 -15187027.88047  21557866.220    21557878.652
 02  3  7  0 23 30.0000000  0 10G23G26G18G10G 6G21G17G30G22G15
  20695358.383   -24187838.56749 -18463253.09348  20695357.752    20695368.044
  21981262.447   -15174152.06349 -11803451.28046  21981262.519    21981275.770
  21586009.516   -21700929.57149 -16527383.36647  21586009.027    21586020.370
  23842669.134    -8389095.77449  -5874464.05845  23842668.255    23842684.656
  20452910.809   -26058866.94449 -20280776.38348  20452910.515    20452920.825
  24472929.967    -3866806.67949  -2978834.53945  24472929.444    24472951.703
  21055812.677   -20373787.11949 -14968527.71347  21055812.105    21055823.306
  24201660.329    -1903257.33649  -1132269.89645  24201660.449    24201680.182
  23442698.966    -8332407.07049  -6449481.23645  23442698.139    23442714.840
  21548224.085   -21118901.07749 -15226513.46047  21548223.316    21548235.746
 02  3  7  0 24  0.0000000  0 10G23G26G18G10G 6G21G17G30G22G15
  20700456.042   -24161050.23349 -18442379.05948  20700455.403    20700465.699
  21973342.614   -15215770.96349 -11835881.48246  21973342.612    21973355.867
  21572154.949   -21773735.15249 -16584114.85147  21572154.488    21572165.787
  23862245.886    -8286219.57249  -5794301.01845  23862244.981    23862261.599
  20458842.186   -26027697.37849 -20256488.43848  20458841.918    20458852.236
  24455692.842    -3957386.27549  -3049415.55745  24455692.377    24455714.473
  21050134.454   -20403626.43349 -14991779.08647  21050133.846    21050145.054
  24221323.562    -1799927.06049  -1051753.08645  24221323.796    24221343.547
  23438915.535    -8352287.97149  -6464972.79945  23438914.887    23438931.580
  21538613.455   -21169404.88049 -15265866.98947  21538612.739    21538625.131
 02  3  7  0 24 30.0000000  0 10G23G26G18G10G 6G21G17G30G22G15
  20705635.091   -24133833.97049 -18421171.57648  20705634.488    20705644.792
  21965528.491   -15256834.08149 -11867878.61246  21965528.461    21965541.689
  21558373.441   -21846157.02649 -16640547.34847  21558372.949    21558384.231
  23881839.404    -8183256.56449  -5714070.26045  23881838.376    23881855.010
  20464864.862   -25996047.92449 -20231826.55148  20464864.609    20464874.938
  24438488.030    -4047796.58149  -3119864.67345  24438487.458    24438509.434
  21044487.493   -20433301.29049 -15014902.31047  21044486.895    21044498.058
  24240978.514    -1696641.15049   -971270.87645  24240978.689    24240998.633
  23435235.207    -8371627.58049  -6480042.56845  23435234.505    23435251.169
  21529035.732   -21219735.36349 -15305085.45047  21529035.039    21529047.423
 02  3  7  0 25  0.0000000  0 10G23G26G18G10G 6G21G17G30G22G15
  20710894.995   -24106192.73649 -18399632.95648  20710894.426    20710904.732
  21957820.334   -15297340.49049 -11899441.94647  21957820.278    21957833.465
  21544664.962   -21918195.11249 -16696680.80247  21544664.459    21544675.692
  23901448.715    -8080210.22749  -5633774.55245  23901447.584    23901464.213
  20470978.655   -25963919.83049 -20206791.70748  20470978.416    20470988.758
  24421315.416    -4138037.32649  -3190181.65845  24421314.896    24421336.766
  21038871.580   -20462812.94349 -15037898.36247  21038870.983    21038882.149
  24260624.216    -1593403.68849   -890826.39445  24260624.369    24260644.360
  23431657.645    -8390427.04149  -6494691.43845  23431656.951    23431673.697
  21519490.832   -21269893.53649 -15344169.65747  21519490.197    21519502.549
 02  3  7  0 25 30.0000000  0 10G23G26G18G10G 6G21G17G30G22G15
  20716234.865   -24078131.61549 -18377767.14948  20716234.289    20716244.582
  21950217.790   -15337291.42249 -11930572.43547  21950217.791    21950230.922
  21531029.118   -21989851.64849 -16752516.93347  21531028.609    21531039.810
  23921072.352    -7977086.46849  -5553418.59145  23921071.406    23921088.286
  20477182.845   -25931316.67349 -20181386.67648  20477182.612    20477192.965
  24404174.684    -4228110.63749  -3260368.18245  24404174.123    24404195.768
  21033286.055   -20492164.85649 -15060769.94147  21033285.460    21033296.599
  24280259.630    -1490220.50449   -810424.21445  24280259.685    24280279.673
  23428182.470    -8408689.57649  -6508921.92645  23428181.677    23428198.362
  21509978.132   -21319882.82149 -15383122.24647  21509977.483    21509989.852
 02  3  7  0 26  0.0000000  0 10G23G26G18G10G 6G21G17G30G22G15
  20721655.125   -24049647.91749 -18355572.05948  20721654.537    20721664.848
  21942722.286   -15376680.09249 -11961264.79246  21942722.270    21942735.382
  21517466.899   -22061121.09049 -16808051.44347  21517466.388    21517477.549
  23940711.424    -7873883.01749  -5473000.43945  23940710.620    23940727.381
  20483478.306   -25898233.90449 -20155607.92348  20483478.073    20483488.438
  24387066.912    -4318010.78949  -3330419.79145  24387066.336    24387087.887
  21027731.792   -20521352.58249 -15083513.58147  21027731.175    21027742.300
  24299884.970    -1387089.93449   -730063.02845  24299885.059    24299904.936
  23424810.169    -8426410.54549  -6522730.41045  23424809.392    23424826.150
  21500498.547   -21369698.46049 -15421939.53047  21500497.825    21500510.162
 02  3  7  0 26 30.0000000  0 10G23G26G18G10G 6G21G17G30G22G15
  20727155.300   -24020744.26249 -18333049.73748  20727154.709    20727165.030
  21935333.971   -15415505.24749 -11991518.03546  21935333.945    21935347.094
  21503978.345   -22132003.15349 -16863284.10147  21503977.866    21503988.969
  23960365.128    -7770602.82949  -5392522.55845  23960364.226    23960381.152
  20489864.873   -25864672.36949 -20129456.11048  20489864.622    20489875.000
  24369992.083    -4407737.36449  -3400336.15345  24369991.577    24370013.034
  21022208.649   -20550376.79949 -15106129.81147  21022208.028    21022219.168
  24319499.587    -1284015.48849   -649745.58145  24319499.730    24319519.658
  23421540.790    -8443590.87149  -6536117.60745  23421540.035    23421556.751
  21491051.810   -21419341.19649 -15460622.09647  21491051.085    21491063.382
 02  3  7  0 27  0.0000000  0 10G23G26G18G10G 6G21G17G30G22G15
  20732735.019   -23991422.88149 -18310201.90947  20732734.397    20732744.720
  21928053.230   -15453765.15049 -12021330.82247  21928053.275    21928066.402
  21490563.732   -22202497.21949 -16918214.42047  21490563.223    21490574.295
  23980032.776    -7667248.75249  -5311987.07545  23980031.959    23980049.026
  20496342.403   -25830632.75549 -20102931.76648  20496342.178    20496352.544
  24352950.450    -4497289.92449  -3470116.92845  24352949.954    24352971.262
  21016716.453   -20579238.26849 -15128619.21947  21016715.830    21016726.953
  24339102.980    -1181000.48949   -569474.46845  24339103.050    24339123.077
  23418374.363    -8460231.03549  -6549083.90045  23418373.507    23418390.107
  21481637.863   -21468811.54149 -15499170.31747  21481637.122    21481649.407
 02  3  7  0 27 30.0000000  0 10G23G26G18G10G 6G21G17G30G22G15
  20738393.588   -23961686.87949 -18287031.00747  20738392.959    20738403.267
  21920880.221   -15491459.02549 -12050702.56247  21920880.301    21920893.407
  21477222.908   -22272603.30949 -16972842.42447  21477222.379    21477233.429
  23999713.826    -7563824.56149  -5231396.99945  23999712.925    23999730.113
  20502910.701   -25796116.36849 -20076035.91648  20502910.460    20502920.821
  24335941.823    -4586668.52249  -3539762.14445  24335941.399    24335962.666
  21011254.956   -20607938.27449 -15150982.81647  21011254.361    21011265.468
  24358694.238    -1078048.82749   -489252.70745  24358694.296    24358714.531
  23415310.388    -8476332.30149  -6561630.29145  23415309.528    23415325.942
  21472256.386   -21518110.92749 -15537585.33547  21472255.677    21472267.941
 02  3  7  0 28  0.0000000  0 10G23G26G18G10G 6G21G17G30G22G15
  20744131.053   -23931536.21249 -18263536.98747  20744130.447    20744140.752
  21913815.705   -15528583.07249 -12079630.26347  21913815.772    21913828.832
  21463956.429   -22342318.57749 -17027165.88747  21463955.933    21463966.925
  24019408.321    -7460330.54649  -5150752.47845  24019407.429    24019424.602
  20509570.015   -25761121.50049 -20048767.21148  20509569.780    20509580.131
  24318966.904    -4675870.19649  -3609269.51945  24318966.550    24318987.765
  21005824.608   -20636474.91449 -15173219.11247  21005824.021    21005835.110
  24378273.314     -975161.36049   -409080.97745  24378273.373    24378293.673
  23412349.346    -8491892.87949  -6573755.35845  23412348.498    23412364.733
  21462907.812   -21567237.40449 -15575865.61147  21462907.139    21462919.388
 02  3  7  0 28 30.0000000  0 10G23G26G18G10G 6G21G17G30G22G15
  20749947.109   -23900972.81549 -18239721.35847  20749946.491    20749956.806
  21906860.004   -15565135.23549 -12108112.34447  21906859.987    21906873.032
  21450764.447   -22411642.26849 -17081184.22547  21450763.975    21450774.952
  24039115.463    -7356769.03649  -5070055.31945  24039114.737    24039131.733
  20516320.351   -25725648.54149 -20021125.97248  20516320.107    20516330.455
  24302025.946    -4764893.90949  -3678638.24345  24302025.578    24302046.602
  21000425.262   -20664848.32949 -15195328.21647  21000424.679    21000435.757
  24397839.510     -872340.76949   -328961.35345  24397839.686    24397860.122
  23409491.172    -8506913.02049  -6585459.29745  23409490.267    23409506.341
  21453592.190   -21616191.09249 -15614011.24847  21453591.498    21453603.724
 02  3  7  0 29  0.0000000  0 10G23G26G18G10G 6G21G17G30G22G15
  20755841.092   -23869999.82549 -18215586.56547  20755840.451    20755850.753
  21900013.198   -15601114.71149 -12136148.17647  21900013.216    21900026.195
  21437647.001   -22480574.50649 -17134897.53847  21437646.506    21437657.442
  24058834.954    -7253143.52249  -4989308.36145  24058834.056    24058851.227
  20523161.339   -25689699.08249 -19993113.44148  20523161.071    20523171.412
  24285118.918    -4853739.50849  -3747868.20545  24285118.513    24285139.410
  20995056.751   -20693059.87749 -15217311.19147  20995056.185    20995067.252
  24417392.423     -769591.27649   -248897.15645  24417392.520    24417412.970
  23406735.520    -8521393.95849  -6596743.09645  23406734.595    23406750.667
  21444309.238   -21664973.07349 -15652023.08947  21444308.534    21444320.743
 02  3  7  0 29 30.0000000  0 10G23G26G18G10G 6G21G17G30G22G15
  20761812.989   -23838617.24649 -18191132.61147  20761812.366    20761822.667
  21893276.054   -15636517.93049 -12163734.97647  21893276.161    21893289.029
  21424604.531   -22549112.59249 -17188303.70947  21424604.025    21424614.934
  24078566.256    -7149454.62449  -4908511.99645  24078565.466    24078582.763
  20530093.309   -25653271.54649 -19964728.37548  20530093.012    20530103.359
  24268246.345    -4942404.21449  -3816957.22845  24268245.924    24268266.575
  20989719.389   -20721107.94549 -15239166.78847  20989718.800    20989729.850
  24436931.593     -666913.60049   -168888.90745  24436931.723    24436952.169
  23404082.842    -8535334.18349  -6607605.55645  23404081.831    23404097.944
  21435059.287   -21713581.72649 -15689899.88247  21435058.548    21435070.681
 02  3  7  0 30  0.0000000  0 10G23G26G18G10G 6G21G17G30G22G15
  20767862.252   -23806827.87849 -18166361.67747  20767861.679    20767871.973
  21886648.972   -15671343.72449 -12190871.84747  21886648.979    21886661.754
  21411637.096   -22617256.39249 -17241402.65147  21411636.573    21411647.483
  24098309.358    -7045705.59149  -4827668.75345  24098308.498    24098325.782
  20537116.061   -25616366.86449 -19935971.51348  20537115.780    20537126.117
  24251408.320    -5030887.77849  -3885905.11545  24251407.741    24251428.302
  20984412.990   -20748993.28149 -15260895.57547  20984412.354    20984423.387
  24456456.442     -564311.47449    -88939.52845  24456456.467    24456477.065
  23401532.734    -8548734.78449  -6618047.51945  23401531.787    23401547.802
  21425842.159   -21762017.78649 -15727642.18247  21425841.409    21425853.537
 02  3  7  0 30 30.0000000  0 10G23G26G18G10G 6G21G17G30G22G15
  20773988.589   -23774633.77949 -18141275.36147  20773988.007    20773998.309
  21880131.957   -15705590.28449 -12217557.35747  21880131.970    21880144.725
  21398744.881   -22685005.01249 -17294193.65847  21398744.348    21398755.225
  24118063.252    -6941898.55749  -4746780.29945  24118062.462    24118079.750
  20544229.580   -25578985.24649 -19906843.00348  20544229.296    20544239.609
  24234604.795    -5119189.63249  -3954711.41445  24234604.044    24234624.616
  20979137.491   -20776715.99349 -15282497.64747  20979136.866    20979147.878
  24475966.260     -461787.63249     -9051.14945  24475966.420    24475987.031
  23399085.332    -8561595.89149  -6628069.09645  23399084.381    23399100.390
  21416657.841   -21810281.60549 -15765250.26747  21416657.097    21416669.152
 02  3  7  0 31  0.0000000  0 10G23G26G18G10G 6G21G17G30G22G15
  20780191.823   -23742035.42149 -18115874.03847  20780191.253    20780201.565
  21873725.755   -15739254.43949 -12243789.05147  21873725.765    21873738.536
  21385928.345   -22752355.97849 -17346674.80747  21385927.800    21385938.647
  24137828.033    -6838034.64849  -4665847.52945  24137827.209    24137844.556
  20551434.054   -25541125.66249 -19877342.05648  20551433.768    20551444.074
  24217836.147    -5207307.27649  -4023374.16845  24217835.502    24217855.873
  20973893.205   -20804274.82549 -15303972.02447  20973892.596    20973903.564
  24495460.880     -359343.30549     70775.26445  24495461.215    24495481.945
  23396740.825    -8573916.40949  -6637669.46945  23396739.854    23396755.749
  21407506.548   -21858371.68849 -15802722.96847  21407505.782    21407517.821
 02  3  7  0 31 30.0000000  0 10G23G26G18G10G 6G21G17G30G22G15
  20786471.679   -23709034.56949 -18090159.08647  20786471.135    20786481.425
  21867430.865   -15772334.11349 -12269565.31847  21867430.853    21867443.571
  21373187.570   -22819308.65749 -17398845.60747  21373187.031    21373197.846
  24157603.177    -6734115.94649  -4584872.06045  24157602.409    24157619.790
  20558729.418   -25502788.48049 -19847468.96348  20558729.128    20558739.427
  24201103.017    -5295238.77549  -4091891.88145  24201102.366    24201122.735
  20968680.089   -20831669.85149 -15325318.75347  20968679.475    20968690.434
  24514940.050     -256980.99449    150537.75345  24514940.249    24514961.009
  23394499.146    -8585696.56849  -6646848.77245  23394498.156    23394513.991
  21398388.415   -21906287.68749 -15840060.02647  21398387.635    21398399.612
 02  3  7  0 32  0.0000000  0 10G23G26G18G10G 6G21G17G30G22G15
  20792827.417   -23675635.11149 -18064133.53147  20792826.846    20792837.131
  21861247.147   -15804829.25649 -12294886.11347  21861247.204    21861259.844
  21360522.521   -22885863.35349 -17450706.29147  21360522.009    21360532.789
  24177388.091    -6630146.58549  -4503857.08145  24177387.293    24177404.637
  20566115.252   -25463975.76649 -19817225.32548  20566114.965    20566125.275
  24184405.158    -5382984.86849  -4160265.13445  24184404.615    24184424.871
  20963497.829   -20858902.58349 -15346539.03047  20963497.203    20963508.137
  24534402.786     -154705.46749    230232.63745  24534402.816    24534423.762
  23392359.774    -8596938.31749  -6655608.53145  23392358.747    23392374.731
  21389302.998   -21954031.43749 -15877262.85347  21389302.224    21389314.178
 02  3  7  0 32 30.0000000  0 10G23G26G18G10G 6G21G17G30G22G15
  20799258.805   -23641838.04349 -18037798.14847  20799258.213    20799268.504
  21855175.148   -15836737.25249 -12319749.39147  21855175.247    21855187.861
  21347933.492   -22952018.62249 -17502255.72947  21347932.974    21347943.734
  24197182.554    -6526127.79149  -4422803.58545  24197181.510    24197198.769
  20573591.672   -25424687.01249 -19786610.74948  20573591.379    20573601.695
  24167743.027    -5470543.76949  -4228492.51245  24167742.481    24167762.595
  20958346.581   -20885972.44249 -15367632.39547  20958345.949    20958356.873
  24553848.545      -52518.04849    309858.85445  24553848.665    24553869.699
  23390322.921    -8607641.15749  -6663948.35945  23390322.007    23390337.998
  21380250.539   -22001601.85149 -15914330.62147  21380249.781    21380261.728
 02  3  7  0 33  0.0000000  0 10G23G26G18G10G 6G21G17G30G22G15
  20805765.517   -23607645.05649 -18011154.25747  20805764.899    20805775.184
  21849215.223   -15868055.96549 -12344153.48947  21849215.364    21849228.004
  21335420.676   -23017773.29549 -17553493.02547  21335420.186    21335430.903
  24216985.837    -6422061.75849  -4341713.28045  24216984.690    24217001.910
  20581158.666   -25384922.32349 -19755625.31748  20581158.380    20581168.711
  24151116.879    -5557914.04449  -4296572.91745  24151116.191    24151136.220
  20953226.369   -20912879.12549 -15388598.61347  20953225.754    20953236.658
  24573277.161       49578.33649    389414.11445  24573277.223    24573298.357
  23388388.842    -8617805.02749  -6671868.22845  23388387.946    23388403.893
  21371231.123   -22048998.90849 -15951263.31447  21371230.365    21371242.305
 02  3  7  0 33 30.0000000  0 10G23G26G18G10G 6G21G17G30G22G15
  20812347.632   -23573055.95649 -17984201.70347  20812346.992    20812357.287
  21843368.276   -15898781.75449 -12368095.56947  21843368.311    21843380.991
  21322984.715   -23083124.27649 -17604415.74947  21322984.225    21322994.897
  24236798.000    -6317948.44549  -4260586.17345  24236796.855    24236814.125
  20588816.545   -25344679.92349 -19724267.63748  20588816.279    20588826.632
  24134527.074    -5645092.79049  -4364504.09545  24134526.376    24134546.252
  20948137.615   -20939620.43249 -15409435.96547  20948137.017    20948147.900
  24592688.185      151583.33949    468898.19545  24592688.426    24592709.676
  23386557.622    -8627428.29449  -6679366.84745  23386556.653    23386572.549
  21362245.059   -22096220.49849 -15988059.26047  21362244.306    21362256.247
 02  3  7  0 34  0.0000000  0 10G23G26G18G10G 6G21G17G30G22G15
  20819004.101   -23538076.12949 -17956944.69247  20819003.414    20819013.726
  21837633.829   -15928916.01549 -12391576.73147  21837633.841    21837646.520
  21310625.030   -23148074.29149 -17655026.03947  21310624.542    21310635.178
  24256617.941    -6213793.52049  -4179426.63345  24256616.914    24256634.348
  20596564.626   -25303963.57049 -19692540.64948  20596564.355    20596574.734
  24117973.211    -5732082.11749  -4432287.67245  24117972.635    24117992.476
  20943079.692   -20966199.90749 -15430147.21247  20943079.098    20943089.984
  24612080.812      253490.85049    548306.30345  24612081.020    24612102.456
  23384828.343    -8636514.84949  -6686447.23845  23384827.391    23384843.399
  21353291.725   -22143270.07949 -16024721.18547  21353290.984    21353302.931
 02  3  7  0 34 30.0000000  0 10G23G26G18G10G 6G21G17G30G22G15
  20825735.183   -23502703.99049 -17929381.98247  20825734.484    20825744.814
  21832012.853   -15958453.74949 -12414593.06647  21832012.922    21832025.564
  21298342.510   -23212618.88749 -17705320.42647  21298342.025    21298352.638
  24276446.123    -6109595.66749  -4098233.65045  24276445.117    24276462.632
  20604403.458   -25262770.30649 -19660442.05048  20604403.188    20604413.574
  24101456.381    -5818877.59949  -4499920.19545  24101455.770    24101475.579
  20938053.233   -20992614.00149 -15450729.59547  20938052.638    20938063.504
  24631455.049      355301.89449    627639.24545  24631455.188    24631476.695
  23383202.017    -8645061.35649  -6693106.81545  23383201.097    23383217.158
  21344371.807   -22190144.08949 -16061246.30347  21344371.080    21344383.013
 02  3  7  0 35  0.0000000  0 10G23G26G18G10G 6G21G17G30G22G15
  20832540.135   -23466943.60149 -17901516.74247  20832539.463    20832549.812
  21826505.528   -15987395.16749 -12437144.72747  21826505.495    21826518.118
  21286136.958   -23276759.30849 -17755299.86447  21286136.435    21286147.036
  24296281.863    -6005359.03849  -4017010.43945  24296280.724    24296298.280
  20612332.586   -25221102.57149 -19627973.72548  20612332.309    20612342.717
  24084976.143    -5905480.89749  -4567402.97945  24084975.529    24084995.241
  20933057.867   -21018864.77249 -15471184.70947  20933057.256    20933068.125
  24650810.077      457011.53049    706893.17845  24650810.148    24650831.759
  23381677.880    -8653070.44149  -6699347.63945  23381676.952    23381693.065
  21335485.035   -22236844.17649 -16097635.90247  21335484.301    21335496.241
 02  3  7  0 35 30.0000000  0 10G23G26G18G10G 6G21G17G30G22G15
  20839418.503   -23430797.13849 -17873350.66647  20839417.891    20839428.256
  21821111.792   -16015738.92249 -12459230.67947  21821111.749    21821124.400
  21274008.399   -23340494.81149 -17804963.78447  21274007.881    21274018.445
  24316124.450    -5901086.03749  -3935758.88245  24316123.218    24316141.009
  20620351.961   -25178960.76849 -19595135.99948  20620351.677    20620362.095
  24068532.630    -5991890.57049  -4634734.87845  24068532.063    24068551.562
  20928093.498   -21044952.38249 -15491512.68947  20928092.903    20928103.755
  24670145.065      558617.27949    786066.16745  24670145.303    24670167.006
  23380255.778    -8660542.61649  -6705170.10745  23380254.916    23380270.955
  21326631.279   -22283370.57649 -16133890.16747  21326630.541    21326642.442
 02  3  7  0 36  0.0000000  0  9G23G26G18G10G 6G21G17G22G15
  20846370.995   -23394261.46949 -17844881.31547  20846370.398    20846380.772
  21815832.983   -16043478.26949 -12480845.67347  21815833.033    21815845.702
  21261957.979   -23403819.79549 -17854307.81647  21261957.453    21261968.000
  24335974.531    -5796773.71249  -3854476.65245  24335973.446    24335991.048
  20628462.355   -25136340.40149 -19561925.35648  20628462.103    20628472.518
  24052127.179    -6078100.31649  -4701910.97745  24052126.720    24052146.045
  20923161.199   -21070871.69349 -15511709.52147  20923160.587    20923171.453
  23378936.837    -8667473.21149  -6710570.55545  23378936.059    23378952.046
  21317811.607   -22329717.99949 -16170004.96747  21317810.867    21317822.741
 02  3  7  0 36 30.0000000  0  9G23G26G18G10G 6G21G17G22G15
  20853396.178   -23357343.74549 -17816114.25947  20853395.615    20853405.990
  21810668.576   -16070616.71549 -12501992.41847  21810668.638    21810681.336
  21249984.845   -23466738.21549 -17903335.04547  21249984.392    21249994.913
  24355830.672    -5692429.49949  -3773169.56845  24355829.560    24355847.057
  20636662.776   -25093247.06049 -19528346.17148  20636662.526    20636672.943
  24035758.972    -6164114.64949  -4768934.80445  24035758.522    24035777.739
  20918259.923   -21096627.80349 -15531779.18547  20918259.310    20918270.190
  23377719.890    -8673867.95049  -6715553.43445  23377719.122    23377735.195
  21309025.022   -22375891.69449 -16205984.40247  21309024.270    21309036.081
 02  3  7  0 37  0.0000000  0  9G23G26G18G10G 6G21G17G22G15
  20860493.511   -23320047.00949 -17787051.86747  20860492.971    20860503.311
  21805618.802   -16097153.55049 -12522670.38747  21805618.784    21805631.433
  21238089.051   -23529250.39249 -17952045.72147  21238088.617    21238099.095
  24375692.309    -5588056.38249  -3691840.01845  24375691.210    24375708.742
  20644952.875   -25049682.38749 -19494399.70947  20644952.607    20644963.050
  24019428.097    -6249933.13349  -4835806.02445  24019427.487    24019446.781
  20913389.550   -21122221.78749 -15551722.51347  20913388.942    20913399.799
  23376604.744    -8679728.16149  -6720119.81245  23376603.924    23376620.077
  21300271.314   -22421892.51849 -16241829.13647  21300270.540    21300282.337
 02  3  7  0 37 30.0000000  0  9G23G26G18G10G 6G21G17G22G15
  20867663.212   -23282370.13849 -17757693.27247  20867662.648    20867672.973
  21800684.280   -16123084.18149 -12542875.98047  21800684.301    21800696.849
  21226271.371   -23591352.48149 -18000436.85147  21226270.919    21226281.379
  24395559.585    -5483653.54249  -3610487.28045  24395558.556    24395576.199
  20653333.188   -25005643.70849 -19460083.89647  20653332.925    20653343.390
  24003135.144    -6335551.85949  -4902521.56945  24003134.516    24003153.808
  20908550.644   -21147650.36449 -15571536.94847  20908550.022    20908560.876
  23375591.879    -8685051.39149  -6724267.78845  23375591.015    23375607.097
  21291551.093   -22467717.32049 -16277536.71147  21291550.297    21291562.059
 02  3  7  0 38  0.0000000  0  9G23G26G18G10G 6G21G17G22G15
  20874904.551   -23244316.67549 -17728041.22447  20874903.995    20874914.321
  21795865.053   -16148408.66449 -12562609.25847  21795865.167    21795877.647
  21214531.520   -23653045.27149 -18048509.04347  21214531.076    21214541.512
  24415431.822    -5379224.67349  -3529114.18445  24415430.739    24415448.328
  20661803.273   -24961133.06149 -19425400.31247  20661803.021    20661813.534
  23986880.070    -6420970.91549  -4969081.52045  23986879.520    23986898.729
  20903742.863   -21172915.11149 -15591223.72147  20903742.241    20903753.091
  23374680.706    -8689839.72149  -6727998.92845  23374679.826    23374695.892
  21282864.076   -22513367.62249 -16313108.31247  21282863.290    21282875.030
 02  3  7  0 38 30.0000000  0  9G23G26G18G10G 6G21G17G22G15
  20882217.260   -23205887.96849 -17698096.78647  20882216.732    20882227.050
  21791161.565   -16173124.89449 -12581868.55847  21791161.703    21791174.233
  21202869.863   -23714327.48149 -18096261.30247  21202869.389    21202879.794
  24435308.963    -5274770.78849  -3447721.66745  24435307.908    24435325.412
  20670363.242   -24916150.32649 -19390348.86747  20670362.975    20670373.523
  23970663.326    -6506189.07449  -5035484.94945  23970662.776    23970681.973
  20898966.477   -21198015.22749 -15610782.21047  20898965.847    20898976.680
  23373871.315    -8694093.05349  -6731313.18545  23373870.446    23373886.510
  21274210.391   -22558842.70449 -16348543.38647  21274209.611    21274221.302
 02  3  7  0 39  0.0000000  0  9G23G26G18G10G 6G21G17G22G15
  20889601.064   -23167085.63249 -17667861.20447  20889600.550    20889610.883
  21786574.307   -16197230.95249 -12600652.40647  21786574.359    21786586.899
  21191286.540   -23775197.86449 -18143692.66047  21191286.088    21191296.450
  24455190.521    -5170293.79449  -3366311.16145  24455189.275    24455207.032
  20679013.016   -24870695.65149 -19354929.68247  20679012.747    20679023.296
  23954485.065    -6591205.05749  -5101730.83945  23954484.495    23954503.682
  20894221.430   -21222950.36749 -15630212.14547  20894220.802    20894231.623
  23373163.738    -8697811.49549  -6734210.65545  23373162.846    23373178.931
  21265590.165   -22604142.04449 -16383841.51847  21265589.409    21265601.094
 02  3  7  0 39 30.0000000  0  9G23G26G18G10G 6G21G17G22G15
  20897055.687   -23127911.25049 -17637335.72147  20897055.180    20897065.493
  21782103.446   -16220724.96649 -12618959.33747  21782103.514    21782116.054
  21179781.794   -23835655.26449 -18190802.21147  21179781.333    21179791.677
  24475075.977    -5065795.50649  -3284884.00145  24475074.797    24475092.429
  20687752.515   -24824769.26149 -19319142.92947  20687752.267    20687762.811
  23938345.454    -6676017.63149  -5167818.23545  23938344.879    23938364.069
  20889507.910   -21247720.13849 -15649513.21947  20889507.255    20889518.046
  23372557.843    -8700995.43049  -6736691.64445  23372556.845    23372572.895
  21257003.480   -22649265.07749 -16419002.26747  21257002.713    21257014.417
 02  3  7  0 40  0.0000000  0  9G23G26G18G10G 6G21G17G22G15
  20904580.369   -23088368.91349 -17606523.51847  20904579.851    20904590.153
  21777749.116   -16243607.71749 -12636789.95447  21777749.048    21777761.536
  21168355.361   -23895701.15549 -18237591.10847  21168354.893    21168365.195
  24494964.638    -4961280.15749  -3203443.62345  24494963.570    24494981.198
  20696581.337   -24778373.72149 -19282990.59747  20696581.085    20696591.632
  23922244.536    -6760627.43749  -5233747.59645  23922243.935    23922263.063
  20884825.474   -21272326.44749 -15668686.91747  20884824.817    20884835.602
  23372052.956    -8703647.50849  -6738758.17745  23372052.145    23372068.247
  21248449.979   -22694213.71649 -16454027.12847  21248449.225    21248460.900
 02  3  7  0 40 30.0000000  0  9G23G26G18G10G 6G21G17G22G15
  20912175.210   -23048457.78849 -17575423.95447  20912174.713    20912184.996
  21773511.916   -16265874.79649 -12654140.84647  21773511.752    21773524.147
  21157007.916   -23955331.80049 -18284056.43847  21157007.469    21157017.759
  24514856.813    -4856746.73049  -3121989.07945  24514855.669    24514873.425
  20705499.863   -24731506.76349 -19246470.92847  20705499.621    20705510.152
  23906182.796    -6845030.89149  -5299516.18145  23906182.265    23906201.334
  20880174.716   -21296766.16949 -15687730.80447  20880174.057    20880184.842
  23371649.923    -8705765.31449  -6740408.40445  23371649.214    23371665.171
  21239930.232   -22738985.15649 -16488913.91447  21239929.473    21239941.155
 02  3  7  0 41  0.0000000  0  9G23G26G18G10G 6G21G17G22G15
  20919839.745   -23008180.15349 -17544038.79647  20919839.287    20919849.564
  21769392.012   -16287524.96249 -12671011.02847  21769391.844    21769404.136
  21145739.619   -24014546.77849 -18330197.87547  21145739.150    21145749.405
  24534751.917    -4752197.64849  -3040522.34245  24534750.865    24534768.479
  20714507.917   -24684169.18749 -19209584.54547  20714507.675    20714518.210
  23890160.504    -6929227.32549  -5365123.46045  23890160.027    23890178.897
  20875555.567   -21321039.58549 -15706645.10247  20875554.914    20875565.712
  23371348.382    -8707349.78049  -6741643.04245  23371347.673    23371363.568
  21231444.199   -22783579.25349 -16523662.51147  21231443.428    21231455.110
 02  3  7  0 41 30.0000000  0  9G23G26G18G10G 6G21G17G22G15
  20927573.331   -22967539.69549 -17512370.92347  20927572.913    20927583.186
  21765389.449   -16308558.63549 -12687400.82747  21765389.245    21765401.485
  21134550.196   -24073347.03049 -18376016.14947  21134549.736    21134559.979
  24554649.304    -4647636.28949  -2959046.11245  24554648.391    24554666.065
  20723605.128   -24636363.34249 -19172333.27847  20723604.877    20723615.424
  23874177.495    -7013217.57249  -5430570.07145  23874176.943    23874195.715
  20870967.808   -21345148.19249 -15725430.98147  20870967.160    20870977.957
  23371147.896    -8708403.37849  -6742464.05545  23371147.112    23371163.102
  21222991.614   -22827997.56149 -16558274.12947  21222990.849    21223002.553
 02  3  7  0 42  0.0000000  0  9G23G26G18G10G 6G21G17G22G15
  20935375.843   -22926537.40849 -17480421.10547  20935375.391    20935385.678
  21761504.558   -16328973.39649 -12703308.36647  21761504.414    21761516.637
  21123440.038   -24131730.82349 -18421509.91347  21123439.567    21123449.798
  24574548.872    -4543063.80149  -2877561.12145  24574547.954    24574565.565
  20732791.480   -24588088.91549 -19134716.88447  20732791.217    20732801.770
  23858234.072    -7096999.28349  -5495854.20445  23858233.489    23858252.229
  20866411.613   -21369090.91349 -15744087.59347  20866410.974    20866421.756
  23371048.608    -8708925.78849  -6742871.11345  23371047.750    23371063.748
  21214572.761   -22872238.88049 -16592747.83147  21214571.968    21214583.671
 02  3  7  0 42 30.0000000  0  9G23G26G18G10G 6G21G17G22G15
  20943247.012   -22885174.46849 -17448190.26047  20943246.502    20943256.800
  21757737.791   -16348767.26149 -12718732.07047  21757737.692    21757749.962
  21112409.389   -24189696.74949 -18466678.06747  21112408.914    21112419.142
  24594450.206    -4438481.42049  -2796068.49945  24594449.328    24594467.179
  20742067.034   -24539345.68549 -19096735.18647  20742066.786    20742077.356
  23842330.651    -7180571.01549  -5560974.70045  23842330.059    23842348.724
  20861887.164   -21392866.81549 -15762614.21947  20861886.537    20861897.300
  23371050.370    -8708916.86249  -6742864.16245  23371049.449    23371065.477
  21206187.687   -22916302.45449 -16627083.02447  21206186.912    21206198.598
 02  3  7  0 43  0.0000000  0  9G23G26G18G10G 6G21G17G22G15
  20951186.455   -22843452.35249 -17415679.53747  20951185.966    20951196.258
  21754089.594   -16367938.22649 -12733670.41247  21754089.527    21754101.759
  21101458.508   -24247243.60449 -18511519.67147  21101458.035    21101468.228
  24614352.967    -4333890.69149  -2714569.32745  24614352.418    24614370.204
  20751431.764   -24490133.74449 -19058388.26147  20751431.513    20751442.095
  23826467.519    -7263930.94349  -5625930.16845  23826466.921    23826485.526
  20857394.641   -21416475.00949 -15781010.16047  20857394.007    20857404.757
  23371153.178    -8708376.59849  -6742443.17745  23371152.278    23371168.343
  21197836.569   -22960187.49849 -16661279.10147  21197835.834    21197847.439
 02  3  7  0 43 30.0000000  0  9G23G26G18G10G 6G21G17G22G15
  20959193.248   -22801376.47949 -17382893.15747  20959192.763    20959203.045
  21750559.468   -16386488.51549 -12748125.10347  21750559.451    21750571.670
  21090586.829   -24304374.33249 -18556037.02147  21090586.331    21090596.508
  24634256.736    -4229296.91849  -2633067.79845  24634255.959    24634273.940
  20760884.928   -24440457.29149 -19019679.37447  20760884.659    20760895.255
  23810644.199    -7347081.70049  -5690722.63745  23810643.575    23810662.162
  20852933.336   -21439919.06949 -15799278.20147  20852932.695    20852943.436
  23371356.343    -8707309.44349  -6741611.62245  23371355.407    23371371.545
  21189518.865   -23003897.22949 -16695338.55847  21189518.102    21189529.703
 02  3  7  0 44  0.0000000  0  9G23G26G18G10G 6G21G17G22G15
  20967267.786   -22758944.88849 -17349829.60447  20967267.243    20967277.538
  21747148.377   -16404412.97149 -12762092.14047  21747148.423    21747160.617
  21079795.190   -24361084.20549 -18600226.44247  21079794.742    21079804.897
  24654161.486    -4124698.05949  -2551562.29645  24654160.380    24654178.216
  20770427.122   -24390312.89549 -18980605.86447  20770426.843    20770437.461
  23794861.665    -7430018.19349  -5755348.17745  23794861.171    23794879.529
  20848504.083   -21463194.68949 -15817415.00947  20848503.442    20848514.180
  23371660.513    -8705712.04349  -6740366.87745  23371659.377    23371675.563
  21181235.286   -23047427.40449 -16729258.10547  21181234.527    21181246.121
 02  3  7  0 44 30.0000000  0  9G23G26G18G10G 6G21G17G22G15
  20975409.111   -22716162.05849 -17316492.35347  20975408.577    20975418.845
  21743856.297   -16421712.67249 -12775572.34347  21743856.322    21743868.468
  21069083.314   -24417375.01949 -18644089.31947  21069082.868    21069092.986
  24674066.167    -4020098.30149  -2470056.14145  24674065.061    24674083.306
  20780057.707   -24339703.82949 -18941170.26847  20780057.455    20780068.077
  23779119.705    -7512741.83249  -5819807.86245  23779119.198    23779137.453
  20844106.427   -21486304.16149 -15835422.35147  20844105.806    20844116.563
  23372064.584    -8703587.70749  -6738711.54045  23372063.697    23372079.743
  21172985.458   -23090780.25049 -16763039.47447  21172984.718    21172996.249
 02  3  7  0 45  0.0000000  0  9G23G26G18G10G 6G21G17G22G15
  20983617.211   -22673028.33949 -17282881.67647  20983616.634    20983626.916
  21740683.715   -16438384.74749 -12788563.48647  21740683.648    21740695.771
  21058451.675   -24473244.28649 -18687623.72047  21058451.208    21058461.310
  24693971.058    -3915497.81349  -2388549.38245  24693970.070    24693988.073
  20789776.951   -24288628.97349 -18901371.71947  20789776.687    20789787.324
  23763418.611    -7595250.49249  -5884100.04645  23763418.058    23763436.130
  20839740.801   -21509245.33949 -15853298.55747  20839740.198    20839750.959
  23372569.277    -8700935.39749  -6736644.80045  23372568.418    23372584.372
  21164769.744   -23133953.83849 -16796681.15247  21164768.995    21164780.530
 02  3  7  0 45 30.0000000  0  9G23G26G18G10G 6G21G17G22G15
  20991891.414   -22629547.45949 -17249000.48347  20991890.786    20991901.065
  21737630.419   -16454429.71949 -12801065.98647  21737630.352    21737642.448
  21047900.037   -24528693.17849 -18730830.56147  21047899.553    21047909.647
  24713875.612    -3810899.96349  -2307044.57545  24713874.141    24713892.287
  20799584.410   -24237090.73249 -18861212.09547  20799584.157    20799594.796
  23747758.329    -7677544.49849  -5948224.95245  23747757.830    23747775.743
  20835406.911   -21532020.00149 -15871045.02047  20835406.299    20835417.044
  23373173.965    -8697757.70849  -6734168.66545  23373173.089    23373189.104
  21156587.868   -23176949.67249 -16830184.31947  21156587.100    21156598.619
 02  3  7  0 46  0.0000000  0  9G23G26G18G10G 6G21G17G22G15
  21000231.609   -22585719.49549 -17214848.82847  21000230.983    21000241.272
  21734697.008   -16469844.65349 -12813077.55947  21734697.022    21734709.018
  21037428.823   -24583719.34049 -18773708.00147  21037428.342    21037438.411
  24733779.326    -3706305.35049  -2225542.39545  24733778.052    24733796.286
  20809480.209   -24185088.01349 -18820690.53947  20809479.967    20809490.613
  23732139.458    -7759621.11249  -6012180.47745  23732139.013    23732156.773
  20831105.088   -21554626.10349 -15888660.13447  20831104.487    20831115.205
  23373878.856    -8694053.61649  -6731282.33145  23373877.951    23373893.904
  21148440.169   -23219765.73549 -16863547.39747  21148439.400    21148450.928
 02  3  7  0 46 30.0000000  0  8G23G26G18G 6G21G17G22G15
  21008637.426   -22541546.77549 -17180428.52647  21008636.783    21008647.072
  21731883.786   -16484628.73749 -12824597.53347  21731883.720    21731895.686
  21027038.168   -24638322.38749 -18816255.73447  21027037.665    21027047.722
  20819464.191   -24132621.91749 -18779807.91347  20819463.945    20819474.607
  23716562.197    -7841479.57449  -6075966.00345  23716561.716    23716579.283
  20826835.349   -21577063.56649 -15906143.84447  20826834.752    20826845.449
  23374683.812    -8689824.24249  -6727986.70245  23374682.814    23374698.752
  21140326.675   -23262402.13849 -16896770.47347  21140325.907    21140337.412
 02  3  7  0 47  0.0000000  0  8G23G26G18G 6G21G17G22G15
  21017108.764   -22497029.56049 -17145739.79347  21017108.119    21017118.419
  21729190.922   -16498778.92849 -12835623.58547  21729190.974    21729202.944
  21016728.431   -24692500.04949 -18858472.00947  21016727.922    21016737.965
  20829536.580   -24079691.43149 -18738563.43147  20829536.312    20829546.985
  23701026.779    -7923117.26749  -6139579.51245  23701026.281    23701043.859
  20822598.115   -21599330.34649 -15923494.55647  20822597.546    20822608.197
  23375588.632    -8685068.73449  -6724281.08345  23375587.728    23375603.724
  21132247.796   -23304856.50949 -16929851.71547  21132247.050    21132258.504
 02  3  7  0 47 30.0000000  0  8G23G26G18G 6G21G17G22G15
  21025644.787   -22452172.63149 -17110786.35047  21025644.109    21025654.412
  21726618.422   -16512297.11449 -12846157.16347  21726618.466    21726630.450
  21006499.307   -24746254.24249 -18900358.30647  21006498.784    21006508.799
  20839696.681   -24026300.04149 -18696959.80047  20839696.398    20839707.073
  23685533.103    -8004536.03649  -6203022.44245  23685532.598    23685550.140
  20818392.846   -21621429.10449 -15940714.34547  20818392.257    20818402.905
  23376592.861    -8679790.63949  -6720168.25945  23376592.092    23376608.161
  21124203.070   -23347131.65049 -16962793.29647  21124202.299    21124213.766
 02  3  7  0 48  0.0000000  0  8G23G26G18G 6G21G17G22G15
  21034244.855   -22406979.08449 -17075570.60347  21034244.166    21034254.484
  21724166.171   -16525183.18749 -12856198.19347  21724166.193    21724178.197
  20996350.590   -24799585.70849 -18941915.20347  20996350.069    20996360.049
  20849944.109   -23972449.56349 -18654998.43947  20849943.844    20849954.516
  23670081.017    -8085736.21749  -6266295.02645  23670080.505    23670097.914
  20814219.380   -21643360.57349 -15957803.78047  20814218.796    20814229.436
  23377696.388    -8673992.04349  -6715649.84745  23377695.528    23377711.520
  21116192.252   -23389228.46549 -16995595.92547  21116191.495    21116202.903
 02  3  7  0 48 30.0000000  0  8G23G26G18G 6G21G17G22G15
  21042908.635   -22361450.53949 -17040093.81747  21042907.958    21042918.280
  21721834.575   -16537435.89449 -12865745.69847  21721834.487    21721846.462
  20986282.482   -24852493.62049 -18983142.06147  20986281.969    20986291.915
  20860278.808   -23918140.54049 -18612679.77647  20860278.560    20860289.232
  23654670.842    -8166716.07649  -6329395.93745  23654670.293    23654687.695
  20810077.862   -21665124.24349 -15974762.47247  20810077.283    20810087.918
  23378898.857    -8667673.51049  -6710726.31045  23378897.945    23378913.842
  21108215.550   -23431146.13149 -17028258.96147  21108214.787    21108226.150
 02  3  7  0 49  0.0000000  0  8G23G26G18G 6G21G17G22G15
  21051636.092   -22315587.41649 -17004356.31747  21051635.426    21051645.757
  21719623.978   -16549052.63449 -12874797.64547  21719623.867    21719635.748
  20976295.398   -24904975.70249 -19024037.09747  20976294.893    20976304.799
  20870700.982   -23863372.03349 -18570003.06747  20870700.724    20870711.401
  23639302.990    -8247473.12749  -6392323.21545  23639302.452    23639319.904
  20805968.676   -21686718.16349 -15991588.88547  20805968.088    20805978.730
  23380200.263    -8660834.38749  -6705397.11345  23380199.435    23380215.238
  21100273.265   -23472882.77749 -17060780.93747  21100272.515    21100283.829
 02  3  7  0 49 30.0000000  0  8G23G26G18G 6G21G17G22G15
  21060426.203   -22269394.53949 -16968361.87347  21060425.631    21060435.954
  21717534.082   -16560035.22749 -12883355.45147  21717533.904    21717545.732
  20966388.915   -24957034.26249 -19064602.12047  20966388.432    20966398.299
  20881209.811   -23808147.90849 -18526971.34247  20881209.559    20881220.239
  23623976.973    -8328010.22149  -6455079.09445  23623976.492    23623993.922
  20801891.258   -21708144.90549 -16008285.02947  20801890.671    20801901.319
  23381600.060    -8653478.59849  -6699665.32145  23381599.096    23381614.977
  21092364.982   -23514440.91749 -17093163.82347  21092364.220    21092375.488
 02  3  7  0 50  0.0000000  0  9G23G26G18G 6G21G29G17G22G15
  21069277.821   -22222878.76849 -16932115.81947  21069277.293    21069287.649
  21715564.038   -16570387.60049 -12891422.17747  21715563.868    21715575.709
  20956562.173   -25008673.79449 -19104840.61847  20956561.694    20956571.537
  20891804.302   -23752473.61549 -18483588.82747  20891804.065    20891814.773
  23608692.266    -8408330.96949  -6517666.41646  23608691.744    23608709.145
  24434546.589    -3907159.25649  -2405273.19745  24434546.337    24434568.745
  20797844.853   -21729408.95849 -16024854.39147  20797844.252    20797854.888
  23383096.991    -8645611.73449  -6693535.27545  23383096.040    23383112.058
  21084489.749   -23555825.10649 -17125411.16047  21084488.982    21084500.252
 02  3  7  0 50 30.0000000  0  9G23G26G18G 6G21G29G17G22G15
  21078192.442   -22176032.19849 -16895612.00647  21078191.901    21078202.260
  21713715.905   -16580098.89849 -12898989.36547  21713715.798    21713727.677
  20946817.135   -25059883.82449 -19144744.45147  20946816.681    20946826.496
  20902486.140   -23696340.26049 -18439848.60547  20902485.890    20902496.620
  23593450.829    -8488424.02849  -6580076.31746  23593450.345    23593467.683
  24414584.756    -4012057.26549  -2487011.29945  24414584.416    24414606.449
  20793831.329   -21750500.15049 -16041289.05547  20793830.701    20793841.339
  23384692.971    -8637225.04449  -6687000.19645  23384691.915    23384707.947
  21076649.587   -23597025.13649 -17157515.00347  21076648.820    21076660.058
 02  3  7  0 51  0.0000000  0  9G23G26G18G 6G21G29G17G22G15
  21087169.827   -22128855.58549 -16858851.02047  21087169.306    21087179.677
  21711990.181   -16589166.87149 -12906055.25147  21711990.132    21712002.016
  20937154.289   -25110662.23249 -19184311.94947  20937153.810    20937163.577
  20913255.501   -23639747.23349 -18395750.20247  20913255.245    20913265.990
  23578253.060    -8568287.29849  -6642307.16246  23578252.626    23578269.949
  24394615.903    -4116992.38649  -2568778.34545  24394615.690    24394637.768
  20789851.022   -21771416.81049 -16057587.71947  20789850.376    20789861.008
  23386387.914    -8628318.13349  -6680059.74446  23386386.842    23386402.826
  21068844.773   -23638039.40249 -17189474.10047  21068844.013    21068855.235
 02  3  7  0 51 30.0000000  0  9G23G26G18G 6G21G29G17G22G15
  21096208.916   -22081355.07949 -16821837.64847  21096208.359    21096218.741
  21710386.299   -16597594.76749 -12912622.38547  21710386.332    21710398.153
  20927572.836   -25161012.93049 -19223546.16348  20927572.323    20927582.096
  20924111.321   -23582699.60249 -18351297.55747  20924111.079    20924121.828
  23563098.534    -8647924.17149  -6704361.58046  23563097.967    23563115.328
  24374639.554    -4221966.41949  -2650575.68945  24374639.210    24374661.064
  20785903.170   -21792162.72949 -16073753.33447  20785902.529    20785913.150
  23388180.709    -8618896.10549  -6672717.90645  23388179.760    23388195.739
  21061074.588   -23678871.60849 -17221291.33347  21061073.822    21061085.029
 02  3  7  0 52  0.0000000  0  9G23G26G18G 6G21G29G17G22G15
  21105309.431   -22033531.62849 -16784572.63447  21105308.869    21105319.233
  21708904.637   -16605380.77649 -12918689.35047  21708904.648    21708916.448
  20918073.023   -25210934.35949 -19262445.88547  20918072.510    20918082.280
  20935053.721   -23525197.27449 -18306490.60447  20935053.464    20935064.224
  23547987.368    -8727332.73549  -6766238.08646  23547986.758    23548004.084
  24354656.500    -4326975.41549  -2732400.29145  24354656.293    24354677.968
  20781988.075   -21812736.60249 -16089784.88747  20781987.420    20781998.052
  23390071.635    -8608959.11049  -6664974.79246  23390070.691    23390086.651
  21053339.268   -23719520.55649 -17252965.77647  21053338.507    21053349.690
 02  3  7  0 52 30.0000000  0  9G23G26G18G 6G21G29G17G22G15
  21114471.135   -21985386.74449 -16747057.15947  21114470.546    21114480.928
  21707545.231   -16612523.51949 -12924255.06447  21707545.359    21707557.170
  20908655.082   -25260425.50649 -19301010.32348  20908654.570    20908664.335
  20946082.513   -23467240.70449 -18261329.69947  20946082.259    20946093.053
  23532919.868    -8806511.75049  -6827935.73746  23532919.319    23532936.478
  24334667.338    -4432016.63949  -2814249.99645  24334667.082    24334688.868
  20778105.828   -21833137.68649 -16105681.80147  20778105.187    20778115.792
  23392060.411    -8598507.73249  -6656830.86246  23392059.574    23392075.563
  21045639.059   -23759985.33149 -17284496.70247  21045638.288    21045649.468
 02  3  7  0 53  0.0000000  0  9G23G26G18G 6G21G29G17G22G15
  21123693.321   -21936924.07749 -16709294.05647  21123692.712    21123703.086
  21706308.303   -16619023.96449 -12929320.29447  21706308.305    21706320.162
  20899318.785   -25309487.81149 -19339240.59948  20899318.263    20899328.024
  20957197.264   -23408832.47849 -18215816.85247  20957197.014    20957207.819
  23517896.001    -8885461.90949  -6889455.07046  23517895.441    23517912.536
  24314672.268    -4537089.03849  -2896124.00945  24314672.174    24314693.761
  20774256.260   -21853367.09449 -16121444.93947  20774255.652    20774266.247
  23394146.847    -8587544.73249  -6648288.26646  23394145.899    23394161.714
  21037973.577   -23800267.34649 -17315885.22247  21037972.835    21037983.984
 02  3  7  0 53 30.0000000  0  9G23G26G18G 6G21G29G17G22G15
  21132975.179   -21888147.58449 -16671286.42047  21132974.566    21132984.947
  21705193.258   -16624883.26249 -12933885.91447  21705193.248    21705205.177
  20890063.784   -25358122.66749 -19377137.80148  20890063.280    20890073.017
  20968397.463   -23349975.30849 -18169954.18447  20968397.191    20968408.014
  23502915.560    -8964183.68349  -6950796.43446  23502915.001    23502931.951
  24294671.153    -4642191.61349  -2978021.55545  24294671.191    24294692.959
  20770439.069   -21873426.44549 -16137075.56147  20770438.475    20770449.052
  23396329.816    -8576073.08049  -6639349.30645  23396328.789    23396344.658
  21030342.597   -23840368.15349 -17347132.54347  21030341.848    21030352.990
 02  3  7  0 54  0.0000000  0  9G23G26G18G 6G21G29G17G22G15
  21142317.023   -21839055.76049 -16633033.06647  21142316.439    21142326.818
  21704201.058   -16630097.18249 -12937948.64347  21704201.005    21704212.955
  20880890.885   -25406326.17349 -19414698.88548  20880890.391    20880900.099
  20979683.605   -23290666.52749 -18123739.61047  20979683.317    20979694.161
  23487979.348    -9042673.17049  -7011956.79646  23487978.761    23487995.623
  24274665.762    -4747318.26049  -3059937.86345  24274665.909    24274687.580
  20766654.990   -21893311.89149 -16152570.67247  20766654.394    20766664.950
  23398610.130    -8564090.23049  -6630012.01845  23398608.970    23398624.899
  21022746.873   -23880283.58349 -17378235.40847  21022746.116    21022757.264
 02  3  7  0 54 30.0000000  0  9G23G26G18G 6G21G29G17G22G15
  21151718.366   -21789651.24949 -16594536.06547  21151717.831    21151728.199
  21703331.637   -16634665.60049 -12941508.40247  21703331.586    21703343.573
  20871800.018   -25454098.38749 -19451923.90348  20871799.564    20871809.239
  20991055.302   -23230907.89649 -18077174.50047  20991055.025    20991065.885
  23473087.262    -9120930.40149  -7072936.19746  23473086.730    23473103.461
  24254656.282    -4852466.91449  -3141871.36545  24254656.392    24254677.935
  20762903.931   -21913023.76249 -16167930.53247  20762903.321    20762913.868
  23400986.976    -8551598.22349  -6620277.98745  23400986.154    23401001.975
  21015186.351   -23920014.20849 -17409194.27747  21015185.600    21015196.717
 02  3  7  0 55  0.0000000  0  9G23G26G18G 6G21G29G17G22G15
  21161178.364   -21739938.54349 -16555798.91447  21161177.861    21161188.240
  21702584.647   -16638590.49949 -12944566.70247  21702584.654    21702596.589
  20862790.864   -25501441.47549 -19488814.53948  20862790.411    20862800.063
  21002511.942   -23170702.99749 -18030261.65747  21002511.693    21002522.558
  23458239.125    -9198956.94349  -7133735.85446  23458238.579    23458255.209
  24234642.607    -4957637.43049  -3223821.92245  24234642.767    24234664.109
  20759185.497   -21932564.07649 -16183156.70947  20759184.895    20759195.430
  23403460.224    -8538600.76149  -6610150.07645  23403459.452    23403475.358
  21007660.569   -23959562.16849 -17440010.81547  21007659.800    21007670.924
 02  3  7  0 55 30.0000000  0  9G23G26G18G 6G21G29G17G22G15
  21170697.025   -21689917.77349 -16516821.71547  21170696.472    21170706.871
  21701960.770   -16641869.21549 -12947121.50247  21701960.725    21701972.595
  20853863.837   -25548353.08349 -19525368.95448  20853863.341    20853872.956
  21014053.697   -23110050.85949 -17983000.30647  21014053.414    21014064.330
  23443435.462    -9276749.87749  -7194353.46546  23443434.939    23443451.376
  24214625.459    -5062825.39449  -3305786.08645  24214625.744    24214646.779
  20755500.166   -21951930.60249 -16198247.46447  20755499.547    20755510.069
  23406030.094    -8525097.03949  -6599627.70745  23406029.133    23406044.964
  21000170.023   -23998925.09349 -17470683.16247  21000169.245    21000180.354
 02  3  7  0 56  0.0000000  0  9G23G26G18G 6G21G29G17G22G15
  21180273.621   -21639592.40149 -16477607.16247  21180273.072    21180283.490
  21701459.740   -16644502.67349 -12949173.50147  21701459.572    21701471.416
  20845018.657   -25594834.58249 -19561588.22348  20845018.154    20845027.751
  21025680.070   -23048954.06949 -17935392.47947  21025679.805    21025690.733
  23428676.100    -9354310.05849  -7254789.72146  23428675.526    23428691.871
  24194605.353    -5168029.45349  -3387762.80045  24194605.594    24194626.584
  20751847.618   -21971124.58049 -16213203.77747  20751847.015    20751857.551
  23408695.427    -8511089.73149  -6588712.94145  23408694.638    23408710.427
  20992714.468   -24038104.01849 -17501212.13947  20992713.707    20992724.783
 02  3  7  0 56 30.0000000  0  9G23G26G18G 6G21G29G17G22G15
  21189908.131   -21588962.54649 -16438155.34947  21189907.612    21189918.051
  21701081.910   -16646488.45949 -12950720.80947  21701081.654    21701093.464
  20836255.741   -25640883.67049 -19597470.54248  20836255.231    20836264.818
  21037391.232   -22987411.67849 -17887437.42847  21037390.957    21037401.912
  23413961.419    -9431635.10149  -7315042.75846  23413960.813    23413977.181
  24174583.105    -5273245.14749  -3469748.58845  24174583.305    24174604.233
  20748228.373   -21990143.59449 -16228023.74847  20748227.771    20748238.290
  23411457.330    -8496578.24549  -6577405.31145  23411456.166    23411471.917
  20985294.375   -24077096.58749 -17531595.89347  20985293.604    20985304.688
 02  3  7  0 57  0.0000000  0  9G23G26G18G 6G21G29G17G22G15
  21199599.952   -21538031.64549 -16398468.95047  21199599.463    21199609.899
  21700827.090   -16647827.43949 -12951764.11447  21700826.780    21700838.622
  20827574.887   -25686501.49349 -19633016.81848  20827574.410    20827583.946
  21049186.685   -22925426.26749 -17839137.16647  21049186.441    21049197.407
  23399291.413    -9508725.25349  -7375112.77546  23399290.788    23399307.159
  24154558.862    -5378471.01349  -3551742.31545  24154559.188    24154579.964
  20744642.247   -22008988.67349 -16242708.18747  20744641.644    20744652.178
  23414314.241    -8481565.28649  -6565706.91945  23414313.009    23414328.805
  20977909.562   -24115903.89049 -17561835.28747  20977908.786    20977919.839
 02  3  7  0 57 30.0000000  0  9G23G26G18G 6G21G29G17G22G15
  21209348.790   -21486801.50649 -16358549.38947  21209348.284    21209358.697
  21700695.328   -16648518.87249 -12952302.83947  21700695.131    21700707.014
  20818976.213   -25731687.38249 -19668226.52048  20818975.733    20818985.269
  21061066.361   -22862998.53449 -17790492.24147  21061066.097    21061077.047
  23384666.261    -9585579.78349  -7434999.20046  23384665.643    23384681.995
  24134533.301    -5483704.23449  -3633741.78245  24134533.611    24134554.202
  20741089.340   -22027659.11949 -16257256.55247  20741088.743    20741099.273
  23417266.597    -8466051.87349  -6553618.56645  23417265.065    23417280.922
  20970560.063   -24154525.41749 -17591929.91647  20970559.304    20970570.365
 02  3  7  0 58  0.0000000  0  9G23G26G18G 6G21G29G17G22G15
  21219154.249   -21435273.74449 -16318397.90547  21219153.715    21219164.087
  21700687.236   -16648561.91849 -12952336.34147  21700686.907    21700698.816
  20810459.898   -25776440.50749 -19703099.00648  20810459.439    20810468.943
  21073030.049   -22800129.25249 -17741503.25347  21073029.765    21073040.718
  23370086.302    -9662197.08349  -7494700.78946  23370085.676    23370101.910
  24114507.100    -5588941.71149  -3715744.58745  24114507.265    24114527.696
  20737569.790   -22046154.27749 -16271668.32247  20737569.180    20737579.709
  23420313.615    -8450038.92149  -6541140.97245  23420312.265    23420328.033
  20963246.112   -24192960.24849 -17621879.07047  20963245.337    20963256.389
 02  3  7  0 58 30.0000000  0  9G23G26G18G 6G21G29G17G22G15
  21229015.841   -21383450.73149 -16278016.35447  21229015.309    21229025.682
  21700802.406   -16647956.39949 -12951864.46047  21700802.137    21700814.011
  20802025.953   -25820761.19349 -19737634.52948  20802025.468    20802034.934
  21085077.485   -22736819.77649 -17692171.26147  21085077.215    21085088.175
  23355551.499    -9738576.79549  -7554217.21446  23355550.979    23355567.071
  24094480.571    -5694180.92649  -3797748.73745  24094480.659    24094500.842
  20734083.652   -22064473.86149 -16285943.28347  20734083.043    20734093.564
  23423455.570    -8433528.03349  -6528275.38245  23423454.250    23423469.941
  20955967.702   -24231208.32749 -17651682.70347  20955966.926    20955977.972
 02  3  7  0 59  0.0000000  0  9G23G26G18G 6G21G29G17G22G15
  21238933.282   -21331334.39649 -16237406.24347  21238932.733    21238943.129
  21701040.992   -16646701.82049 -12950886.81847  21701040.872    21701052.696
  20793674.365   -25864648.91249 -19771832.67348  20793673.839    20793683.279
  21097208.448   -22673071.25449 -17642497.15747  21097208.196    21097219.158
  23341062.058    -9814718.34949  -7613548.08046  23341061.470    23341077.635
  24074453.999    -5799419.12249  -3879752.08445  24074454.123    24074474.186
  20730631.004   -22082617.42249 -16300081.09247  20730630.413    20730640.939
  23426692.148    -8416520.46549  -6515022.76645  23426690.679    23426706.280
  20948724.899   -24269269.17449 -17681340.43747  20948724.130    20948735.167
 02  3  7  0 59 30.0000000  0  9G23G26G18G 6G21G29G17G22G15
  21248906.189   -21278926.34249 -16196568.81647  21248905.649    21248916.037
  21701403.468   -16644797.27649 -12949402.71847  21701403.271    21701415.071
  20785405.206   -25908103.16449 -19805693.05548  20785404.704    20785414.132
  21109422.887   -22608884.34649 -17592481.45347  21109422.641    21109433.597
  23326618.219    -9890620.25349  -7672692.20146  23326617.639    23326633.769
  24054428.213    -5904653.20549  -3961752.23145  24054428.346    24054448.374
  20727212.013   -22100584.15549 -16314081.11047  20727211.430    20727221.948
  23430022.557    -8399017.18149  -6501383.84445  23430021.344    23430037.025
  20941517.919   -24307141.78449 -17710851.48847  20941517.149    20941528.169
 02  3  7  1  0  0.0000000  0  9G23G26G18G 6G21G29G17G22G15
  21258934.162   -21226229.29349 -16155506.19747  21258933.597    21258943.982
  21701889.220   -16642243.33449 -12947412.59647  21701889.245    21701900.994
  20777218.552   -25951124.10849 -19839215.79348  20777218.051    20777227.435
  21121720.399   -22544260.64449 -17542125.39247  21121720.147    21121731.110
  23312219.961    -9966282.59849  -7731649.66046  23312219.426    23312235.479
  24034403.817    -6009881.01649  -4043747.49445  24034403.839    24034423.819
  20723826.642   -22118374.20249 -16327943.45147  20723826.054    20723836.573
  23433447.084    -8381020.32949  -6487360.33945  23433445.983    23433461.838
  20934346.709   -24344826.60349 -17740216.20447  20934345.934    20934356.945
 02  3  7  1  0 30.0000000  0  9G23G26G18G 6G21G29G17G22G15
  21269016.729   -21173245.12249 -16114219.85247  21269016.166    21269026.525
  21702498.832   -16639039.29249 -12944915.89147  21702498.933    21702510.651
  20769114.385   -25993711.47649 -19872400.68048  20769113.882    20769123.246
  21134100.819   -22479201.40049 -17491429.94947  21134100.567    21134111.546
  23297867.572   -10041704.34349  -7790419.64046  23297866.963    23297883.008
  24014381.074    -6115099.89649  -4125735.78745  24014381.031    24014400.827
  20720474.997   -22135987.20149 -16341667.83547  20720474.414    20720484.896
  23436965.693    -8362531.01549  -6472953.11245  23436964.318    23436980.307
  20927211.302   -24382323.08549 -17769434.16447  20927210.534    20927221.515
 02  3  7  1  1  0.0000000  0  9G23G26G18G 6G21G29G17G22G15
  21279153.619   -21119975.59049 -16072711.13847  21279153.039    21279163.400
  21703232.267   -16635184.88549 -12941912.39747  21703232.325    21703244.103
  20761092.774   -26035864.99449 -19905247.50448  20761092.265    20761101.612
  21146563.906   -22413707.61649 -17440395.90047  21146563.659    21146574.675
  23283560.918   -10116885.15049  -7849001.83046  23283560.348    23283576.362
  23994360.529    -6220306.78849  -4207714.74345  23994360.490    23994380.182
  20717157.157   -22153422.31849 -16355253.60747  20717156.581    20717167.047
  23440577.719    -8343550.58749  -6458163.17745  23440576.137    23440592.279
  20920111.870   -24419630.52149 -17798504.81347  20920111.089    20920122.080
 02  3  7  1  1 30.0000000  0  9G23G26G18G 6G21G29G17G22G15
  21289344.340   -21066423.19049 -16030982.01147  21289343.754    21289354.107
  21704089.288   -16630680.25749 -12938402.26847  21704089.521    21704101.263
  20753153.631   -26077584.91549 -19937756.46348  20753153.161    20753162.495
  21159109.380   -22347781.04249 -17389024.61547  21159109.133    21159120.162
  23269300.330   -10191824.31949  -7907395.79746  23269299.729    23269315.696
  23974342.688    -6325499.45449  -4289682.62845  23974342.719    23974362.285
  20713873.176   -22170679.74849 -16368700.93048  20713872.594    20713883.041
  23444282.846    -8324080.88549  -6442992.00445  23444281.172    23444297.206
  20913048.451   -24456748.78249 -17827428.05947  20913047.668    20913058.672
 02  3  7  1  2  0.0000000  0  9G23G26G18G 6G21G29G17G22G15
  21299588.365   -21012590.67349 -15989034.61147  21299587.762    21299598.140
  21705070.130   -16625525.78049 -12934385.75247  21705070.333    21705082.097
  20745296.965   -26118871.60049 -19969927.83548  20745296.500    20745305.819
  21171736.841   -22281423.42049 -17337317.45347  21171736.612    21171747.688
  23255085.727   -10266521.50949  -7965601.15846  23255085.150    23255101.013
  23954328.048    -6430675.71449  -4371637.71245  23954327.855    23954347.261
  20710623.020   -22187759.36449 -16382009.69948  20710622.424    20710632.844
  23448080.110    -8304124.04649  -6427441.24445  23448078.913    23448094.958
  20906020.908   -24493678.33149 -17856204.25247  20906020.134    20906031.142
 02  3  7  1  2 30.0000000  0  9G23G26G18G 6G21G29G17G22G15
  21309885.504   -20958478.94949 -15946869.65647  21309884.884    21309895.274
  21706175.033   -16619720.06949 -12929861.76547  21706175.078    21706186.813
  20737523.044   -26159723.73549 -20001760.59748  20737522.552    20737531.842
  21184446.389   -22214634.64749 -17285274.33447  21184446.153    21184457.239
  23240917.553   -10340974.88649  -8023616.54646  23240916.939    23240932.815
  23934317.384    -6535831.73549  -4453577.02245  23934316.928    23934336.218
  20707406.944   -22204659.87349 -16395178.90748  20707406.351    20707416.758
  23451970.792    -8283680.36049  -6411511.13645  23451969.299    23451985.256
  20899029.612   -24530417.51049 -17884832.10247  20899028.833    20899039.844
 02  3  7  1  3  0.0000000  0  9G23G26G18G 6G21G29G17G22G15
  21320235.337   -20904090.34049 -15904488.93847  21320234.689    21320245.083
  21707403.533   -16613263.45949 -12924830.61147  21707403.707    21707415.409
  20729831.671   -26200141.71549 -20033255.05148  20729831.197    20729840.493
  21197237.670   -22147416.37649 -17232896.52847  21197237.438    21197248.544
  23226795.662   -10415184.86549  -8081442.28846  23226795.095    23226810.849
  23914310.818    -6640965.26249  -4535498.80945  23914310.348    23914329.454
  20704225.025   -22221381.01149 -16408208.33548  20704224.404    20704234.816
  23455953.229    -8262751.78649  -6395203.17645  23455951.813    23455967.867
  20892074.535   -24566966.31849 -17913311.61247  20892073.758    20892084.761
 02  3  7  1  3 30.0000000  0  9G23G26G18G 6G21G29G17G22G15
  21330637.622   -20849425.92449 -15861893.31647  21330637.007    21330647.404
  21708756.273   -16606154.65249 -12919291.24447  21708756.431    21708768.140
  20722223.195   -26240124.26849 -20064410.21948  20722222.724    20722231.994
  21210110.617   -22079768.93649 -17180184.31147  21210110.356    21210121.498
  23212720.453   -10489149.60449  -8139076.92646  23212719.908    23212735.541
  23894309.213    -6746072.38549  -4617400.02445  23894308.745    23894327.794
  20701077.436   -22237921.37649 -16421096.90548  20701076.823    20701087.241
  23460027.684    -8241338.82149  -6378517.75745  23460026.532    23460042.740
  20885155.990   -24603323.14549 -17941641.52847  20885155.228    20885166.216
 02  3  7  1  4  0.0000000  0  9G23G26G18G 6G21G29G17G22G15
  21341091.629   -20794489.87149 -15819086.02647  21341091.010    21341101.405
  21710232.769   -16598396.11849 -12913245.58347  21710232.759    21710244.455
  20714697.119   -26279673.79949 -20095227.96848  20714696.644    20714705.898
  21223064.550   -22011695.96749 -17127140.51447  21223064.298    21223075.452
  23198691.674   -10562870.33149  -8196521.42046  23198691.191    23198706.712
  23874312.710    -6851152.73349  -4699280.38245  23874312.378    23874331.235
  20697963.918   -22254282.81949 -16433846.05548  20697963.328    20697973.746
  23464193.663    -8219445.45849  -6361458.02645  23464192.787    23464208.909
  20878273.591   -24639489.87949 -17969823.31947  20878272.843    20878283.804
 02  3  7  1  4 30.0000000  0  9G23G26G18G 6G21G29G17G22G15
  21351597.161   -20739283.10249 -15776067.79247  21351596.537    21351606.916
  21711832.907   -16589986.41349 -12906692.52347  21711833.041    21711844.725
  20707253.750   -26318788.86849 -20125707.17648  20707253.227    20707262.481
  21236099.375   -21943197.63249 -17073765.26047  21236099.134    21236110.304
  23184709.791   -10636345.05549  -8253774.25046  23184709.249    23184724.685
  23854322.117    -6956202.39349  -4781136.85445  23854321.767    23854340.561
  20694884.836   -22270463.51349 -16446454.35448  20694884.220    20694894.646
  23468451.646    -8197071.90549  -6344024.12945  23468450.420    23468466.417
  20871427.752   -24675464.74349 -17997855.60747  20871427.002    20871437.958
 02  3  7  1  5  0.0000000  0  9G23G26G18G 6G21G29G17G22G15
  21362153.621   -20683808.39049 -15732840.76947  21362153.049    21362163.406
  21713557.036   -16580926.06049 -12899632.46047  21713557.107    21713568.817
  20699893.027   -26357469.83149 -20155848.11848  20699892.453    20699901.694
  21249214.829   -21874275.66049 -17020059.90147  21249214.595    21249225.783
  23170774.643   -10709574.35649  -8310835.82946  23170774.067    23170789.436
  23834337.478    -7061219.24149  -4862967.77545  23834337.362    23834356.052
  20691840.063   -22286463.80949 -16458922.09048  20691839.448    20691849.886
  23472800.515    -8174220.44049  -6326217.81345  23472798.889    23472815.033
  20864618.312   -24711248.13449 -18025738.69747  20864617.576    20864628.499
 02  3  7  1  5 30.0000000  0  9G23G26G18G 6G21G29G17G22G15
  21372761.237   -20628065.34449 -15689404.65847  21372760.626    21372770.987
  21715405.653   -16571212.81549 -12892063.67047  21715405.428    21715417.143
  20692615.244   -26395714.56149 -20185649.14148  20692614.671    20692623.890
  21262411.068   -21804929.21749 -16966023.78947  21262410.829    21262422.038
  23156886.646   -10782555.31549  -8367703.87046  23156886.052    23156901.361
  23814360.421    -7166198.17149  -4944769.15345  23814360.212    23814378.892
  20688830.179   -22302280.86749 -16471247.04748  20688829.551    20688839.979
  23477239.940    -8150890.41649  -6308038.57145  23477238.485    23477254.694
  20857845.844   -24746837.31049 -18053470.45147  20857845.115    20857856.030
 02  3  7  1  6  0.0000000  0  9G23G26G18G 6G21G29G17G22G15
  21383418.752   -20572059.65649 -15645763.88847  21383418.168    21383428.528
  21717377.363   -16560850.60849 -12883989.18547  21717377.243    21717388.952
  20685419.711   -26433526.78049 -20215113.13548  20685419.172    20685428.392
  21275687.145   -21735163.33649 -16911660.83947  21275686.928    21275698.118
  23143045.393   -10855290.67049  -8424380.56846  23143044.814    23143060.033
  23794390.418    -7271140.23949  -5026541.82845  23794390.167    23794408.725
  20685854.526   -22317917.86549 -16483431.69448  20685853.901    20685864.328
  23481769.433    -8127087.03149  -6289490.50745  23481768.200    23481784.322
  20851109.786   -24782235.18049 -18081053.13847  20851109.068    20851119.956
 02  3  7  1  6 30.0000000  0  9G23G26G18G 6G21G29G17G22G15
  21394126.423   -20515790.30749 -15601917.67747  21394125.875    21394136.268
  21719473.244   -16549836.20949 -12875406.49247  21719473.162    21719484.841
  20678307.165   -26470903.18049 -20244237.53548  20678306.646    20678315.849
  21289043.329   -21664976.26849 -16856969.69447  21289043.122    21289054.340
  23129251.579   -10927776.96649  -8480863.18846  23129251.033    23129266.185
  23774428.460    -7376039.35749  -5108281.04745  23774428.167    23774446.765
  20682913.857   -22333371.07349 -16495473.13348  20682913.227    20682923.652
  23486389.256    -8102808.96449  -6270572.55845  23486388.171    23486404.265
  20844410.756   -24817438.60349 -18108484.30247  20844410.015    20844420.875
 02  3  7  1  7  0.0000000  0  9G23G26G18G 6G21G29G17G22G15
  21404883.851   -20459259.93049 -15557868.06547  21404883.258    21404893.666
  21721692.975   -16538170.43749 -12866316.26247  21721693.095    21721704.703
  20671277.361   -26507844.57949 -20273022.97648  20671276.863    20671286.052
  21302479.325   -21594369.99549 -16801951.89447  21302479.091    21302490.330
  23115505.121   -11000014.09849  -8537151.66946  23115504.550    23115519.709
  23754475.065    -7480893.66749  -5189985.36645  23754474.800    23754493.351
  20680008.090   -22348640.89549 -16507371.67148  20680007.459    20680017.884
  23491099.334    -8078058.51849  -6251286.49845  23491097.972    23491114.165
  20837748.733   -24852447.62149 -18135763.98647  20837747.987    20837758.807
 02  3  7  1  7 30.0000000  0  9G23G26G18G 6G21G29G17G22G15
  21415690.303   -20402471.70649 -15513617.52647  21415689.736    21415700.147
  21724036.652   -16525854.38849 -12856719.29247  21724036.692    21724048.260
  20664330.242   -26544351.85249 -20301470.13248  20664329.712    20664338.899
  21315994.563   -21523347.06549 -16746609.43247  21315994.354    21316005.633
  23101805.995   -11072002.33449  -8593246.18946  23101805.473    23101820.616
  23734530.632    -7585701.28349  -5271653.31045  23734530.387    23734548.744
  20677137.118   -22363727.63049 -16519127.53148  20677136.496    20677146.936
  23495898.099    -8052838.38049  -6231634.47145  23495897.179    23495913.413
  20831123.593   -24887262.75249 -18162892.59147  20831122.834    20831133.626
 02  3  7  1  8  0.0000000  0  9G23G26G18G 6G21G29G17G22G15
  21426545.404   -20345427.85549 -15469167.79947  21426544.842    21426555.261
  21726503.920   -16512888.51549 -12846615.99647  21726504.054    21726515.518
  20657465.632   -26580425.23349 -20329579.19648  20657465.115    20657474.280
  21329588.762   -21451909.26149 -16690943.69047  21329588.553    21329599.821
  23088154.305   -11143741.69049  -8649146.79946  23088153.794    23088168.922
  23714595.610    -7690459.58849  -5353282.82645  23714595.368    23714613.570
  20674301.032   -22378631.21349 -16530740.68048  20674300.420    20674310.870
  23500786.273    -8027150.70049  -6211618.12545  23500785.485    23500801.585
  20824535.418   -24921883.65349 -18189869.85147  20824534.665    20824545.434
 02  3  7  1  8 30.0000000  0  9G23G26G18G 6G21G29G17G22G15
  21437449.032   -20288129.23149 -15424519.54247  21437448.443    21437458.838
  21729095.112   -16499271.97049 -12836005.65147  21729095.221    21729106.612
  20650683.814   -26616063.60249 -20357349.28548  20650683.300    20650692.439
  21343261.870   -21380056.90949 -16634954.91647  21343261.677    21343272.963
  23074550.286   -11215230.43149  -8704852.11046  23074549.742    23074564.896
  23694670.674    -7795164.96549  -5434871.10445  23694670.332    23694688.444
  20671500.104   -22393349.99049 -16542209.83048  20671499.509    20671509.934
  23505763.248    -8000995.84149  -6191237.76645  23505762.508    23505778.624
  20817984.512   -24956308.69949 -18216694.50347  20817983.750    20817994.477
 02  3  7  1  9  0.0000000  0  9G23G26G18G 6G21G29G17G22G15
  21448400.690   -20230578.02149 -15379674.47447  21448400.082    21448410.487
  21731810.108   -16485004.93449 -12824888.45247  21731810.151    21731821.500
  20643984.773   -26651267.06149 -20384780.49348  20643984.267    20643993.386
  21357013.627   -21307791.24049 -16578644.08047  21357013.417    21357024.710
  23060994.058   -11286467.92349  -8760361.63446  23060993.507    23061008.656
  23674756.175    -7899814.41949  -5516415.82345  23674755.868    23674773.972
  20668734.497   -22407883.31049 -16553534.47948  20668733.883    20668744.297
  23510829.013    -7974375.75249  -6170494.86545  23510828.242    23510844.349
  20811470.921   -24990537.53749 -18243366.27247  20811470.149    20811480.862
 02  3  7  1  9 30.0000000  0  9G23G26G18G 6G21G29G17G22G15
  21459400.038   -20172776.29449 -15334634.19047  21459399.417    21459409.824
  21734648.761   -16470087.78849 -12813264.67847  21734648.796    21734660.111
  20637368.378   -26686036.02049 -20411873.12448  20637367.898    20637376.989
  21370843.767   -21235113.82349 -16522012.40147  21370843.533    21370854.855
  23047485.808   -11357453.73149  -8815675.06446  23047485.208    23047500.308
  23654852.891    -8004405.34449  -5597914.92445  23654852.697    23654870.650
  20666004.241   -22422230.90249 -16564714.39848  20666003.623    20666014.028
  23515983.544    -7947292.14949  -6149390.77745  23515982.085    23515998.245
  20804994.788   -25024569.73449 -18269884.81547  20804994.012    20805004.693
 02  3  7  1 10  0.0000000  0  9G23G26G18G 6G21G29G17G22G15
  21470445.950   -20114729.49949 -15289402.93947  21470445.350    21470455.784
  21737610.300   -16454524.21849 -12801137.18947  21737610.406    21737621.777
  20630834.075   -26720373.69849 -20438629.68448  20630833.611    20630842.699
  21384751.271   -21162029.61249 -16465063.74347  21384751.065    21384762.404
  23034024.910   -11428190.56749  -8870794.49446  23034024.287    23034039.358
  23634960.659    -8108938.29349  -5679368.84345  23634960.438    23634978.262
  20663308.779   -22436395.49249 -16575751.71248  20663308.179    20663318.556
  23521224.449    -7919750.26249  -6127929.59545  23521223.096    23521239.377
  20798555.455   -25058408.23049 -18296252.40947  20798554.700    20798565.379
 02  3  7  1 10 30.0000000  0  9G23G26G18G 6G21G29G17G22G15
  21481539.108   -20056434.43549 -15243978.23247  21481538.550    21481549.002
  21740695.920   -16438309.33249 -12788502.19447  21740695.949    21740707.387
  20624382.814   -26754275.09149 -20465046.28848  20624382.337    20624391.402
  21398736.882   -21088535.11949 -16407795.39647  21398736.673    21398747.999
  23020612.359   -11498672.98749  -8925715.67346  23020611.772    23020626.795
  23615080.912    -8213405.31649  -5760771.39845  23615080.770    23615098.432
  20660649.247   -22450371.49949 -16586642.08948  20660648.621    20660659.000
  23526553.646    -7891746.81449  -6106108.73745  23526552.037    23526568.274
  20792154.137   -25092047.22249 -18322464.55747  20792153.372    20792164.026
 02  3  7  1 11  0.0000000  0  9G23G26G18G 6G21G29G17G22G15
  21492678.735   -19997895.19149 -15198363.25847  21492678.179    21492688.657
  21743904.913   -16421445.53549 -12775361.54647  21743904.998    21743916.471
  20618014.138   -26787742.50449 -20491124.72448  20618013.656    20618022.693
  21412799.954   -21014633.81949 -16350210.04247  21412799.687    21412811.044
  23007247.968   -11568902.41549  -8980439.72546  23007247.404    23007262.381
  23595213.969    -8317805.97449  -5842122.23145  23595213.755    23595231.277
  20658025.276   -22464160.32849 -16597386.60648  20658024.647    20658035.016
  23531969.103    -7863285.50449  -6083931.16045  23531967.968    23531984.260
  20785790.461   -25125488.33349 -18348522.50647  20785789.707    20785800.357
 02  3  7  1 11 30.0000000  0  9G23G26G18G 6G21G29G17G22G15
  21503864.501   -19939113.65649 -15152559.48547  21503863.945    21503874.476
  21747237.346   -16403933.16149 -12761715.50047  21747237.481    21747248.971
  20611728.012   -26820776.03149 -20516865.06748  20611727.518    20611736.544
  21426940.162   -20940326.88449 -16292308.60547  21426939.878    21426951.263
  22993931.849   -11638878.38349  -9034966.27346  22993931.293    22993946.143
  23575360.212    -8422137.14249  -5923418.90445  23575359.939    23575377.445
  20655437.031   -22477761.50049 -16607984.89748  20655436.409    20655446.773
  23537472.187    -7834368.35949  -6061398.32545  23537470.718    23537487.088
  20779464.589   -25158730.80249 -18374425.67447  20779463.817    20779474.444
 02  3  7  1 12  0.0000000  0  9G23G26G18G 6G21G29G17G22G15
  21515095.956   -19880092.08049 -15106568.66647  21515095.379    21515105.920
  21750693.050   -16385772.84249 -12747564.57247  21750693.258    21750704.749
  20605524.444   -26853375.83549 -20542267.44448  20605523.923    20605532.924
  21441157.164   -20865616.20749 -16234092.56247  21441156.906    21441168.311
  22980663.983   -11708600.61649  -9089295.10146  22980663.478    22980678.227
  23555520.057    -8526396.19849  -6004659.40045  23555519.824    23555537.268
  20652884.623   -22491174.40449 -16618436.49248  20652884.016    20652894.355
  23543061.334    -7804997.24549  -6038511.78545  23543059.938    23543076.199
  20773176.580   -25191774.31749 -18400173.81647  20773175.810    20773186.411
 02  3  7  1 12 30.0000000  0  9G23G26G18G 6G21G29G17G22G15
  21526372.869   -19820831.57649 -15060391.66847  21526372.293    21526382.870
  21754272.372   -16366964.03149 -12732908.34247  21754272.441    21754283.879
  20599403.573   -26885541.05049 -20567331.17948  20599403.040    20599412.028
  21455450.861   -20790502.34649 -16175562.35847  21455450.630    21455462.090
  22967444.583   -11778068.44949  -9143425.70646  22967444.070    22967458.752
  23535694.290    -8630579.46649  -6085840.82045  23535694.129    23535711.503
  20650368.270   -22504397.81149 -16628740.41948  20650367.678    20650378.008
  23548736.187    -7775173.25449  -6015272.36445  23548735.250    23548751.549
  20766926.691   -25224617.49349 -18425765.84947  20766925.926    20766936.502
 02  3  7  1 13  0.0000000  0  9G23G26G18G 6G21G29G17G22G15
  21537694.490   -19761336.07049 -15014031.55947  21537693.935    21537704.520
  21757974.503   -16347509.04249 -12717748.60347  21757974.618    21757986.013
  20593364.907   -26917273.95249 -20592058.05048  20593364.401    20593373.383
  21469820.763   -20714988.75749 -16116720.67247  21469820.472    21469831.951
  22954273.509   -11847282.11749  -9197358.24946  22954272.978    22954287.653
  23515883.209    -8734686.18149  -6166962.57945  23515883.014    23515900.377
  20647887.731   -22517432.99449 -16638897.68048  20647887.115    20647897.451
  23554497.293    -7744900.02749  -5991682.87445  23554496.161    23554512.390
  20760714.700   -25257261.64849 -18451202.80747  20760713.917    20760724.485
 02  3  7  1 13 30.0000000  0  9G23G26G18G 6G21G29G17G22G15
  21549060.659   -19701606.50749 -14967489.06247  21549060.096    21549070.686
  21761799.837   -16327407.48049 -12702085.01547  21761799.819    21761811.193
  20587408.678   -26948573.72049 -20616447.41248  20587408.184    20587417.153
  21484266.453   -20639076.20449 -16057568.11147  21484266.202    21484277.695
  22941151.112   -11916240.32249  -9251091.73346  22941150.583    22941165.165
  23496087.428    -8838712.53049  -6248021.71845  23496087.168    23496104.504
  20645443.302   -22530278.42349 -16648907.07348  20645442.678    20645453.010
  23560343.497    -7714178.61149  -5967744.16045  23560342.335    23560358.517
  20754540.814   -25289705.47849 -18476483.66347  20754540.021    20754550.564
 02  3  7  1 14  0.0000000  0  9G23G26G18G 6G21G29G17G22G15
  21560470.770   -19641646.07149 -14920766.66947  21560470.187    21560480.794
  21765747.767   -16306661.17149 -12685919.03347  21765747.677    21765759.058
  20581534.683   -26979441.69049 -20640500.30848  20581534.171    20581543.107
  21498787.545   -20562767.41349 -15998106.79547  21498787.329    21498798.851
  22928077.134   -11984943.90949  -9304626.82346  22928076.583    22928091.092
  23476307.163    -8942656.91949  -6329016.98445  23476306.971    23476324.206
  20643034.867   -22542934.67249 -16658769.05548  20643034.255    20643044.589
  23566274.144    -7683012.06849  -5943458.57545  23566273.089    23566289.415
  20748404.912   -25321949.62249 -18501608.91747  20748404.129    20748414.655
 02  3  7  1 14 30.0000000  0 10G23G26G18G 6G21G29G17G22G15G 3
  21571924.495   -19581456.30449 -14873865.57347  21571923.918    21571934.524
  21769818.235   -16285269.97949 -12669250.54647  21769818.199    21769829.673
  20575742.963   -27009877.34149 -20664216.34248  20575742.420    20575751.333
  21513383.873   -20486063.37549 -15938337.49947  21513383.654    21513395.218
  22915051.700   -12053392.15249  -9357962.95046  22915051.200    22915065.602
  23456543.165    -9046515.87849  -6409945.67445  23456543.024    23456560.139
  20640662.653   -22555400.61649 -16668482.75248  20640662.047    20640672.384
  23572289.557    -7651401.84049  -5918827.28445  23572288.435    23572304.604
  20742307.260   -25353992.79149 -18526577.57047  20742306.480    20742316.998
  24633559.367    -2459431.37549  -1901585.32645  24633558.803    24633576.496
 02  3  7  1 15  0.0000000  0 10G23G26G18G 6G21G29G17G22G15G 3
  21583421.354   -19521039.99649 -14826787.95647  21583420.759    21583431.372
  21774011.343   -16263235.31249 -12652080.64447  21774011.236    21774022.757
  20570033.239   -27039881.80049 -20687596.37248  20570032.723    20570041.622
  21528054.963   -20408966.52849 -15878262.11647  21528054.718    21528066.338
  22902074.797   -12121585.53449  -9411100.47046  22902074.314    22902088.623
  23436795.803    -9150287.47849  -6490806.30045  23436795.675    23436812.773
  20638326.624   -22567676.53049 -16678048.36648  20638325.984    20638336.330
  23578388.770    -7619350.79749  -5893852.48545  23578387.422    23578403.764
  20736247.782   -25385835.18949 -18551389.77147  20736247.015    20736257.524
  24614289.201    -2560694.84649  -1980491.66645  24614288.643    24614306.544
 02  3  7  1 15 30.0000000  0 10G23G26G18G 6G21G29G17G22G15G 3
  21594961.432   -19460396.55249 -14779533.35047  21594960.870    21594971.459
  21778327.093   -16240555.18249 -12634407.78047  21778327.098    21778338.625
  20564405.981   -27069452.68349 -20710638.56048  20564405.498    20564414.399
  21542800.997   -20331475.81649 -15817879.82347  21542800.769    21542812.406
  22889147.049   -12189520.53349  -9464036.65446  22889146.584    22889160.835
  23417066.029    -9253966.31749  -6571594.64145  23417065.923    23417083.002
  20636027.318   -22579759.10849 -16687463.33548  20636026.706    20636037.054
  23584571.874    -7586858.08349  -5868533.54645  23584570.651    23584587.006
  20730227.150   -25417473.60249 -18576043.02847  20730226.373    20730236.888
  24595043.600    -2661830.36449  -2059298.30645  24595043.036    24595060.933
 02  3  7  1 16  0.0000000  0 10G23G26G18G 6G21G29G17G22G15G 3
  21606544.308   -19399528.38749 -14732103.63847  21606543.701    21606554.299
  21782765.572   -16217230.76249 -12616232.86647  21782765.545    21782777.106
  20558861.104   -27098590.78649 -20733343.51548  20558860.647    20558869.544
  21557621.640   -20253593.27049 -15757192.20547  21557621.389    21557633.048
  22876268.418   -12257197.42749  -9516771.70646  22876267.939    22876282.206
  23397354.480    -9357549.91449  -6652308.77545  23397354.289    23397371.252
  20633764.859   -22591648.25649 -16696727.57248  20633764.242    20633774.599
  23590838.649    -7553926.23849  -5842872.41445  23590837.393    23590853.767
  20724245.339   -25448908.04249 -18600537.34647  20724244.564    20724255.074
  24575822.703    -2762836.21049  -2138003.93045  24575822.183    24575840.062
 02  3  7  1 16 30.0000000  0 10G23G26G18G 6G21G29G17G22G15G 3
  21618169.541   -19338437.42649 -14684500.30947  21618168.953    21618179.543
  21787326.479   -16193262.70449 -12597556.43347  21787326.567    21787338.069
  20553398.530   -27127296.59649 -20755711.61748  20553398.059    20553406.955
  21572516.472   -20175320.72749 -15696200.69247  21572516.208    21572527.905
  22863438.896   -12324616.22649  -9569305.63646  22863438.441    22863452.667
  23377661.534    -9461035.78049  -6732946.75745  23377661.372    23377678.232
  20631539.299   -22603343.48849 -16705840.71348  20631538.693    20631549.047
  23597188.548    -7520557.31149  -5816870.72745  23597187.377    23597203.755
  20718302.413   -25480137.97049 -18624872.30147  20718301.658    20718312.154
  24556626.776    -2863710.08949  -2216606.60245  24556626.332    24556644.187
 02  3  7  1 17  0.0000000  0 10G23G26G18G 6G21G29G17G22G15G 3
  21629836.614   -19277126.59449 -14636725.66147  21629836.016    21629846.615
  21792009.632   -16168652.57349 -12578379.67647  21792009.746    21792021.158
  20548018.089   -27155570.89649 -20777743.48448  20548017.593    20548026.485
  21587485.026   -20096660.64549 -15634907.20047  21587484.775    21587496.470
  22850658.499   -12391776.87749  -9621638.41946  22850658.019    22850672.201
  23357987.621    -9564421.71049  -6813506.87945  23357987.422    23358004.174
  20629350.661   -22614844.90749 -16714802.83748  20629350.058    20629360.385
  23603620.944    -7486754.16349  -5790530.69445  23603620.003    23603636.332
  20712398.408   -25511163.58449 -18649048.05447  20712397.636    20712408.120
  24537456.262    -2964450.42249  -2295105.28245  24537455.863    24537473.608
 02  3  7  1 17 30.0000000  0 10G23G26G18G 6G21G29G17G22G15G 3
  21641545.250   -19215597.72449 -14588781.10347  21641544.640    21641555.233
  21796814.842   -16143400.96349 -12558703.05747  21796814.929    21796826.326
  20542719.702   -27183413.86049 -20799439.24448  20542719.202    20542728.076
  21602527.063   -20017614.70249 -15573313.03947  21602526.802    21602538.492
  22837927.340   -12458678.89349  -9673769.66146  22837926.833    22837941.004
  23338333.113    -9667704.86249  -6893986.92445  23338332.989    23338349.722
  20627199.020   -22626151.74049 -16723613.32848  20627198.418    20627208.748
  23610135.689    -7452518.80049  -5763853.81845  23610134.813    23610151.189
  20706533.399   -25541984.26549 -18673064.11747  20706532.636    20706543.092
  24518311.836    -3065054.71649  -2373497.94145  24518311.486    24518328.851
 02  3  7  1 18  0.0000000  0 10G23G26G18G 6G21G29G17G22G15G 3
  21653295.011   -19153852.37049 -14540667.86347  21653294.406    21653304.988
  21801741.948   -16117508.23349 -12538526.86447  21801742.078    21801753.509
  20537503.343   -27210825.63149 -20820799.01148  20537502.863    20537511.713
  21617642.253   -19938184.20249 -15511419.22647  21617641.988    21617653.668
  22825245.529   -12525321.55549  -9725698.82146  22825245.002    22825259.120
  23318698.730    -9770882.02649  -6974384.37845  23318698.751    23318715.351
  20625084.579   -22637263.11449 -16732271.51048  20625083.982    20625094.314
  23616732.485    -7417852.74749  -5736841.39645  23616731.657    23616747.917
  20700707.574   -25572598.99949 -18696919.70247  20700706.809    20700717.257
  24499193.800    -3165520.36449  -2451782.54245  24499193.432    24499210.579
 02  3  7  1 18 30.0000000  0 10G23G26G18G 6G21G29G17G22G15G 3
  21665085.362   -19091893.49249 -14492388.23947  21665084.764    21665095.374
  21806790.868   -16090976.14749 -12517852.47447  21806790.943    21806802.369
  20532368.786   -27237807.45149 -20841823.74848  20532368.317    20532377.185
  21632830.169   -19858371.56549 -15449227.65647  21632829.903    21632841.589
  22812613.030   -12591705.28149  -9777426.19746  22812612.487    22812626.561
  23299085.164    -9873951.23149  -7054697.72045  23299085.109    23299101.631
  20623007.296   -22648179.17649 -16740777.50348  20623006.700    20623016.997
  23623410.455    -7382759.00849  -5709495.68845  23623409.783    23623426.141
  20694920.884   -25603008.17849 -18720615.10747  20694920.085    20694930.524
  24480102.272    -3265845.66149  -2529957.80845  24480101.869    24480118.918
 02  3  7  1 19  0.0000000  0 10G23G26G18G 6G21G29G17G22G15G 3
  21676916.108   -19029722.64549 -14443943.44347  21676915.524    21676926.119
  21811961.383   -16063805.20649 -12496680.28647  21811961.344    21811972.746
  20527316.138   -27264359.11349 -20862513.29948  20527315.665    20527324.532
  21648090.549   -19778178.26849 -15386739.46947  21648090.279    21648101.959
  22800029.867   -12657829.55649  -9828951.39946  22800029.318    22800043.381
  23279492.840    -9976909.51949  -7134924.63145  23279492.573    23279508.951
  20620967.351   -22658899.16249 -16749130.71448  20620966.762    20620977.019
  23630169.523    -7347239.43849  -5681818.16945  23630168.864    23630185.440
  20689173.447   -25633210.87949 -18744149.62547  20689172.674    20689183.094
  24461038.084    -3366028.04749  -2608021.70045  24461037.646    24461054.584
 02  3  7  1 19 30.0000000  0 10G23G26G18G 6G21G29G17G22G15G 3
  21688786.867   -18967341.46949 -14395334.75947  21688786.266    21688796.864
  21817253.201   -16035995.93449 -12475010.69047  21817253.250    21817264.626
  20522345.302   -27290480.71349 -20882867.73948  20522344.826    20522353.677
  21663423.079   -19697605.73449 -15323955.76747  21663422.794    21663434.479
  22787496.103   -12723694.04049  -9880274.18246  22787495.585    22787509.590
  23259922.094   -10079753.59649  -7215062.54945  23259921.712    23259938.030
  20618964.909   -22669422.00449 -16757330.30848  20618964.298    20618974.556
  23637009.592    -7311295.68449  -5653810.11745  23637008.709    23637025.305
  20683465.445   -25663206.17549 -18767522.52947  20683464.695    20683475.103
  24442001.493    -3466065.06649  -2685972.38645  24442001.055    24442018.125
 02  3  7  1 20  0.0000000  0 10G23G26G18G 6G21G29G17G22G15G 3
  21700697.239   -18904752.04949 -14346563.80547  21700696.650    21700707.251
  21822666.415   -16007549.27349 -12452844.43447  21822666.522    21822677.825
  20517456.257   -27316172.72949 -20902887.44348  20517455.761    20517464.596
  21678827.406   -19616655.62849 -15260877.85847  21678827.150    21678838.876
  22775011.868   -12789298.56949  -9931394.38246  22775011.308    22775025.283
  23240373.353   -10182480.71749  -7295109.33545  23240373.095    23240389.368
  20617000.090   -22679747.18949 -16765375.87248  20616999.458    20617009.696
  23643929.738    -7274929.99249  -5625473.27045  23643928.849    23643945.493
  20677797.091   -25692993.41049 -18790733.30647  20677796.340    20677806.729
  24422993.007    -3565954.37949  -2763808.00245  24422992.664    24423009.452
 02  3  7  1 20 30.0000000  0 10G23G26G18G 6G21G29G17G22G15G 3
  21712646.687   -18841957.31649 -14297632.85547  21712646.118    21712656.727
  21828200.640   -15978467.15449 -12430182.98847  21828200.631    21828211.916
  20512648.664   -27341436.50949 -20922573.45548  20512648.179    20512657.007
  21694303.127   -19535330.64549 -15197507.83947  21694302.836    21694314.578
  22762577.029   -12854643.19949  -9982312.07246  22762576.536    22762590.380
  23220847.371   -10285089.22849  -7375063.70845  23220847.122    23220863.351
  20615072.778   -22689875.03449 -16773267.67048  20615072.192    20615082.399
  23650929.516    -7238145.68449  -5596810.23845  23650928.743    23650945.371
  20672168.264   -25722572.90049 -18813782.19647  20672167.486    20672177.865
  24404012.988    -3665694.32249  -2841527.22545  24404012.474    24404029.392
 02  3  7  1 21  0.0000000  0 10G23G26G18G 6G21G29G17G22G15G 3
  21724635.000   -18778958.29249 -14248542.72047  21724634.439    21724645.073
  21833855.652   -15948749.53149 -12407026.38547  21833855.716    21833866.978
  20507922.643   -27366271.55249 -20941925.38648  20507922.191    20507931.005
  21709849.949   -19453631.88149 -15133846.56847  21709849.644    21709861.398
  22750191.948   -12919726.61449 -10033026.21746  22750191.431    22750205.207
  23201344.594   -10387575.09849  -7454922.51145  23201344.424    23201360.645
  20613183.341   -22699804.03349 -16781004.53448  20613182.751    20613192.962
  23658009.063    -7200943.72549  -5567821.77145  23658008.112    23658024.693
  20666579.208   -25751943.25949 -18836668.13247  20666578.436    20666588.804
  24385062.147    -3765281.73449  -2919127.70145  24385061.593    24385078.330
 02  3  7  1 21 30.0000000  0 10G23G26G18G 6G21G29G17G22G15G 3
  21736661.805   -18715757.28649 -14199295.21047  21736661.213    21736671.839
  21839631.459   -15918397.78849 -12383375.66047  21839631.448    21839642.681
  20503278.184   -27390678.32249 -20960943.60048  20503277.716    20503286.502
  21725467.483   -19371561.46149 -15069895.69947  21725467.212    21725478.995
  22737856.480   -12984549.13349 -10083537.06346  22737855.960    22737869.739
  23181865.768   -10489936.06649  -7534684.00045  23181865.559    23181881.637
  20611331.807   -22709533.77349 -16788586.11948  20611331.202    20611341.403
  23665167.112    -7163326.70149  -5538509.87145  23665166.456    23665182.906
  20661030.011   -25781104.26249 -18859390.93547  20661029.237    20661039.591
  24366140.693    -3864714.26349  -2996607.53545  24366140.132    24366156.686
 02  3  7  1 22  0.0000000  0 10G23G26G18G 6G21G29G17G22G15G 3
  21748726.740   -18652355.54649 -14149891.28347  21748726.180    21748736.814
  21845527.687   -15887412.07049 -12359230.92847  21845527.795    21845539.010
  20498715.133   -27414656.81249 -20979628.08648  20498714.695    20498723.472
  21741155.522   -19289120.38649 -15005656.00747  21741155.291    21741167.107
  22725570.850   -13049109.86649 -10133843.92146  22725570.305    22725584.063
  23162411.358   -10592168.47049  -7614345.31546  23162411.177    23162427.096
  20609518.516   -22719062.69449 -16796011.20748  20609517.898    20609528.087
  23672404.221    -7125295.92649  -5508875.58245  23672403.555    23672419.986
  20655520.914   -25810054.43549 -18881949.44647  20655520.151    20655530.492
  24347249.174    -3963989.01749  -3073964.40745  24347248.701    24347265.059
 02  3  7  1 22 30.0000000  0 10G23G26G18G 6G21G29G17G22G15G 3
  21760829.491   -18588755.05149 -14100332.47947  21760828.932    21760839.582
  21851544.492   -15855793.45849 -12334593.01747  21851544.610    21851555.807
  20494233.503   -27438207.59549 -20997979.29448  20494233.088    20494241.864
  21756913.786   -19206310.57249 -14941128.97747  21756913.522    21756925.398
  22713335.064   -13113408.40549 -10183946.47546  22713334.566    22713348.233
  23142981.901   -10694269.55649  -7693904.31246  23142981.718    23142997.634
  20607743.484   -22728390.43549 -16803279.54148  20607742.857    20607753.041
  23679719.579    -7086853.87949  -5478920.82345  23679718.912    23679735.467
  20650052.060   -25838793.21049 -18904343.23947  20650051.307    20650061.622
  24328388.290    -4063103.72149  -3151196.57145  24328387.808    24328404.028
 02  3  7  1 23  0.0000000  0 10G23G26G18G 6G21G29G17G22G15G 3
  21772969.552   -18524958.88549 -14050621.20247  21772968.977    21772979.649
  21857681.255   -15823544.24649 -12309463.73647  21857681.392    21857692.556
  20489833.023   -27461332.14749 -21015998.37148  20489832.604    20489841.379
  21772741.643   -19123134.96449 -14876316.91647  21772741.395    21772753.284
  22701149.036   -13177445.68549 -10233845.46546  22701148.512    22701162.159
  23123577.799   -10796237.77449  -7773359.78046  23123577.631    23123593.377
  20606006.659   -22737517.32749 -16810391.36448  20606006.039    20606016.226
  23687112.501    -7048003.77749  -5448648.08245  23687111.863    23687128.440
  20644623.358   -25867321.10049 -18926572.70047  20644622.595    20644632.902
  24309557.933    -4162056.99149  -3228302.92945  24309557.444    24309573.700
 02  3  7  1 23 30.0000000  0 10G23G26G18G 6G21G29G17G22G15G 3
  21785146.359   -18460969.36749 -14000759.26647  21785145.787    21785156.450
  21863937.831   -15790665.79649 -12283844.14647  21863937.881    21863949.044
  20485513.522   -27484030.98549 -21033685.72848  20485513.085    20485521.867
  21788638.728   -19039595.61949 -14811221.42847  21788638.509    21788650.403
  22689012.644   -13241221.87749 -10283540.99946  22689012.144    22689025.752
  23104199.492   -10898070.44849  -7852709.62146  23104199.296    23104214.969
  20604308.120   -22746443.10549 -16817346.47848  20604307.485    20604317.666
  23694582.968    -7008748.15549  -5418059.37545  23694582.052    23694598.571
  20639234.847   -25895637.75149 -18948637.56447  20639234.096    20639244.373
  24290758.726    -4260846.54849  -3305281.71345  24290758.269    24290774.593
 02  3  7  1 24  0.0000000  0 10G23G26G18G 6G21G29G17G22G15G 3
  21797360.008   -18396786.41249 -13950746.60447  21797359.432    21797370.070
  21870314.267   -15757157.31049 -12257733.62947  21870314.297    21870325.472
  20481275.312   -27506302.88149 -21051040.40248  20481274.848    20481283.610
  21804605.034   -18955692.38149 -14745842.38247  21804604.806    21804616.742
  22676926.417   -13304734.23449 -10333030.96446  22676925.961    22676939.516
  23084847.879   -10999762.82349  -7931950.14646  23084847.633    23084863.253
  20602648.333   -22755165.19249 -16824142.86948  20602647.714    20602657.866
  23702130.079    -6969087.36649  -5387154.92845  23702129.247    23702145.890
  20633886.993   -25923740.71549 -18970535.92547  20633886.238    20633896.528
  24271991.464    -4359468.23949  -3382129.63645  24271991.070    24272007.498
 02  3  7  1 24 30.0000000  0 10G23G26G18G 6G21G29G17G22G15G 3
  21809609.943   -18332412.46849 -13900585.11147  21809609.392    21809620.041
  21876810.265   -15723020.46349 -12231133.48347  21876810.309    21876821.465
  20477118.203   -27528148.67449 -21068063.05148  20477117.716    20477126.464
  21820640.136   -18871427.69449 -14680181.69247  21820639.885    21820651.880
  22664890.336   -13367983.49849 -10382315.92246  22664889.864    22664903.399
  23065523.241   -11101312.74249  -8011079.67846  23065523.161    23065538.612
  20601027.354   -22763683.37849 -16830780.37548  20601026.766    20601036.877
  23709753.787    -6929024.24049  -5355936.98245  23709753.080    23709769.712
  20628579.827   -25951629.83949 -18992267.66347  20628579.072    20628589.339
  24253256.580    -4457919.97149  -3458845.12845  24253256.200    24253272.516
 02  3  7  1 25  0.0000000  0 10G23G26G18G 6G21G29G17G22G15G 3
  21821895.576   -18267851.08949 -13850277.56147  21821895.027    21821905.686
  21883425.352   -15688258.01649 -12204045.84647  21883425.400    21883436.536
  20473041.698   -27549570.72749 -21084755.50548  20473041.199    20473049.922
  21836743.345   -18786805.18649 -14614242.16647  21836743.077    21836755.126
  22652904.005   -13430971.18649 -10431397.04346  22652903.531    22652916.997
  23046226.008   -11202718.94449  -8090097.22346  23046225.960    23046241.314
  20599445.011   -22771998.67349 -16837259.78048  20599444.391    20599454.495
  23717453.608    -6888562.67749  -5324408.57645  23717452.820    23717469.274
  20623313.222   -25979305.92549 -19013833.38947  20623312.458    20623322.715
  24234554.076    -4556201.13449  -3535427.65545  24234553.738    24234570.193
 02  3  7  1 25 30.0000000  0 10G23G26G18G 6G21G29G17G22G15G 3
  21834216.867   -18203102.31749 -13799823.98947  21834216.297    21834226.989
  21890159.565   -15652869.29149 -12176470.20347  21890159.618    21890170.781
  20469046.048   -27570567.63749 -21101116.68248  20469045.565    20469054.269
  21852914.579   -18701824.77649 -14548023.76747  21852914.392    21852926.447
  22640967.973   -13493694.71749 -10480272.35246  22640967.495    22640980.917
  23026957.151   -11303976.72849  -8168999.10746  23026957.060    23026972.301
  20597901.775   -22780108.44249 -16843579.04048  20597901.140    20597911.224
  23725229.039    -6847702.83449  -5292569.81945  23725228.256    23725244.781
  20618087.577   -26006766.60549 -19035231.26647  20618086.816    20618097.049
  24215884.992    -4654307.28749  -3611873.80945  24215884.662    24215900.896
 02  3  7  1 26  0.0000000  0 10G23G26G18G 6G21G29G17G22G15G 3
  21846573.188   -18138169.52849 -13749227.03647  21846572.642    21846583.317
  21897012.513   -15616857.06049 -12148408.70447  21897012.464    21897023.669
  20465130.947   -27591141.38949 -21117148.12348  20465130.465    20465139.158
  21869153.383   -18616489.91949 -14481529.17447  21869153.180    21869165.234
  22629081.928   -13556155.29449 -10528942.74546  22629081.443    22629094.838
  23007716.697   -11405084.96049  -8247784.46846  23007716.580    23007731.763
  20596397.430   -22788013.57149 -16849738.84048  20596396.811    20596406.888
  23733079.607    -6806448.86149  -5260423.95145  23733078.831    23733095.272
  20612902.750   -26034012.82249 -19056462.03047  20612901.985    20612912.195
  24197249.502    -4752237.48049  -3688182.80445  24197249.153    24197265.380
 02  3  7  1 26 30.0000000  0 10G23G26G18G 6G21G29G17G22G15G 3
  21858964.043   -18073055.17249 -13698488.60347  21858963.494    21858974.174
  21903983.762   -15580223.06649 -12119862.71647  21903983.658    21903994.899
  20461296.135   -27611293.03549 -21132850.65348  20461295.670    20461304.370
  21885459.146   -18530802.98349 -14414760.23947  21885458.932    21885471.026
  22617245.782   -13618353.92349 -10577409.04146  22617245.287    22617258.628
  22988505.200   -11506041.10149  -8326451.31546  22988505.020    22988520.189
  20594932.058   -22795713.90349 -16855739.06048  20594931.456    20594941.538
  23741004.546    -6764803.45449  -5227973.05945  23741003.765    23741020.150
  20607758.761   -26061044.34049 -19077525.49847  20607758.016    20607768.208
  24178647.632    -4849989.94249  -3764353.31345  24178647.351    24178663.516
 02  3  7  1 27  0.0000000  0 10G23G26G18G 6G21G29G17G22G15G 3
  21871389.780   -18007757.69449 -13647607.46647  21871389.202    21871399.879
  21911073.627   -15542965.03649 -12090830.47047  21911073.609    21911084.881
  20457542.326   -27631019.34449 -21148221.74548  20457541.858    20457550.540
  21901832.265   -18444762.27849 -14347715.63847  21901832.027    21901844.118
  22605460.299   -13680286.46549 -10625667.99546  22605459.816    22605473.098
  22969323.884   -11606838.98049  -8404994.83546  22969323.559    22969338.709
  20593506.490   -22803205.20549 -16861576.39348  20593505.883    20593515.972
  23749004.092    -6722765.36849  -5195216.18945  23749003.287    23749019.908
  20602656.414   -26087857.03649 -19098418.45747  20602655.678    20602665.870
  24160080.564    -4947558.47149  -3840380.42945  24160080.295    24160096.658
 02  3  7  1 27 30.0000000  0 10G23G26G18G 6G21G29G17G22G15G 3
  21883849.361   -17942282.23849 -13596587.65947  21883848.807    21883859.474
  21918281.353   -15505087.75849 -12061315.69147  21918281.419    21918292.672
  20453868.647   -27650324.54449 -21163264.70348  20453868.172    20453876.833
  21918271.639   -18358373.07549 -14280399.47647  21918271.416    21918283.528
  22593724.819   -13741956.29349 -10673722.24746  22593724.310    22593737.527
  22950172.501   -11707479.08749  -8483415.41046  22950172.137    22950187.245
  20592120.205   -22810489.97449 -16867252.79648  20592119.602    20592129.688
  23757077.125    -6680340.44149  -5162157.86545  23757076.369    23757093.150
  20597595.293   -26114453.21549 -19119142.70447  20597594.562    20597604.715
  24141548.501    -5044944.24949  -3916265.18245  24141548.254    24141564.621
 02  3  7  1 28  0.0000000  0 10G23G26G18G 6G21G29G17G22G15G 3
  21896342.798   -17876628.96949 -13545429.28347  21896342.208    21896352.893
  21925607.101   -15466590.59449 -12031317.87747  21925607.198    21925618.435
  20450275.343   -27669207.20549 -21177978.40948  20450274.879    20450283.520
  21934777.306   -18271635.56949 -14212811.90347  21934777.100    21934789.228
  22582039.681   -13803361.36249 -10721570.18446  22582039.170    22582052.334
  22931052.020   -11807956.58949  -8561709.29146  22931051.714    22931066.720
  20590773.677   -22817565.83249 -16872766.42148  20590773.085    20590783.148
  23765223.968    -6637528.98949  -5128798.37145  23765223.228    23765240.078
  20592575.770   -26140830.66049 -19139696.50847  20592575.047    20592585.181
  24123052.163    -5142142.93949  -3992004.14545  24123051.879    24123068.089
 02  3  7  1 28 30.0000000  0 10G23G26G18G 6G21G29G17G22G15G 3
  21908869.539   -17810800.83749 -13494134.65247  21908868.926    21908879.577
  21933050.285   -15427476.14049 -12000839.04447  21933050.395    21933061.595
  20446762.008   -27687669.57449 -21192364.60848  20446761.562    20446770.187
  21951348.729   -18184552.76249 -14144955.26047  21951348.468    21951360.645
  22570404.717   -13864502.88749 -10769212.77746  22570404.204    22570417.332
  22911962.749   -11908270.23549  -8639875.48446  22911962.469    22911977.386
  20589466.845   -22824433.33249 -16878117.68848  20589466.229    20589476.276
  23773443.763    -6594334.61549  -5095140.48445  23773442.968    23773459.776
  20587597.835   -26166989.74949 -19160080.16247  20587597.083    20587607.221
  24104591.511    -5239153.28449  -4067596.29845  24104591.238    24104607.337
 02  3  7  1 29  0.0000000  0 10G23G26G18G 6G21G29G17G22G15G 3
  21921429.100   -17744799.81549 -13442705.30047  21921428.481    21921439.177
  21940610.668   -15387745.78049 -11969880.30147  21940610.821    21940622.012
  20443328.611   -27705711.97349 -21206423.56148  20443328.159    20443336.770
  21967985.430   -18097126.74649 -14076831.18747  21967985.160    21967997.372
  22558820.003   -13925380.35249 -10816649.61746  22558819.505    22558832.575
  22892905.214   -12008417.02049  -8717911.66146  22892904.943    22892919.811
  20588199.800   -22831091.53149 -16883305.85848  20588199.186    20588209.228
  23781735.922    -6550759.87649  -5061186.21345  23781735.097    23781751.882
  20582661.538   -26192929.94149 -19180293.24447  20582660.791    20582670.927
  24086167.213    -5335973.03949  -4143039.98945  24086166.974    24086182.945
 02  3  7  1 29 30.0000000  0 10G23G26G18G 6G21G29G17G22G15G 3
  21934021.317   -17678627.14749 -13391142.20047  21934020.753    21934031.439
  21948288.172   -15347400.22849 -11938442.18347  21948288.336    21948299.472
  20439975.191   -27723334.11149 -21220155.03848  20439974.750    20439983.337
  21984687.202   -18009358.75749 -14008440.64347  21984686.938    21984699.196
  22547285.633   -13985993.19249 -10863880.25146  22547285.110    22547298.186
  22873880.100   -12108393.34849  -8795815.02446  22873879.873    22873894.648
  20586972.807   -22837539.09549 -16888329.90748  20586972.196    20586982.204
  23790100.052    -6506806.29449  -5026936.74045  23790099.247    23790116.000
  20577767.133   -26218649.84449 -19200334.67247  20577766.379    20577776.524
  24067779.706    -5432598.74349  -4218332.47645  24067779.493    24067795.476
 02  3  7  1 30  0.0000000  0 10G23G26G18G 6G21G29G17G22G15G 3
  21946646.027   -17612283.92849 -13339446.19447  21946645.444    21946656.144
  21956082.519   -15306440.21749 -11906525.26246  21956082.681    21956093.851
  20436701.771   -27740536.02649 -21233559.06148  20436701.296    20436709.857
  22001453.844   -17921250.01849 -13939784.57747  22001453.551    22001465.842
  22535801.893   -14046340.09649 -10910903.68046  22535801.379    22535814.393
  22854888.115   -12208195.87949  -8873582.95746  22854887.911    22854902.569
  20585786.219   -22843774.63849 -16893188.74448  20585785.597    20585795.602
  23798535.973    -6462475.54049  -4992393.35545  23798535.117    23798551.926
  20572914.949   -26244147.95949 -19220203.26847  20572914.198    20572924.339
  24049429.589    -5529027.49749  -4293471.50445  24049429.516    24049445.328
 02  3  7  1 30 30.0000000  0 10G23G26G18G 6G21G29G17G22G15G 3
  21959302.406   -17545774.14249 -13287620.39947  21959301.822    21959312.567
  21963993.233   -15264869.36949 -11874132.36946  21963993.364    21964004.483
  20433507.748   -27757320.70549 -21246637.97348  20433507.247    20433515.770
  22018284.421   -17832804.98149 -13870866.46947  22018284.149    22018296.459
  22524368.409   -14106423.06449 -10957721.44046  22524367.875    22524380.859
  22835929.354   -12307823.96949  -8951214.96446  22835929.136    22835943.651
  20584639.645   -22849799.57949 -16897883.47548  20584639.051    20584649.044
  23807042.806    -6417772.30349  -4957559.72845  23807041.938    23807058.679
  20568104.715   -26269425.74449 -19239900.18747  20568103.978    20568114.104
  24031117.087    -5625258.85649  -4368456.72645  24031117.084    24031132.803
 02  3  7  1 31  0.0000000  0 10G23G26G18G 6G21G29G17G22G15G 3
  21971990.321   -17479098.70949 -13235665.52147  21971989.758    21972000.501
  21972019.997   -15222688.09549 -11841263.80946  21972020.177    21972031.256
  20430393.163   -27773687.69349 -21259391.40448  20430392.664    20430401.171
  22035178.913   -17744024.33049 -13801686.83647  22035178.613    22035190.972
  22512985.342   -14166240.91949 -11004332.62347  22512984.835    22512997.785
  22817004.461   -12407273.59949  -9028707.91246  22817004.267    22817018.760
  20583533.547   -22855612.07649 -16902412.65248  20583532.957    20583542.927
  23815620.217    -6372697.85949  -4922436.84645  23815619.340    23815636.117
  20563336.717   -26294481.52449 -19259424.10447  20563335.959    20563346.070
  24012843.081    -5721289.15049  -4443285.29945  24012843.025    24012858.582
 02  3  7  1 31 30.0000000  0 10G23G26G18G 6G21G29G17G22G15G 3
  21984709.562   -17412258.80149 -13183582.49147  21984709.013    21984719.746
  21980162.905   -15179897.44049 -11807920.40946  21980162.950    21980174.074
  20427358.077   -27789636.97849 -21271819.35548  20427357.575    20427366.072
  22052136.910   -17654909.46449 -13732246.77047  22052136.683    22052149.012
  22501652.769   -14225793.17449 -11050736.84147  22501652.251    22501665.209
  22798114.249   -12506541.38149  -9106059.17646  22798114.044    22798128.476
  20582468.098   -22861210.93049 -16906775.35848  20582467.494    20582477.467
  23824267.928    -6327254.10049  -4887026.20645  23824267.043    23824283.850
  20558611.223   -26319314.13649 -19278774.13347  20558610.450    20558620.565
  23994607.758    -5817115.53949  -4517954.99645  23994607.649    23994623.082
 02  3  7  1 32  0.0000000  0 10G23G26G18G 6G21G29G17G22G15G 3
  21997459.656   -17345256.76249 -13131373.11247  21997459.076    21997469.801
  21988421.302   -15136499.23349 -11774103.59746  21988421.293    21988432.403
  20424402.248   -27805169.62949 -21283922.65948  20424401.761    20424410.241
  22069158.133   -17565462.84549 -13662548.19146  22069157.889    22069170.237
  22490370.762   -14285080.17549 -11096934.38547  22490370.231    22490383.156
  22779259.046   -12605625.13449  -9183267.04846  22779258.838    22779273.243
  20581443.362   -22866595.70849 -16910971.25348  20581442.744    20581452.727
  23832985.296    -6281443.90649  -4851330.02445  23832984.447    23833001.203
  20553928.237   -26343922.99549 -19297949.80547  20553927.482    20553937.591
  23976411.671    -5912735.81749  -4592464.11845  23976411.536    23976426.974
 02  3  7  1 32 30.0000000  0 10G23G26G18G 6G21G29G17G22G15G 3
  22010240.085   -17278095.31849 -13079039.52847  22010239.508    22010250.227
  21996794.738   -15092495.99749 -11739815.33946  21996794.836    21996805.911
  20421525.426   -27820287.10349 -21295702.44848  20421524.953    20421533.411
  22086241.874   -17475687.57549 -13592593.52146  22086241.623    22086253.983
  22479139.059   -14344102.55549 -11142925.72447  22479138.536    22479151.443
  22760439.209   -12704522.91049  -9260330.00546  22760439.026    22760453.374
  20580459.380   -22871766.54949 -16915000.45748  20580458.755    20580468.729
  23841771.816    -6235270.62749  -4815350.92945  23841770.905    23841787.827
  20549287.782   -26368308.48349 -19316951.42047  20549287.015    20549297.118
  23958255.020    -6008148.47549  -4666811.45845  23958254.866    23958270.309
 02  3  7  1 33  0.0000000  0 10G23G26G18G 6G21G29G17G22G15G 3
  22023050.976   -17210773.77349 -13026581.20147  22023050.359    22023061.077
  22005283.517   -15047886.88249 -11705054.96746  22005283.649    22005294.703
  20418727.925   -27834987.88949 -21307157.54848  20418727.439    20418735.903
  22103388.251   -17385583.10749 -13522382.33546  22103388.003    22103400.391
  22467958.177   -14402857.94549 -11188709.01947  22467957.657    22467970.507
  22741655.890   -12803229.15049  -9337243.71746  22741655.620    22741669.945
  20579516.668   -22876720.37249 -16918860.55948  20579516.067    20579526.023
  23850627.381    -6188734.30749  -4779088.92245  23850626.475    23850643.422
  20544690.502   -26392467.18749 -19335776.31947  20544689.737    20544699.820
  23940138.796    -6103348.42649  -4740993.04945  23940138.567    23940154.088
 02  3  7  1 33 30.0000000  0 10G23G26G18G 6G21G29G17G22G15G 3
  22035891.430   -17143296.77749 -12974001.74347  22035890.820    22035901.554
  22013886.803   -15002676.24649 -11669825.86846  22013886.894    22013897.945
  20416009.044   -27849275.42649 -21318290.64148  20416008.562    20416017.006
  22120596.294   -17295154.34149 -13451918.45446  22120596.080    22120608.460
  22456827.629   -14461348.99849 -11234286.34447  22456827.122    22456839.898
  22722908.916   -12901744.28249  -9414008.53046  22722908.628    22722922.876
  20578614.892   -22881459.03849 -16922552.99348  20578614.282    20578624.247
  23859551.088    -6141840.18949  -4742548.14045  23859550.257    23859567.099
  20540135.985   -26416401.10849 -19354426.06348  20540135.210    20540145.287
  23922063.209    -6198336.05849  -4815009.21745  23922062.880    23922078.299
 02  3  7  1 34  0.0000000  0 10G23G26G18G 6G21G29G17G22G15G 3
  22048761.138   -17075666.09149 -12921302.53347  22048760.541    22048771.280
  22022604.347   -14956865.47549 -11634129.16946  22022604.398    22022615.431
  20413368.687   -27863150.29749 -21329102.17848  20413368.199    20413376.630
  22137865.755   -17204403.18949 -13381203.37946  22137865.484    22137877.882
  22445747.488   -14519575.07349 -11279657.18447  22445746.983    22445759.685
  22704198.904   -13000065.04349  -9490621.88046  22704198.631    22704212.803
  20577754.207   -22885981.71149 -16926077.11248  20577753.598    20577763.561
  23868542.518    -6094590.47249  -4705730.26145  23868541.673    23868558.580
  20535624.383   -26440109.47749 -19372900.05048  20535623.614    20535633.669
  23904028.471    -6293108.68349  -4888857.82145  23904028.106    23904043.437
 02  3  7  1 34 30.0000000  0 10G23G26G18G 6G21G29G17G22G15G 3
  22061660.338   -17007880.75049 -12868482.81147  22061659.721    22061670.418
  22031436.191   -14910453.64449 -11597964.08246  22031436.194    22031447.308
  20410807.239   -27876610.47249 -21339590.57848  20410806.773    20410815.167
  22155196.710   -17113328.81749 -13310236.44946  22155196.447    22155208.852
  22434718.059   -14577534.36349 -11324820.13647  22434717.578    22434730.264
  22685526.872   -13098185.99749  -9567079.56046  22685526.677    22685540.751
  20576935.337   -22890284.94749 -16929430.24548  20576934.715    20576944.680
  23877601.554    -6046985.11949  -4668635.26645  23877600.761    23877617.597
  20531156.309   -26463589.08049 -19391195.78448  20531155.557    20531165.573
  23886035.622    -6387661.05549  -4962534.82045  23886035.322    23886050.612
 02  3  7  1 35  0.0000000  0 10G23G26G18G 6G21G29G17G22G15G 3
  22074587.933   -16939945.55849 -12815546.31647  22074587.351    22074598.090
  22040381.540   -14863445.54549 -11561334.37146  22040381.502    22040392.682
  20408324.054   -27889659.61049 -21349758.68648  20408323.602    20408331.955
  22172588.180   -17021936.32649 -13239021.63446  22172587.917    22172600.386
  22423739.006   -14635229.43649 -11369777.19447  22423738.489    22423751.149
  22666892.881   -13196107.31749  -9643381.67246  22666892.697    22666906.704
  20576157.788   -22894370.78549 -16932613.98448  20576157.173    20576167.133
  23886727.340    -5999029.49049  -4631267.30745  23886726.473    23886743.287
  20526731.388   -26486842.01149 -19409314.89548  20526730.620    20526740.622
  23868084.446    -6481993.94549  -5036040.74345  23868084.259    23868099.472
 02  3  7  1 35 30.0000000  0 10G23G26G18G 6G21G29G17G22G15G 3
  22087544.073   -16871860.62649 -12762493.14547  22087543.492    22087554.228
  22049440.243   -14815840.89949 -11524239.85546  22049440.330    22049451.542
  20405919.267   -27902296.78649 -21359605.78148  20405918.796    20405927.128
  22190040.118   -16930226.27049 -13167559.36446  22190039.845    22190052.294
  22412810.524   -14692658.34049 -11414526.85047  22412810.025    22412822.662
  22648297.676   -13293824.53349  -9719524.74746  22648297.571    22648311.515
  20575422.033   -22898236.95549 -16935626.54448  20575421.422    20575431.379
  23895919.544    -5950724.52849  -4593627.17545  23895918.680    23895935.474
  20522350.025   -26509865.98549 -19427255.60248  20522349.253    20522359.236
  23850176.014    -6576103.03849  -5109372.26945  23850175.688    23850190.837
 02  3  7  1 36  0.0000000  0 10G23G26G18G 6G21G29G17G22G15G 3
  22100528.331   -16803627.87249 -12709324.79547  22100527.753    22100538.497
  22058612.192   -14767641.75449 -11486682.04846  22058612.330    22058623.540
  20403592.663   -27914522.89649 -21369132.56548  20403592.187    20403600.502
  22207552.052   -16838200.85049 -13095851.36346  22207551.792    22207564.279
  22401932.655   -14749821.25649 -11459069.23547  22401932.145    22401944.772
  22629741.834   -13391335.04949  -9795506.74846  22629741.766    22629755.682
  20574728.260   -22901882.68849 -16938467.32848  20574727.643    20574737.628
  23905177.758    -5902072.83349  -4555716.85845  23905176.931    23905193.633
  20518012.370   -26532660.27549 -19445017.32748  20518011.596    20518021.569
  23832310.548    -6669985.79949  -5182527.41845  23832310.215    23832325.438
 02  3  7  1 36 30.0000000  0 10G23G26G18G 6G21G29G17G22G15G 3
  22113540.162   -16735250.15849 -12656043.49147  22113539.605    22113550.360
  22067896.809   -14718851.08349 -11448663.33546  22067896.912    22067908.073
  20401343.938   -27926339.93349 -21378340.59548  20401343.454    20401351.728
  22225123.379   -16745863.42749 -13023900.23846  22225123.087    22225135.581
  22391105.227   -14806719.00949 -11503404.99447  22391104.761    22391117.317
  22611225.703   -13488637.35149  -9871326.50146  22611225.555    22611239.443
  20574076.253   -22905308.58249 -16941136.80848  20574075.654    20574085.638
  23914501.152    -5853078.14249  -4517539.24245  23914500.305    23914517.085
  20513718.348   -26555225.32649 -19462600.42848  20513717.579    20513727.555
  23814488.359    -6763641.12949  -5255505.32345  23814487.953    23814503.318
 02  3  7  1 37  0.0000000  0 10G23G26G18G 6G21G29G17G22G15G 3
  22126579.607   -16666727.48649 -12602649.22847  22126579.058    22126589.772
  22077293.959   -14669468.70249 -11410183.53746  22077294.087    22077305.161
  20399173.266   -27937746.78849 -21387228.99948  20399172.777    20399181.042
  22242753.963   -16653214.15049 -12951706.09346  22242753.752    22242766.272
  22380328.572   -14863350.22149 -11547533.05947  22380328.102    22380340.634
  22592750.168   -13585726.61949  -9946980.26146  22592749.925    22592763.762
  20573466.683   -22908511.90949 -16943632.85248  20573466.076    20573476.049
  23923889.782    -5803741.15549  -4479094.91245  23923888.866    23923905.690
  20509468.421   -26577558.59549 -19480002.91948  20509467.651    20509477.616
  23796710.293    -6857064.59549  -5328302.56845  23796709.881    23796725.148
 02  3  7  1 37 30.0000000  0 10G23G26G18G 6G21G29G17G22G15G 3
  22139645.957   -16598063.60649 -12549144.92447  22139645.402    22139656.125
  22086803.049   -14619498.29349 -11371245.53246  22086803.045    22086814.144
  20397080.080   -27948746.29649 -21395799.99148  20397079.586    20397087.830
  22260443.246   -16560256.98949 -12879272.01646  22260442.986    22260455.546
  22369602.358   -14919716.56849 -11591454.71847  22369601.808    22369614.322
  22574315.161   -13682601.97549 -10022467.32046  22574314.997    22574328.759
  20572899.219   -22911493.67349 -16945956.25848  20572898.619    20572908.594
  23933342.638    -5754066.30449  -4440387.30945  23933341.763    23933358.499
  20505262.380   -26599661.11149 -19497225.59848  20505261.623    20505271.571
  23778976.562    -6950255.46349  -5400918.56745  23778976.118    23778991.203
 02  3  7  1 38  0.0000000  0 10G23G26G18G 6G21G29G17G22G15G 3
  22152739.174   -16529258.35549 -12495530.47247  22152738.628    22152749.333
  22096423.879   -14568939.81549 -11331849.33246  22096423.994    22096435.052
  20395064.706   -27959337.17649 -21404052.57748  20395064.191    20395072.411
  22278191.071   -16466992.19549 -12806598.22646  22278190.799    22278203.354
  22358926.822   -14975816.13849 -11635168.51247  22358926.268    22358938.764
  22555921.804   -13779258.67349 -10097784.01046  22555921.671    22555935.321
  20572374.425   -22914251.27349 -16948104.99648  20572373.822    20572383.781
  23942859.644    -5704054.17749  -4401416.90945  23942858.763    23942875.458
  20501100.828   -26621530.11549 -19514266.33048  20501100.064    20501110.003
  23761287.782    -7043209.64749  -5473350.09545  23761287.354    23761302.458
 02  3  7  1 38 30.0000000  0 10G23G26G18G 6G21G29G17G22G15G 3
  22165858.808   -16460314.41549 -12441807.94947  22165858.226    22165868.942
  22106156.209   -14517796.25749 -11291997.19946  22106156.326    22106167.319
  20393126.671   -27969521.34049 -21411988.23048  20393126.163    20393134.387
  22295996.777   -16373422.81649 -12733687.11146  22295996.522    22296009.117
  22348301.829   -15031650.24449 -11678675.44947  22348301.293    22348313.735
  22537570.399   -13875694.98249 -10172928.95446  22537570.255    22537583.853
  20571892.234   -22916784.89249 -16950079.20448  20571891.656    20571901.596
  23952440.146    -5653708.50249  -4362186.57545  23952439.251    23952456.066
  20496983.640   -26643165.79249 -19531125.24648  20496982.874    20496992.785
  23743644.374    -7135925.34749  -5545595.82345  23743644.017    23743658.929
 02  3  7  1 39  0.0000000  0 10G23G26G18G 6G21G29G17G22G15G 3
  22179004.378   -16391234.27049 -12387979.28547  22179003.785    22179014.525
  22115999.543   -14466069.85849 -11251690.91346  22115999.572    22116010.565
  20391265.751   -27979300.17449 -21419608.04548  20391265.241    20391273.483
  22313859.947   -16279551.64849 -12660540.84346  22313859.706    22313872.324
  22337727.246   -15087219.31449 -11721975.85547  22337726.724    22337739.167
  22519261.353   -13971908.82049 -10247900.54646  22519261.180    22519274.730
  20571452.736   -22919094.26949 -16951878.67048  20571452.140    20571462.087
  23962083.522    -5603032.40749  -4322698.80645  23962082.656    23962099.428
  20492910.927   -26664567.86149 -19547802.12948  20492910.164    20492920.038
  23726046.678    -7228400.64549  -5617654.20545  23726046.360    23726061.250
 02  3  7  1 39 30.0000000  0 10G23G26G18G 6G21G29G17G22G15G 3
  22192175.628   -16322019.04549 -12334045.35247  22192175.027    22192185.755
  22125953.465   -14413761.85549 -11210931.42246  22125953.461    22125964.477
  20389481.938   -27988673.89849 -21426912.18448  20389481.416    20389489.664
  22331780.223   -16185380.32749 -12587160.69146  22331779.990    22331792.640
  22327203.293   -15142522.38749 -11765068.99647  22327202.780    22327215.224
  22500995.277   -14067896.68849 -10322696.05646  22500995.116    22501008.634
  20571056.189   -22921177.95749 -16953502.27148  20571055.595    20571065.530
  23971789.531    -5552027.83149  -4282955.06745  23971788.676    23971805.429
  20488882.935   -26685735.07849 -19564296.00448  20488882.152    20488892.025
  23708495.260    -7320632.60249  -5689522.95745  23708494.902    23708509.818
 02  3  7  1 40  0.0000000  0 10G23G26G18G 6G21G29G17G22G15G 3
  22205372.099   -16252671.24849 -12280008.13347  22205371.491    22205382.229
  22136017.345   -14360875.29449 -11169721.11246  22136017.414    22136028.474
  20387774.910   -27997644.26049 -21433902.02148  20387774.398    20387782.609
  22349757.100   -16090911.76049 -12513548.92246  22349756.825    22349769.510
  22316729.750   -15197560.55949 -11807955.71747  22316729.230    22316741.670
  22482772.638   -14163656.70349 -10397314.01246  22482772.401    22482785.892
  20570702.571   -22923036.13849 -16954950.16148  20570701.979    20570711.909
  23981557.208    -5500698.31649  -4242958.11645  23981556.284    23981573.162
  20484899.534   -26706667.68249 -19580607.07548  20484898.770    20484908.615
  23690990.536    -7412619.55049  -5761200.81145  23690990.169    23691005.044
 02  3  7  1 40 30.0000000  0 10G23G26G18G 6G21G29G17G22G15G 3
  22218593.821   -16183190.60449 -12225867.38947  22218593.218    22218603.974
  22146191.477   -14307409.96149 -11128059.79646  22146191.471    22146202.601
  20386144.848   -28006210.15049 -21440576.67948  20386144.336    20386152.531
  22367790.497   -15996146.25949 -12439705.78746  22367790.181    22367802.892
  22306307.047   -15252331.77649 -11850634.41947  22306306.486    22306318.876
  22464594.141   -14259184.29349 -10471750.85246  22464593.896    22464607.399
  20570392.390   -22924665.94449 -16956220.10048  20570391.784    20570401.702
  23991386.716    -5449044.52349  -4202708.50845  23991385.769    23991402.625
  20480961.330   -26727362.84149 -19596733.11848  20480960.576    20480970.411
  23673533.306    -7504356.92449  -5832684.19845  23673532.885    23673547.782
 02  3  7  1 41  0.0000000  0 10G23G26G18G 6G21G29G17G22G15G 3
  22231840.183   -16113580.48149 -12171625.75547  22231839.608    22231850.379
  22156475.085   -14253369.32649 -11085950.21246  22156474.982    22156486.170
  20384591.260   -28014373.84749 -21446937.94148  20384590.772    20384598.972
  22385879.672   -15901087.24149 -12365633.93046  22385879.388    22385892.098
  22295934.848   -15306837.33649 -11893106.12647  22295934.306    22295946.695
  22446460.115   -14354477.99549 -10546005.45646  22446459.960    22446473.407
  20570125.543   -22926068.25049 -16957312.76348  20570124.929    20570134.825
  24001277.073    -5397070.60049  -4162209.39145  24001276.173    24001293.015
  20477068.207   -26747821.06649 -19612674.53948  20477067.431    20477077.275
  23656123.699    -7595843.60649  -5903972.26945  23656123.337    23656138.184
 02  3  7  1 41 30.0000000  0 10G23G26G18G 6G21G29G17G22G15G 3
  22245111.096   -16043841.37549 -12117283.61047  22245110.530    22245121.294
  22166867.845   -14198754.24149 -11043393.00546  22166867.886    22166879.094
  20383114.291   -28022135.35549 -21452985.81648  20383113.784    20383121.959
  22404024.408   -15805735.98349 -12291334.35546  22404024.217    22404036.920
  22285613.363   -15361076.78249 -11935370.46047  22285612.782    22285625.095
  22428371.486   -14449534.17249 -10620074.96646  22428371.202    22428384.628
  20569902.334   -22927240.95949 -16958226.52648  20569901.723    20569911.600
  24011228.082    -5344777.89849  -4121461.93045  24011227.173    24011244.088
  20473220.452   -26768040.77449 -19628430.10948  20473219.705    20473229.538
  23638762.480    -7687076.12849  -5975062.25145  23638762.086    23638777.053
 02  3  7  1 42  0.0000000  0 10G23G26G18G 6G21G29G17G22G15G 3
  22258405.958   -15973976.46649 -12062843.44747  22258405.396    22258416.168
  22177369.318   -14143568.27349 -11000390.94246  22177369.456    22177380.644
  20381713.365   -28029496.84649 -21458721.99148  20381712.864    20381721.042
  22422224.109   -15710096.27549 -12216810.00846  22422223.927    22422236.636
  22275342.207   -15415051.41149 -11977428.46247  22275341.602    22275353.851
  22410328.159   -14544351.31249 -10693958.21246  22410327.893    22410341.261
  20569722.718   -22928184.64749 -16958961.82148  20569722.118    20569731.976
  24021239.002    -5292170.72449  -4080469.38945  24021238.073    24021255.058
  20469418.000   -26788022.65449 -19644000.34448  20469417.247    20469427.085
  23621449.847    -7778053.31949  -6045953.33045  23621449.491    23621464.226
 02  3  7  1 42 30.0000000  0 10G23G26G18G 6G21G29G17G22G15G 3
  22271724.461   -15903987.26349 -12008306.41547  22271723.897    22271734.671
  22187979.307   -14087813.20749 -10956945.42446  22187979.292    22187990.481
  20380388.484   -28036459.03649 -21464147.02048  20380387.971    20380396.155
  22440478.416   -15614169.99849 -12142062.36246  22440478.180    22440490.907
  22265121.433   -15468761.35249 -12019280.21247  22265120.848    22265132.987
  22392330.890   -14638926.48049 -10767652.91446  22392330.692    22392343.961
  20569586.836   -22928898.47249 -16959518.00048  20569586.232    20569596.070
  24031309.187    -5239251.51549  -4039233.71145  24031308.191    24031325.507
  20465661.018   -26807765.60549 -19659384.39648  20465660.248    20465670.078
  23604186.320    -7868772.69749  -6116643.50345  23604185.923    23604200.618
 02  3  7  1 43  0.0000000  0 10G23G26G18G 6G21G29G17G22G15G 3
  22285066.491   -15833874.46549 -11953673.08347  22285065.949    22285076.726
  22198697.327   -14031490.13549 -10913057.30446  22198697.241    22198708.370
  20379139.513   -28043022.06449 -21469261.01648  20379139.026    20379147.189
  22458786.888   -15517958.51149 -12067092.48446  22458786.665    22458799.396
  22254951.257   -15522205.39249 -12060924.76947  22254950.669    22254962.775
  22374380.397   -14733256.18349 -10841156.34746  22374380.190    22374393.413
  20569495.041   -22929380.74849 -16959893.77248  20569494.435    20569504.241
  24041438.363    -5186021.84649  -3997756.12045  24041437.489    24041454.823
  20461949.860   -26827267.60749 -19674580.70048  20461949.098    20461958.914
  23586972.537    -7959230.69249  -6187129.98845  23586972.149    23586986.861
 02  3  7  1 43 30.0000000  0 10G23G26G18G 6G21G29G17G22G15G 3
  22298431.777   -15763639.42649 -11898944.48647  22298431.237    22298442.024
  22209523.035   -13974600.67149 -10868727.84346  22209522.957    22209534.068
  20377966.421   -28049186.33149 -21474064.28948  20377965.928    20377974.092
  22477149.359   -15421463.58349 -11991901.73246  22477149.103    22477161.885
  22244831.735   -15575383.08049 -12102361.77447  22244831.164    22244843.233
  22356477.222   -14827337.10549 -10914465.92546  22356476.993    22356490.157
  20569447.582   -22929629.97149 -16960087.94448  20569446.998    20569456.782
  24051626.478    -5132483.99549  -3956038.39345  24051625.506    24051642.841
  20458284.785   -26846527.52049 -19689588.36848  20458284.025    20458293.833
  23569809.164    -8049424.21349  -6257410.42545  23569808.751    23569823.252
 02  3  7  1 44  0.0000000  0 10G23G26G18G 6G21G29G17G22G15G 3
  22311819.420   -15693286.92349 -11844124.38247  22311818.869    22311829.648
  22220455.461   -13917150.00949 -10823961.07846  22220455.459    22220466.528
  20376868.506   -28054955.69749 -21478559.84848  20376868.028    20376876.171
  22495564.708   -15324690.41349 -11916494.18646  22495564.445    22495577.339
  22234762.222   -15628298.01849 -12143594.05747  22234761.695    22234773.681
  22338621.274   -14921169.68849 -10987581.99446  22338621.075    22338634.177
  20569444.034   -22929648.61349 -16960102.44748  20569443.441    20569453.212
  24061872.012    -5078643.78649  -3914085.07045  24061871.143    24061888.309
  20454665.273   -26865547.85249 -19704409.35748  20454664.520    20454674.329
  23552695.838    -8139353.96249  -6327485.33245  23552695.399    23552709.774
 02  3  7  1 44 30.0000000  0 10G23G26G18G 6G21G29G17G22G15G 3
  22325229.730   -15622815.62649 -11789211.70547  22325229.155    22325239.912
  22231494.966   -13859137.18049 -10778756.26346  22231494.907    22231505.980
  20375846.119   -28060328.22149 -21482746.17948  20375845.626    20375853.755
  22514033.202   -15227638.21249 -11840869.20046  22514032.959    22514045.883
  22224743.325   -15680947.08749 -12184619.16347  22224742.801    22224754.713
  22320813.706   -15014748.08749 -11060499.99246  22320813.503    22320826.529
  20569485.106   -22929432.67049 -16959934.16348  20569484.502    20569494.286
  24072175.120    -5024500.60249  -3871895.62745  24072174.250    24072191.549
  20451092.097   -26884324.76549 -19719040.66448  20451091.354    20451101.159
  23535633.872    -8229014.32349  -6397350.31245  23535633.541    23535647.754
 02  3  7  1 45  0.0000000  0 10G23G26G18G 6G21G29G17G22G15G 3
  22338662.345   -15552226.77849 -11734207.41647  22338661.786    22338672.532
  22242641.016   -13800564.03749 -10733114.82746  22242640.990    22242652.039
  20374899.150   -28065304.42149 -21486623.68648  20374898.641    20374906.771
  22532554.403   -15130308.97949 -11765028.34546  22532554.167    22532567.189
  22214775.022   -15733330.24249 -12225437.07847  22214774.512    22214786.369
  22303055.152   -15108069.32449 -11133217.61046  22303054.897    22303067.869
  20569571.019   -22928981.11549 -16959582.27948  20569570.403    20569580.189
  24082535.440    -4970057.01249  -3829472.15445  24082534.658    24082551.902
  20447565.453   -26902857.07449 -19733481.36548  20447564.716    20447574.513
  23518623.756    -8318402.48849  -6467003.17545  23518623.396    23518637.513
 02  3  7  1 45 30.0000000  0 10G23G26G18G 6G21G29G17G22G15G 3
  22352116.457   -15481524.96549 -11679115.09947  22352115.902    22352126.636
  22253892.760   -13741435.58849 -10687040.68746  22253892.741    22253903.810
  20374026.784   -28069888.39049 -21490195.56248  20374026.295    20374034.396
  22551127.393   -15032707.76749 -11688975.56046  22551127.109    22551140.158
  22204856.764   -15785450.27849 -12266049.96047  22204856.258    22204868.126
  22285345.428   -15201133.55049 -11205734.95846  22285345.187    22285358.099
  20569701.408   -22928295.78049 -16959048.23148  20569700.812    20569710.597
  24092951.820    -4915318.69749  -3786819.00745  24092951.106    24092968.267
  20444085.018   -26921146.71249 -19747732.97648  20444084.265    20444094.065
  23501665.243    -8407518.76449  -6536444.20545  23501665.006    23501678.904
 02  3  7  1 46  0.0000000  0 10G23G26G18G 6G21G29G17G22G15G 3
  22365592.298   -15410708.97249 -11623933.81347  22365591.753    22365602.474
  22265250.214   -13681751.09149 -10640533.27746  22265250.297    22265261.357
  20373229.477   -28074078.11149 -21493460.23948  20373228.977    20373237.058
  22569752.216   -14934834.05249 -11612710.43646  22569751.956    22569765.016
  22194989.083   -15837304.36949 -12306455.61247  22194988.629    22195000.504
  22267685.700   -15293935.10249 -11278047.62046  22267685.472    22267698.303
  20569877.001   -22927373.02649 -16958329.17948  20569876.401    20569886.163
  24103424.367    -4860285.45849  -3743936.03445  24103423.617    24103440.668
  20440651.421   -26939190.23549 -19761792.81448  20440650.662    20440660.444
  23484759.470    -8496357.89649  -6605669.26845  23484759.220    23484773.136
 02  3  7  1 46 30.0000000  0 10G23G26G18G 6G21G29G17G22G15G 3
  22379089.201   -15339782.50749 -11568666.44647  22379088.639    22379099.311
  22276712.834   -13621514.92749 -10593595.97546  22276712.872    22276723.934
  20372506.658   -28077876.43349 -21496419.92548  20372506.168    20372514.230
  22588428.079   -14836692.01849 -11536236.22446  22588427.807    22588440.944
  22185171.627   -15888895.03149 -12346655.99347  22185171.146    22185182.977
  22250075.997   -15386473.45649 -11350155.19646  22250075.834    22250088.606
  20570097.480   -22926214.24749 -16957426.20448  20570096.888    20570106.629
  24113952.146    -4804962.06049  -3700826.98145  24113951.409    24113968.464
  20437264.463   -26956988.59249 -19775661.61048  20437263.697    20437273.462
  23467906.653    -8584919.38849  -6674677.99346  23467906.377    23467920.169
 02  3  7  1 47  0.0000000  0 10G23G26G18G 6G21G29G17G22G15G 3
  22392607.025   -15268746.02049 -11513313.36847  22392606.441    22392617.136
  22288280.191   -13560727.79349 -10546229.35246  22288280.244    22288291.349
  20371858.324   -28081283.20649 -21499074.51548  20371857.826    20371865.877
  22607154.848   -14738282.59849 -11459553.66746  22607154.592    22607167.733
  22175404.471   -15940221.15249 -12386650.24047  22175403.978    22175415.789
  22232517.280   -15478744.47849 -11422054.44946  22232517.079    22232529.784
  20570363.342   -22924817.10149 -16956337.47348  20570362.734    20570372.473
  24124534.825    -4749350.00249  -3657493.00045  24124534.163    24124551.138
  20433924.579   -26974539.61849 -19789337.68448  20433923.809    20433933.570
  23451107.375    -8673199.59649  -6743467.54646  23451107.027    23451120.800
 02  3  7  1 47 30.0000000  0 10G23G26G18G 6G21G29G17G22G15G 3
  22406145.397   -15197601.38349 -11457875.99547  22406144.838    22406155.539
  22299951.994   -13499392.21149 -10498435.37046  22299952.064    22299963.119
  20371284.320   -28084299.60649 -21501424.92448  20371283.814    20371291.860
  22625932.007   -14639608.40749 -11382664.79246  22625931.763    22625944.908
  22165687.529   -15991283.23549 -12426438.74247  22165687.054    22165698.884
  22215009.836   -15570745.75649 -11493743.51846  22215009.619    22215022.288
  20570674.674   -22923180.98149 -16955062.55248  20570674.079    20570683.793
  24135171.942    -4693452.00449  -3613936.23145  24135171.167    24135188.206
  20430631.909   -26991842.58349 -19802820.47648  20430631.129    20430640.864
  23434362.086    -8761196.04049  -6812036.02446  23434361.729    23434375.320
 02  3  7  1 48  0.0000000  0 10G23G26G18G 6G21G29G17G22G15G 3
  22419703.854   -15126351.28349 -11402356.45447  22419703.292    22419714.007
  22311727.506   -13437511.63049 -10450216.71646  22311727.582    22311738.606
  20370784.091   -28086927.97049 -21503472.95648  20370783.610    20370791.633
  22644758.873   -14540673.06849 -11305572.42046  22644758.590    22644771.797
  22156020.738   -16042082.25149 -12466022.25047  22156020.247    22156032.046
  22197554.060   -15662475.71049 -11565221.16946  22197553.804    22197566.397
  20571031.413   -22921306.31449 -16953601.74248  20571030.802    20571040.509
  24145862.799    -4637272.31149  -3570159.93745  24145862.057    24145878.927
  20427386.277   -27008898.30449 -19816110.60648  20427385.495    20427395.217
  23417670.959    -8848907.68049  -6880382.53946  23417670.634    23417684.214
 02  3  7  1 48 30.0000000  0 10G23G26G18G 6G21G29G17G22G15G 3
  22433282.458   -15054995.47049 -11346754.54147  22433281.872    22433292.609
  22323606.690   -13375086.43249 -10401573.68046  22323606.669    22323617.671
  20370357.978   -28089167.15749 -21505217.72548  20370357.495    20370365.517
  22663635.381   -14441476.89949 -11228276.82046  22663635.042    22663648.295
  22146404.348   -16092616.23849 -12505399.24147  22146403.834    22146415.615
  22180150.675   -15753929.91349 -11636483.95446  22180150.442    22180162.996
  20571434.047   -22919190.33449 -16951952.88348  20571433.443    20571443.143
  24156606.965    -4580811.48549  -3526164.57345  24156606.249    24156623.154
  20424188.289   -27025703.66249 -19829205.63948  20424187.509    20424197.195
  23401034.980    -8936329.77649  -6948503.44446  23401034.631    23401048.198
 02  3  7  1 49  0.0000000  0 10G23G26G18G 6G21G29G17G22G15G 3
  22446880.585   -14983536.88349 -11291072.53747  22446879.998    22446890.743
  22335588.532   -13312120.24149 -10352509.08946  22335588.674    22335599.741
  20370005.421   -28091019.67949 -21506661.20548  20370004.939    20370012.965
  22682560.812   -14342023.50649 -11150780.77846  22682560.509    22682573.769
  22136837.984   -16142886.86149 -12544571.01247  22136837.527    22136849.278
  22162799.984   -15845106.87949 -11707530.70446  22162799.844    22162812.350
  20571882.521   -22916833.47249 -16950116.32548  20571881.923    20571891.613
  24167403.774    -4524073.68349  -3481953.38345  24167402.975    24167420.096
  20421037.849   -27042259.11049 -19842105.94048  20421037.070    20421046.739
  23384454.130    -9023461.13849  -7016397.80046  23384453.821    23384467.519
 02  3  7  1 49 30.0000000  0 10G23G26G18G 6G21G29G17G22G15G 3
  22460498.035   -14911976.83249 -11235311.45646  22460497.431    22460508.206
  22347673.099   -13248614.86249 -10303024.36246  22347673.318    22347684.433
  20369726.373   -28092486.00249 -21507803.75148  20369725.872    20369733.885
  22701534.857   -14242314.96449 -11073085.91646  22701534.485    22701547.770
  22127321.869   -16192894.10249 -12583537.54347  22127321.374    22127333.107
  22145502.752   -15936003.56949 -11778359.06246  22145502.588    22145515.087
  20572377.001   -22914234.55549 -16948091.15248  20572376.400    20572386.117
  24178252.945    -4467061.37649  -3437528.31645  24178252.154    24178269.313
  20417935.109   -27058563.79149 -19854810.84348  20417934.338    20417943.997
  23367929.370    -9110298.83949  -7084063.36446  23367929.019    23367942.675
 02  3  7  1 50  0.0000000  0 10G23G26G18G 6G21G29G17G22G15G 3
  22474134.532   -14840316.37249 -11179472.15046  22474133.941    22474144.714
  22359860.056   -13184572.17149 -10253120.97646  22359860.221    22359871.307
  20369520.653   -28093566.71449 -21508645.82148  20369520.165    20369528.167
  22720557.082   -14142352.77649 -10995193.41246  22720556.785    22720570.074
  22117855.965   -16242637.43049 -12622298.42547  22117855.447    22117867.143
  22128259.415   -16026616.90449 -11848966.63246  22128259.256    22128271.705
  20572917.866   -22911392.04449 -16945876.17148  20572917.266    20572926.997
  24189154.080    -4409776.55749  -3392890.90045  24189153.237    24189170.515
  20414880.446   -27074615.96949 -19867318.98848  20414879.683    20414889.340
  23351460.837    -9196840.16649  -7151497.93946  23351460.491    23351474.171
 02  3  7  1 50 30.0000000  0 10G23G26G18G 6G21G29G17G22G15G 3
  22487789.790   -14768557.47449 -11123556.15146  22487789.197    22487800.028
  22372148.678   -13119995.05549 -10202801.11746  22372148.804    22372159.932
  20369388.017   -28094263.59249 -21509188.80148  20369387.517    20369395.501
  22739627.068   -14042139.87849 -10917105.54846  22739626.754    22739640.036
  22108440.017   -16292117.96349 -12660854.53747  22108439.526    22108451.151
  22111070.514   -16116944.59249 -11919351.62646  22111070.315    22111082.711
  20573505.135   -22908305.73749 -16943471.22747  20573504.529    20573514.264
  24200106.245    -4352222.73049  -3348043.85945  24200105.375    24200122.751
  20411873.839   -27090415.48949 -19879630.25148  20411873.084    20411882.731
  23335049.260    -9283083.09349  -7218700.01346  23335048.893    23335062.509
 02  3  7  1 51  0.0000000  0 10G23G26G18G 6G21G29G17G22G15G 3
  22501463.571   -14696701.41749 -11067564.42446  22501462.951    22501473.786
  22384538.711   -13054885.39449 -10152066.29946  22384538.756    22384549.885
  20369328.299   -28094577.18649 -21509433.11248  20369327.818    20369335.803
  22758744.321   -13941678.00149 -10838823.66046  22758744.139    22758757.398
  22099074.283   -16341335.15449 -12699205.43947  22099073.710    22099085.261
  22093936.538   -16206983.52649 -11989511.60846  22093936.327    22093948.664
  20574139.032   -22904974.41349 -16940875.36147  20574138.420    20574148.152
  24211109.232    -4294402.01149  -3302988.83545  24211108.349    24211125.767
  20408915.603   -27105961.02849 -19891743.61148  20408914.842    20408924.473
  23318694.854    -9369024.46549  -7285667.08346  23318694.505    23318708.240
 02  3  7  1 51 30.0000000  0 10G23G26G18G 6G21G29G17G22G15G 3
  22515155.185   -14624751.38349 -11011499.47246  22515154.573    22515165.450
  22397029.158   -12989247.00249 -10100919.51346  22397029.259    22397040.357
  20369341.034   -28094510.01349 -21509380.72348  20369340.549    20369348.531
  22777908.354   -13840971.08749 -10760350.85046  22777908.082    22777921.382
  22089758.199   -16390290.85849 -12737352.58347  22089757.669    22089769.150
  22076857.665   -16296732.83549 -12059445.92846  22076857.460    22076869.702
  20574819.395   -22901398.79249 -16938089.12747  20574818.799    20574828.506
  24222162.110    -4236319.05449  -3257729.49045  24222161.287    24222178.732
  20406005.525   -27121253.37949 -19903659.67848  20406004.767    20406014.393
  23302398.178    -9454663.37749  -7352398.47646  23302397.826    23302411.552
 02  3  7  1 52  0.0000000  0 10G23G26G18G 6G21G29G17G22G15G 3
  22528864.763   -14552707.05649 -10955361.04346  22528864.162    22528875.030
  22409620.157   -12923080.79949 -10049361.40846  22409620.253    22409631.322
  20369426.350   -28094061.47949 -21509031.16848  20369425.870    20369433.849
  22797118.809   -13740019.82849 -10681687.62246  22797118.553    22797131.900
  22080492.161   -16438983.64649 -12775294.84947  22080491.604    22080503.079
  22059834.744   -16386188.11849 -12129151.13546  22059834.535    22059846.701
  20575546.794   -22897576.16049 -16935110.42247  20575546.196    20575555.874
  24233264.780    -4177974.78449  -3212266.51745  24233263.880    24233281.332
  20403144.108   -27136290.07149 -19915376.53048  20403143.338    20403152.968
  23286159.767    -9539995.73349  -7418890.96946  23286159.388    23286173.173
 02  3  7  1 52 30.0000000  0 10G23G26G18G 6G21G29G17G22G15G 3
  22542592.072   -14480569.74549 -10899150.16446  22542591.439    22542602.319
  22422311.284   -12856388.67549  -9997393.50846  22422311.327    22422322.334
  20369584.081   -28093232.41249 -21508385.09548  20369583.601    20369591.560
  22816375.372   -13638826.26749 -10602835.60446  22816375.112    22816388.502
  22071276.138   -16487413.51749 -12813032.26447  22071275.604    22071287.007
  22042868.351   -16475346.26249 -12198624.81246  22042868.180    22042880.254
  20576321.416   -22893505.37249 -16931938.35947  20576320.830    20576330.479
  24244416.691    -4119371.53949  -3166601.74545  24244415.760    24244433.296
  20400331.528   -27151069.95649 -19926893.27948  20400330.755    20400340.401
  23269980.263    -9625018.67749  -7485142.34946  23269979.899    23269993.683
 02  3  7  1 53  0.0000000  0 10G23G26G18G 6G21G29G17G22G15G 3
  22556336.297   -14408343.32249 -10842869.84346  22556335.664    22556346.533
  22435101.553   -12789175.43249  -9945019.54346  22435101.582    22435112.587
  20369813.603   -28092026.22249 -21507445.15148  20369813.102    20369821.051
  22835677.110   -13537395.08749 -10523798.43346  22835676.890    22835690.269
  22062109.745   -16535583.04249 -12850566.80547  22062109.160    22062120.484
  22025958.486   -16564207.12849 -12267866.84346  22025958.337    22025970.365
  20577142.958   -22889187.97149 -16928574.12147  20577142.361    20577152.012
  24255616.854    -4060514.60049  -3120739.28645  24255615.937    24255633.458
  20397567.598   -27165594.23649 -19938210.84248  20397566.838    20397576.469
  23253859.640    -9709731.85549  -7551152.36646  23253859.279    23253872.921
 02  3  7  1 53 30.0000000  0 10G23G26G18G 6G21G29G17G22G15G 3
  22570097.559   -14336027.57349 -10786519.93246  22570096.927    22570107.779
  22447990.751   -12721441.75749  -9892240.05246  22447990.849    22448001.806
  20370115.005   -28090442.13949 -21506210.74648  20370114.503    20370122.440
  22855024.075   -13435726.91149 -10444576.58546  22855023.796    22855037.185
  22052993.097   -16583490.69449 -12887897.29247  22052992.511    22053003.804
  22009106.103   -16652766.26349 -12336873.75547  22009105.934    22009117.921
  20578011.971   -22884621.18249 -16925015.55547  20578011.369    20578021.021
  24266865.087    -4001404.90449  -3074679.89045  24266864.170    24266881.725
  20394852.806   -27179860.29849 -19949327.20548  20394852.048    20394861.674
  23237798.888    -9794131.27549  -7616917.88046  23237798.477    23237812.064
 02  3  7  1 54  0.0000000  0 10G23G26G18G 6G21G29G17G22G15G 3
  22583875.751   -14263622.91949 -10730100.73446  22583875.109    22583885.889
  22460978.856   -12653188.88449  -9839055.98346  22460978.978    22460989.886
  20370488.318   -28088480.14849 -21504681.87448  20370487.835    20370495.754
  22874415.782   -13333822.96449 -10365171.02846  22874415.571    22874428.914
  22043926.519   -16631135.35949 -12925022.85647  22043925.918    22043937.187
  21992311.859   -16741019.81049 -12405642.55547  21992311.670    21992323.610
  20578928.823   -22879803.06049 -16921261.14447  20578928.254    20578937.887
  24278161.120    -3942044.12849  -3028424.83845  24278160.129    24278177.893
  20392187.536   -27193866.21049 -19960240.84948  20392186.793    20392196.391
  23221798.497    -9878213.19149  -7682436.00746  23221798.074    23221811.591
 02  3  7  1 54 30.0000000  0 10G23G26G18G 6G21G29G17G22G15G 3
  22597670.005   -14191133.72849 -10673615.66146  22597669.359    22597680.134
  22474064.800   -12584422.14149  -9785471.48546  22474064.819    22474075.752
  20370932.829   -28086144.21049 -21502861.62048  20370932.327    20370940.240
  22893851.386   -13231688.46849 -10285585.82546  22893851.176    22893864.555
  22034909.298   -16678520.21349 -12961945.98347  22034908.720    22034919.955
  21975575.686   -16828968.11249 -12474173.50747  21975575.516    21975587.408
  20579893.092   -22874735.65349 -16917312.48647  20579892.487    20579902.135
  24289503.852    -3882437.88849  -2981978.52445  24289502.877    24289520.611
  20389571.376   -27207614.03749 -19970953.38648  20389570.614    20389580.204
  23205858.450    -9961977.93749  -7747706.97846  23205857.969    23205871.467
 02  3  7  1 55  0.0000000  0 10G23G26G18G 6G21G29G17G22G15G 3
  22611480.179   -14118560.78349 -10617065.31846  22611479.538    22611490.269
  22487247.986   -12515143.30749  -9731487.96546  22487248.152    22487259.116
  20371448.395   -28083434.69949 -21500750.26548  20371447.900    20371455.777
  22913330.665   -13129324.86349 -10205822.10746  22913330.411    22913343.813
  22025941.673   -16725644.63149 -12998666.16947  22025941.119    22025952.324
  21958898.181   -16916607.84749 -12542464.00447  21958898.092    21958909.948
  20580905.141   -22869417.21449 -16913168.22347  20580904.556    20580914.175
  24300892.942    -3822588.33849  -2935342.62245  24300891.993    24300909.746
  20387004.726   -27221101.84949 -19981463.30648  20387003.951    20387013.534
  23189979.376   -10045422.29349  -7812728.31446  23189978.962    23189992.210
 02  3  7  1 55 30.0000000  0 10G23G26G18G 6G21G29G17G22G15G 3
  22625306.258   -14045904.08149 -10560449.71146  22625305.677    22625316.401
  22500528.669   -12445353.21649  -9677106.08646  22500528.738    22500539.773
  20372035.117   -28080351.24649 -21498347.52648  20372034.614    20372042.475
  22932853.314   -13026732.98549 -10125880.51746  22932853.055    22932866.460
  22017023.852   -16772507.24349 -13035182.35147  22017023.342    22017034.534
  21942280.281   -17003934.74549 -12610510.73647  21942280.126    21942291.970
  20581965.420   -22863845.48549 -16908826.58047  20581964.832    20581974.416
  24312327.988    -3762496.72049  -2888518.08545  24312327.056    24312344.914
  20384487.951   -27234327.40049 -19991768.87048  20384487.193    20384496.752
  23174162.064   -10128542.18049  -7877496.79546  23174161.572    23174174.821
 02  3  7  1 56  0.0000000  0 10G23G26G18G 6G21G29G17G22G15G 3
  22639148.046   -13973165.01749 -10503769.93146  22639147.464    22639158.190
  22513905.977   -12375054.56449  -9622327.89746  22513906.127    22513917.149
  20372692.748   -28076895.13349 -21495654.40848  20372692.249    20372700.113
  22952419.006   -12923915.42849 -10045763.06246  22952418.731    22952432.157
  22008155.711   -16819108.95249 -13071495.24247  22008155.231    22008166.363
  21925722.353   -17090946.45949 -12678311.86547  21925722.169    21925733.975
  20583074.048   -22858019.43549 -16904286.77247  20583073.445    20583083.016
  24323808.747    -3702165.78749  -2841507.08945  24323807.808    24323825.551
  20382021.227   -27247289.91349 -20001869.47148  20382020.461    20382030.015
  23158406.786   -10211335.42449  -7942010.77046  23158406.309    23158419.536
 02  3  7  1 56 30.0000000  0 10G23G26G18G 6G21G29G17G22G15G 3
  22653004.767   -13900347.44849 -10447028.99146  22653004.181    22653014.931
  22527379.347   -12304252.20149  -9567157.22746  22527379.370    22527390.427
  20373420.666   -28073069.63449 -21492673.45448  20373420.175    20373428.034
  22972026.723   -12820876.86749  -9965473.39746  22972026.417    22972039.832
  21999336.756   -16865452.40749 -13107606.89747  21999336.257    21999347.359
  21909224.508   -17177642.67249 -12745867.15347  21909224.290    21909236.055
  20584230.762   -22851940.69649 -16899550.06247  20584230.164    20584239.732
  24335334.004    -3641600.93549  -2794313.81245  24335333.049    24335350.743
  20379604.243   -27259990.87749 -20011766.26848  20379603.484    20379613.017
  23142713.795   -10293801.93949  -8006270.17146  23142713.293    23142726.479
 02  3  7  1 57  0.0000000  0 10G23G26G18G 6G21G29G17G22G15G 3
  22666876.624   -13827450.65449 -10390226.28746  22666876.008    22666886.743
  22540948.386   -12232946.32449  -9511594.18746  22540948.426    22540959.490
  20374219.107   -28068873.65549 -21489403.81248  20374218.612    20374226.461
  22991676.468   -12717617.31949  -9885011.54246  22991676.193    22991689.569
  21990567.301   -16911535.57849 -13143515.73947  21990566.798    21990577.861
  21892787.537   -17264018.49549 -12813172.78347  21892787.339    21892799.056
  20585436.210   -22845605.93349 -16894613.84647  20585435.619    20585445.168
  24346903.660    -3580802.58849  -2746938.57845  24346902.690    24346920.397
  20377237.698   -27272427.00549 -20021456.69748  20377236.953    20377246.454
  23127083.843   -10375936.90649  -8070271.21846  23127083.334    23127096.431
 02  3  7  1 57 30.0000000  0 10G23G26G18G 6G21G29G17G22G15G 3
  22680762.957   -13754477.38849 -10333364.01346  22680762.365    22680773.136
  22554612.531   -12161140.83949  -9455641.84646  22554612.556    22554623.624
  20375087.510   -28064309.91549 -21485847.60348  20375087.031    20375094.877
  23011367.569   -12614140.47949  -9804380.36446  23011367.292    23011380.663
  21981847.096   -16957360.07449 -13179223.01547  21981846.624    21981857.629
  21876411.781   -17350072.79349 -12880227.86947  21876411.596    21876423.250
  20586690.251   -22839015.76449 -16889478.60147  20586689.631    20586699.200
  24358516.811    -3519774.95849  -2699384.71645  24358515.860    24358533.669
  20374921.466   -27284598.78449 -20030941.14248  20374920.726    20374930.183
  23111517.232   -10457738.95049  -8134012.86146  23111516.810    23111529.783
 02  3  7  1 58  0.0000000  0 10G23G26G18G 6G21G29G17G22G15G 3
  22694663.810   -13681427.85049 -10276442.30746  22694663.221    22694674.036
  22568371.439   -12088837.14249  -9399301.29246  22568371.462    22568382.535
  20376025.996   -28059378.04649 -21482004.54548  20376025.501    20376033.344
  23031099.746   -12510447.74849  -9723580.96246  23031099.482    23031112.920
  21973176.377   -17002924.57549 -13214727.69847  21973175.907    21973186.877
  21860098.046   -17435801.61549 -12947029.34147  21860097.789    21860109.410
  20587993.260   -22832168.24549 -16884142.82647  20587992.640    20588002.205
  24370173.599    -3458519.59349  -2651653.38745  24370172.601    24370190.240
  20372655.927   -27296504.09149 -20040217.95048  20372655.174    20372664.607
  23096014.735   -10539204.38949  -8197492.25746  23096014.253    23096027.090
 02  3  7  1 58 30.0000000  0 10G23G26G18G 6G21G29G17G22G15G 3
  22708578.774   -13608304.29749 -10219462.89946  22708578.149    22708589.017
  22582224.512   -12016038.48349  -9342575.06046  22582224.621    22582235.667
  20377034.042   -28054080.26549 -21477876.35148  20377033.583    20377041.419
  23050872.367   -12406542.16049  -9642615.69646  23050872.083    23050885.628
  21964554.991   -17048230.06449 -13250030.55947  21964554.476    21964565.427
  21843846.425   -17521203.37549 -13013575.96147  21843846.220    21843857.749
  20589345.302   -22825063.03649 -16878606.25647  20589344.683    20589354.247
  24381872.666    -3397040.05149  -2603747.34545  24381871.751    24381889.552
  20370441.102   -27308142.94049 -20049287.12148  20370440.348    20370449.760
  23080576.446   -10620331.62749  -8260708.10446  23080576.020    23080588.916
 02  3  7  1 59  0.0000000  0 10G23G26G18G 6G21G29G17G22G15G 3
  22722507.719   -13535107.32349 -10162426.30346  22722507.086    22722517.951
  22596171.476   -11942746.76049  -9285464.59346  22596171.526    22596182.588
  20378111.773   -28048416.62149 -21473463.07848  20378111.287    20378119.119
  23070685.288   -12302425.13349  -9561485.69446  23070684.948    23070698.550
  21955982.886   -17093276.28649 -13285131.39747  21955982.380    21955993.268
  21827657.811   -17606274.55449 -13079864.98647  21827657.607    21827669.046
  20590746.704   -22817698.38649 -16872867.52347  20590746.083    20590755.654
  24393614.061    -3335338.35949  -2555668.25545  24393613.242    24393631.164
  20368277.303   -27319513.49249 -20058147.23248  20368276.546    20368285.941
  23065203.254   -10701117.50349  -8323657.98346  23065202.863    23065215.646
 02  3  7  1 59 30.0000000  0 10G23G26G18G 6G21G29G17G22G15G 3
  22736449.779   -13461841.08449 -10105335.71746  22736449.164    22736460.101
  22610211.247   -11868967.05849  -9227973.91846  22610211.356    22610222.327
  20379258.417   -28042390.95649 -21468767.71248  20379257.923    20379265.743
  23090537.419   -12198101.79649  -9480194.92846  23090537.124    23090550.792
  21947459.475   -17138066.70149 -13320032.90947  21947458.961    21947469.846
  21811532.008   -17691015.29549 -13145896.52847  21811531.841    21811543.195
  20592197.144   -22810076.07449 -16866928.02647  20592196.529    20592206.102
  24405396.825    -3273420.17049  -2507420.41545  24405395.888    24405413.757
  20366164.201   -27330617.48749 -20066799.63848  20366163.449    20366172.834
  23049894.977   -10781562.10249  -8386341.94146  23049894.610    23049907.319
 02  3  7  2  0  0.0000000  0 10G23G26G18G 6G21G29G17G22G15G 3
  22750405.429   -13388503.64949 -10048189.66046  22750404.813    22750415.721
  22624344.078   -11794698.62649  -9170102.38246  22624344.154    22624355.095
  20380474.285   -28036001.27649 -21463788.69448  20380473.802    20380481.602
  23110428.987   -12093571.20849  -9398742.65546  23110428.723    23110442.425
  21938985.362   -17182597.72949 -13354732.30247  21938984.877    21938995.743
  21795470.267   -17775419.65849 -13211665.95747  21795470.060    21795481.329
  20593697.429   -22802191.90349 -16860784.48147  20593696.800    20593706.373
  24417220.875    -3211284.74349  -2459003.33945  24417219.950    24417237.790
  20364102.683   -27341450.59149 -20075240.96348  20364101.916    20364111.303
  23034652.877   -10861659.55549  -8448755.40246  23034652.482    23034665.156
 02  3  7  2  0 30.0000000  0 10G23G26G18G 6G21G29G17G22G15G 3
  22764374.004   -13315098.01249  -9990990.45146  22764373.412    22764384.338
  22638569.023   -11719945.77649  -9111853.40346  22638569.125    22638580.028
  20381758.970   -28029250.04649 -21458527.94348  20381758.472    20381766.271
  23130359.340   -11988837.32249  -9317131.94246  23130358.996    23130372.774
  21930560.416   -17226871.28149 -13389231.06447  21930559.850    21930570.647
  21779472.701   -17859486.86449 -13277172.66447  21779472.475    21779483.685
  20595247.400   -22794046.55349 -16854437.40747  20595246.757    20595256.312
  24429085.413    -3148936.51849  -2410420.43945  24429084.467    24429102.339
  20362092.572   -27352013.73349 -20083471.93148  20362091.807    20362101.151
  23019476.941   -10941408.94449  -8510897.64846  23019476.508    23019489.159
 02  3  7  2  1  0.0000000  0 10G23G26G18G 6G21G29G17G22G15G 3
  22778355.381   -13241625.64549  -9933739.25546  22778354.763    22778365.666
  22652885.713   -11644711.19949  -9053229.04846  22652885.814    22652896.704
  20383112.144   -28022139.01249 -21452986.82748  20383111.655    20383119.430
  23150327.765   -11883902.73949  -9235364.84246  23150327.502    23150341.305
  21922184.215   -17270888.20049 -13423529.84947  21922183.608    21922194.404
  21763539.719   -17943214.39249 -13342414.69347  21763539.535    21763550.648
  20596847.243   -22785639.15849 -16847886.14247  20596846.620    20596856.142
  24440989.790    -3086378.67849  -2361674.19345  24440988.925    24441007.053
  20360133.992   -27362305.94549 -20091491.78548  20360133.223    20360142.540
  23004367.586   -11020808.11149  -8572766.99246  23004367.218    23004379.744
 02  3  7  2  1 30.0000000  0 10G23G26G18G 6G21G29G17G22G15G 3
  22792349.120   -13168087.99049  -9876437.17946  22792348.535    22792359.436
  22667293.688   -11568997.50749  -8994231.37146  22667293.638    22667304.453
  20384533.590   -28014669.09649 -21447166.07148  20384533.091    20384540.848
  23170333.964   -11778769.72949  -9153443.13946  23170333.722    23170347.577
  21913856.749   -17314648.59049 -13457628.74347  21913856.203    21913866.971
  21747671.830   -18026599.81249 -13407390.14647  21747671.651    21747682.715
  20598497.065   -22776969.08449 -16841130.20947  20598496.448    20598505.946
  24452933.590    -3023613.76549  -2312766.60045  24452932.757    24452950.797
  20358227.124   -27372326.39249 -20099299.87348  20358226.353    20358235.664
  22989325.385   -11099854.62949  -8634361.55446  22989325.012    22989337.572
 02  3  7  2  2  0.0000000  0 10G23G26G18G 6G21G29G17G22G15G 3
  22806355.159   -13094485.84549  -9819084.85946  22806354.529    22806365.432
  22681792.275   -11492807.02149  -8934862.13346  22681792.241    22681802.993
  20386023.191   -28006840.96749 -21441066.19048  20386022.680    20386030.440
  23190377.689   -11673440.19549  -9071368.30446  23190377.386    23190391.261
  21905578.171   -17358152.17049 -13491527.52447  21905577.634    21905588.422
  21731869.643   -18109640.04049 -13472096.61947  21731869.470    21731880.501
  20600197.186   -22768034.68649 -16834168.31047  20600196.591    20600206.068
  24464916.416    -2960644.28149  -2263699.60245  24464915.541    24464933.587
  20356372.228   -27382073.70449 -20106895.13448  20356371.457    20356380.770
  22974350.889   -11178545.41849  -8695678.88946  22974350.469    22974363.110
 02  3  7  2  2 30.0000000  0 10G23G26G18G 6G21G29G17G22G15G 3
  22820372.796   -13020822.44349  -9761684.79946  22820372.185    22820383.090
  22696380.713   -11416143.96549  -8875124.65746  22696380.732    22696391.488
  20387580.339   -27998657.73649 -21434689.60948  20387579.862    20387587.614
  23210457.958   -11567918.43749  -8989143.71246  23210457.584    23210471.507
  21897348.074   -17401401.37849 -13525228.09247  21897347.482    21897358.266
  21716133.218   -18192334.45249 -13536533.63147  21716133.064    21716144.065
  20601947.466   -22758836.84949 -16827001.11647  20601946.849    20601956.314
  24476937.303    -2897474.88749  -2214476.82345  24476936.340    24476954.375
  20354569.151   -27391548.61949 -20114278.14548  20354568.386    20354577.703
  22959444.200   -11256879.68149  -8756718.44046  22959443.799    22959456.320
 02  3  7  2  3  0.0000000  0 10G23G26G18G 6G21G29G17G22G15G 3
  22834402.317   -12947096.75349  -9704236.19846  22834401.723    22834412.655
  22711059.079   -11339008.67149  -8815019.20446  22711059.131    22711069.930
  20389205.287   -27990118.10249 -21428035.31348  20389204.827    20389212.573
  23230574.761   -11462204.43849  -8906769.29846  23230574.368    23230588.315
  21889166.689   -17444394.00649 -13558728.72647  21889166.146    21889176.897
  21700463.589   -18274678.10049 -13600697.32147  21700463.432    21700474.387
  20603748.453   -22749372.37349 -16819626.15747  20603747.842    20603757.322
  24488996.119    -2834105.81649  -2165098.43545  24488995.181    24489013.178
  20352818.589   -27400747.85249 -20121446.32848  20352817.818    20352827.121
  22944606.244   -11334852.74449  -8817476.49246  22944605.850    22944618.472
 02  3  7  2  3 30.0000000  0 10G23G26G18G 6G21G29G17G22G15G 3
  22848443.374   -12873310.48849  -9646740.39246  22848442.752    22848453.674
  22725826.684   -11261404.34849  -8754548.29546  22725826.678    22725837.529
  20390897.814   -27981223.68649 -21421104.57148  20390897.336    20390905.076
  23250727.516   -11356301.13349  -8824247.39146  23250727.166    23250741.192
  21881034.023   -17487130.65849 -13592029.89347  21881033.536    21881044.268
  21684861.035   -18356669.09249 -13664586.21947  21684860.894    21684871.833
  20605600.275   -22739640.84949 -16812043.10847  20605599.660    20605609.157
  24501092.367    -2770540.70349  -2115567.29145  24501091.348    24501109.333
  20351120.557   -27409670.95849 -20128399.34948  20351119.783    20351129.083
  22929837.512   -11412462.62549  -8877951.56746  22929837.134    22929849.637
 02  3  7  2  4  0.0000000  0 10G23G26G18G 6G21G29G17G22G15G 3
  22862495.315   -12799466.88849  -9589199.91046  22862494.705    22862505.621
  22740682.663   -11183335.61249  -8693715.50146  22740682.663    22740693.532
  20392657.259   -27971977.74049 -21413899.91748  20392656.768    20392664.501
  23270915.658   -11250212.66049  -8741581.18546  23270915.260    23270929.259
  21872949.755   -17529613.56949 -13625133.33647  21872949.193    21872959.924
  21669325.750   -18438306.67049 -13728199.72847  21669325.628    21669336.551
  20607502.728   -22729643.08349 -16804252.61047  20607502.123    20607511.630
  24513224.936    -2706784.06549  -2065886.94545  24513223.958    24513241.933
  20349474.874   -27418318.94549 -20135137.98948  20349474.102    20349483.376
  22915137.992   -11489708.93549  -8938143.33246  22915137.601    22915149.988
 02  3  7  2  4 30.0000000  0 10G23G26G18G 6G21G29G17G22G15G 3
  22876558.330   -12725565.15649  -9531614.13746  22876557.709    22876568.625
  22755626.937   -11104802.99349  -8632521.25546  22755626.887    22755637.743
  20394483.763   -27962379.10049 -21406420.43348  20394483.293    20394491.024
  23291138.825   -11143939.29749  -8658770.89146  23291138.600    23291152.522
  21864914.099   -17571840.96849 -13658037.68247  21864913.506    21864924.218
  21653858.605   -18519586.23149 -13791534.27047  21653858.486    21653869.350
  20609456.405   -22719376.18249 -16796252.39847  20609455.821    20609465.309
  24525393.942    -2642836.56349  -2016057.85145  24525392.955    24525410.605
  20347882.157   -27426688.51249 -20141659.68048  20347881.385    20347890.639
  22900508.469   -11566586.97149  -8998048.12146  22900508.058    22900520.400
 02  3  7  2  5  0.0000000  0 11G23G26G18G14G 6G21G29G17G22G15G 3
  22890630.820   -12651613.61249  -9473989.56046  22890630.247    22890641.152
  22770657.644   -11025816.08049  -8570972.98346  22770657.641    22770668.404
  20396375.843   -27952436.06449 -21398672.58748  20396375.363    20396383.103
  24653315.846    -3802707.85849  -2624838.20645  24653314.886    24653334.581
  23311395.532   -11037490.32949  -8575823.77446  23311395.216    23311409.203
  21856925.554   -17613820.32349 -13690748.73647  21856925.026    21856935.707
  21638458.702   -18600512.57849 -13854593.57547  21638458.567    21638469.411
  20611460.168   -22708846.16449 -16788047.16047  20611459.574    20611469.076
  24537597.363    -2578708.13249  -1966087.77745  24537596.274    24537614.141
  20346341.188   -27434786.12849 -20147969.46448  20346340.412    20346349.649
  22885948.160   -11643101.40049  -9057669.56946  22885947.808    22885960.054
 02  3  7  2  5 30.0000000  0 11G23G26G18G14G 6G21G29G17G22G15G 3
  22904714.054   -12577605.28749  -9416320.73346  22904713.567    22904724.415
  22785775.806   -10946369.30849  -8509066.37746  22785775.835    22785786.602
  20398334.794   -27942141.56749 -21390650.87248  20398334.307    20398342.049
  24631553.791    -3917065.48749  -2713947.52245  24631552.972    24631572.429
  23331686.664   -10930860.09349  -8492735.40746  23331686.399    23331700.412
  21848985.712   -17655543.79249 -13723260.40547  21848985.233    21848995.839
  21623128.102   -18681074.54849 -13917368.95747  21623127.980    21623138.775
  20613515.829   -22698043.70849 -16779629.62047  20613515.220    20613524.682
  24549836.140    -2514393.26949  -1915972.41545  24549835.133    24549852.981
  20344853.825   -27442602.17849 -20154059.84248  20344853.051    20344862.273
  22871459.107   -11719241.07449  -9116999.00646  22871458.729    22871470.992
 02  3  7  2  6  0.0000000  0 11G23G26G18G14G 6G21G29G17G22G15G 3
  22918807.835   -12503542.07749  -9358609.15246  22918807.370    22918818.207
  22800980.766   -10866466.11449  -8446804.13746  22800980.879    22800991.762
  20400360.273   -27931497.52749 -21382356.78648  20400359.795    20400367.511
  24609795.037    -4031405.72249  -2803043.24145  24609794.115    24609813.656
  23352011.759   -10824051.66549  -8409508.19446  23352011.459    23352025.471
  21841094.454   -17697012.61349 -13755573.64947  21841093.896    21841104.469
  21607867.133   -18761270.72949 -13979859.30247  21607867.035    21607877.781
  20615623.321   -22686968.68849 -16770999.70447  20615622.701    20615632.162
  24562109.707    -2449895.51949  -1865714.58845  24562108.765    24562126.685
  20343419.990   -27450136.71849 -20159930.86048  20343419.224    20343428.446
  22857041.721   -11795004.72149  -9176035.44546  22857041.350    22857053.436
 02  3  7  2  6 30.0000000  0 11G23G26G18G14G 6G21G29G17G22G15G 3
  22932911.538   -12429426.60349  -9300856.81946  22932911.046    22932921.880
  22816271.928   -10786110.55649  -8384189.39446  22816272.023    22816282.874
  20402451.818   -27920506.36549 -21373792.21248  20402451.337    20402459.032
  24588039.966    -4145727.54349  -2892124.61645  24588039.086    24588058.476
  23372369.982   -10717068.67549  -8326144.95745  23372369.775    23372383.789
  21833251.310   -17738227.90749 -13787689.33947  21833250.795    21833261.324
  21592676.050   -18841099.66249 -14042063.48647  21592675.922    21592686.648
  20617782.600   -22675621.49149 -16762157.69547  20617781.977    20617791.418
  24574417.281    -2385218.99449  -1815317.45245  24574416.366    24574434.437
  20342039.726   -27457389.78649 -20165582.52848  20342038.970    20342048.199
  22842696.089   -11870391.12849  -9234777.89446  22842695.681    22842707.777
 02  3  7  2  7  0.0000000  0 11G23G26G18G14G 6G21G29G17G22G15G 3
  22947025.134   -12355259.26049  -9243064.09846  22947024.615    22947035.448
  22831648.758   -10705304.39249  -8321223.54046  22831648.848    22831659.781
  20404609.328   -27909168.48649 -21364957.47548  20404608.853    20404616.538
  24566288.639    -4260027.28949  -2981188.79745  24566288.093    24566307.444
  23392761.162   -10609912.64549  -8242646.89045  23392761.018    23392775.088
  21825456.417   -17779189.60049 -13819607.41947  21825455.952    21825466.451
  21577555.431   -18920558.30449 -14103979.14247  21577555.320    21577565.992
  20619994.023   -22664000.16349 -16753102.08447  20619993.396    20620002.862
  24586758.560    -2320365.65249  -1764782.54445  24586757.591    24586775.774
  20340713.377   -27464359.53549 -20171013.45148  20340712.618    20340721.849
  22828422.748   -11945397.11749  -9293223.95446  22828422.353    22828434.434
 02  3  7  2  7 30.0000000  0 11G23G26G18G14G 6G21G29G17G22G15G 3
  22961148.163   -12281042.14849  -9185232.56846  22961147.688    22961158.484
  22847110.734   -10624051.23449  -8257909.36946  22847110.824    22847121.740
  20406832.449   -27897485.72749 -21355853.99248  20406831.964    20406839.650
  24544542.045    -4374303.31949  -3070234.51045  24544541.668    24544560.781
  23413184.675   -10502586.88849  -8159016.55145  23413184.470    23413198.588
  21817709.660   -17819898.69749 -13851328.66647  21817709.144    21817719.634
  21562505.603   -18999645.03849 -14165604.98347  21562505.469    21562516.094
  20622257.631   -22652104.63149 -16743832.78947  20622257.029    20622266.458
  24599132.841    -2255338.95249  -1714112.53945  24599131.935    24599150.141
  20339440.949   -27471045.88049 -20176223.53548  20339440.189    20339449.404
  22814222.212   -12020020.74849  -9351372.03946  22814221.843    22814233.851
 02  3  7  2  8  0.0000000  0 11G23G26G18G14G 6G21G29G17G22G15G 3
  22975280.479   -12206776.79549  -9127363.45246  22975279.925    22975290.800
  22862657.077   -10542354.34549  -8194249.41746  22862657.231    22862668.041
  20409120.878   -27885459.82749 -21346483.12748  20409120.390    20409128.074
  24522800.861    -4488553.35549  -3159260.00645  24522800.240    24522819.377
  23433639.941   -10395094.03649  -8075256.02045  23433639.749    23433653.956
  21810010.800   -17860355.97749 -13882853.69047  21810010.314    21810020.789
  21547526.976   -19078357.63449 -14226939.30547  21547526.848    21547537.428
  20624573.516   -22639934.49449 -16734349.51947  20624572.895    20624582.342
  24611539.490    -2190142.29449  -1663310.09945  24611538.456    24611556.801
  20338222.586   -27477448.12849 -20181212.24848  20338221.832    20338231.043
  22800094.780   -12094260.13949  -9409220.71746  22800094.364    22800106.377
 02  3  7  2  8 30.0000000  0 11G23G26G18G14G 6G21G29G17G22G15G 3
  22989421.625   -12132464.44749  -9069457.74246  22989421.105    22989431.918
  22878287.389   -10460216.42749  -8130245.83446  22878287.452    22878298.306
  20411474.290   -27873092.39149 -21336846.12048  20411473.801    20411481.498
  24501064.668    -4602774.88449  -3248263.32245  24501064.178    24501083.353
  23454126.418   -10287436.69149  -7991367.32745  23454126.366    23454140.662
  21802359.668   -17900562.19949 -13914183.08747  21802359.191    21802369.656
  21532619.968   -19156693.97149 -14287980.43447  21532619.788    21532630.322
  20626941.828   -22627488.75949 -16724651.50647  20626941.216    20626950.648
  24623977.956    -2124778.55749  -1612377.45345  24623977.015    24623995.170
  20337058.411   -27483565.65049 -20185979.10148  20337057.648    20337066.867
  22786040.865   -12168113.12649  -9466768.32146  22786040.502    22786052.420
 02  3  7  2  9  0.0000000  0 11G23G26G18G14G 6G21G29G17G22G15G 3
  23003571.523   -12058106.36449  -9011516.36846  23003570.959    23003581.836
  22894001.027   -10377640.22649  -8065900.71246  22894001.144    22894011.974
  20413892.493   -27860384.38749 -21326943.74448  20413892.027    20413899.720
  24479334.452    -4716965.48549  -3337242.58445  24479334.140    24479353.179
  23474643.922   -10179617.32449  -7907352.37145  23474643.832    23474658.142
  21794756.406   -17940517.37049 -13945316.86747  21794755.885    21794766.334
  21517785.018   -19234651.59449 -14348726.46347  21517784.818    21517795.277
  20629362.719   -22614766.66449 -16714738.14247  20629362.110    20629371.556
  24636447.580    -2059250.58949  -1561316.81345  24636446.653    24636464.952
  20335948.589   -27489397.44349 -20190523.29848  20335947.836    20335957.055
  22772061.028   -12241577.17549  -9524012.84446  22772060.661    22772072.474
 02  3  7  2  9 30.0000000  0 11G23G26G18G14G 6G21G29G17G22G15G 3
  23017729.698   -11983704.43449  -8953540.86046  23017729.117    23017740.017
  22909797.438   -10294629.42049  -8001216.95446  22909797.628    22909808.463
  20416375.158   -27847337.70549 -21316777.45748  20416374.688    20416382.393
  24457610.907    -4831123.07949  -3426196.16445  24457610.340    24457629.225
  23495191.695   -10071638.84149  -7823213.44245  23495191.547    23495205.881
  21787200.530   -17980223.24149 -13976256.39147  21787200.006    21787210.412
  21503022.449   -19312228.84949 -14409176.11047  21503022.238    21503032.650
  20631836.257   -22601767.88649 -16704609.19647  20631835.658    20631845.101
  24648947.913    -1993561.88449  -1510130.94845  24648946.899    24648965.213
  20334893.230   -27494943.18749 -20194844.59848  20334892.487    20334901.677
  22758155.416   -12314650.64249  -9580953.02646  22758155.057    22758166.858
 02  3  7  2 10  0.0000000  0 11G23G26G18G14G 6G21G29G17G22G15G 3
  23031895.955   -11909259.99149  -8895532.18246  23031895.401    23031906.310
  22925676.118   -10211186.53849  -7936196.52746  22925676.244    22925687.064
  20418922.004   -27833953.65349 -21306348.29248  20418921.545    20418929.230
  24435893.936    -4945245.08849  -3515122.02545  24435893.224    24435912.025
  23515769.243    -9963503.73449  -7738952.46745  23515769.072    23515783.449
  21779692.035   -18019679.90549 -14007001.72247  21779691.564    21779701.948
  21488332.728   -19389423.38649 -14469327.53047  21488332.467    21488342.838
  20634362.659   -22588491.38349 -16694263.82547  20634362.058    20634371.482
  24661478.170    -1927715.27349  -1458822.05845  24661477.204    24661495.475
  20333892.495   -27500201.94449 -20198942.28148  20333891.740    20333900.894
  22744324.678   -12387331.09749  -9637586.96546  22744324.312    22744335.962
 02  3  7  2 10 30.0000000  0 11G23G26G18G14G 6G21G29G17G22G15G 3
  23046070.188   -11834773.63049  -8837490.85146  23046069.618    23046080.605
  22941636.613   -10127313.73649  -7870841.09046  22941636.715    22941647.567
  20421532.966   -27820232.82449 -21295656.69748  20421532.507    20421540.181
  24414184.219    -5059328.22649  -3604017.62445  24414183.713    24414202.316
  23536376.229    -9855213.80449  -7654570.86045  23536376.096    23536390.447
  21772231.061   -18058887.14849 -14037552.70547  21772230.569    21772240.939
  21473716.332   -19466232.27949 -14529178.45247  21473716.106    21473726.440
  20636942.233   -22574935.73649 -16683700.95047  20636941.613    20636951.012
  24674038.140    -1861713.00249  -1407391.83045  24674037.159    24674055.378
  20332946.695   -27505172.03849 -20202815.03748  20332945.935    20332955.060
  22730569.260   -12459615.69249  -9693912.42446  22730568.885    22730580.511
 02  3  7  2 11  0.0000000  0 11G23G26G18G14G 6G21G29G17G22G15G 3
  23060252.307   -11760246.19149  -8779417.49346  23060251.741    23060262.704
  22957678.452   -10043013.74549  -7805152.77846  22957678.420    22957689.269
  20424207.810   -27806176.17549 -21284703.42348  20424207.346    20424215.002
  24392482.641    -5173369.70249  -3692880.76845  24392481.947    24392500.480
  23557012.415    -9746771.15049  -7570070.25945  23557012.190    23557026.516
  21764817.543   -18097845.11449 -14067909.44247  21764817.041    21764827.344
  21459173.854   -19542652.82549 -14588726.76747  21459173.624    21459183.941
  20639575.086   -22561099.74849 -16672919.62647  20639574.510    20639583.845
  24686627.132    -1795557.79149  -1355842.40645  24686626.084    24686644.496
  20332056.020   -27509852.28149 -20206461.91348  20332055.261    20332064.365
  22716889.669   -12531501.58349  -9749927.22646  22716889.265    22716900.926
 02  3  7  2 11 30.0000000  0 11G23G26G18G14G 6G21G29G17G22G15G 3
  23074441.611   -11685680.67949  -8721314.48946  23074441.047    23074452.017
  22973800.782    -9958291.10749  -7739135.12446  22973800.618    22973811.450
  20426946.061   -27791786.68049 -21273490.79348  20426945.590    20426953.205
  24370789.143    -5287368.71249  -3781710.82045  24370788.585    24370806.734
  23577676.708    -9638180.19749  -7485454.11645  23577676.394    23577690.870
  21757451.131   -18136555.58549 -14098073.33647  21757450.591    21757460.866
  21444705.383   -19618684.54349 -14647972.10247  21444705.140    21444715.425
  20642261.193   -22546984.28249 -16661920.52647  20642260.580    20642269.908
  24699244.380    -1729253.94249  -1304177.20345  24699243.320    24699261.855
  20331220.392   -27514243.42349 -20209883.52048  20331219.630    20331228.735
  22703286.081   -12602988.19049  -9805630.91346  22703285.662    22703297.266
 02  3  7  2 12  0.0000000  0 11G23G26G18G14G 6G21G29G17G22G15G 3
  23088638.279   -11611076.63749  -8663181.47646  23088637.718    23088648.650
  22990003.162    -9873146.71649  -7672788.86746  22990002.983    22990013.908
  20429747.707   -27777063.84149 -21262018.41748  20429747.230    20429754.814
  24349104.556    -5401320.52749  -3870504.09745  24349103.937    24349121.976
  23598369.129    -9529441.47149  -7400722.78545  23598368.759    23598383.285
  21750131.953   -18175017.90449 -14128043.86347  21750131.388    21750141.611
  21430311.662   -19694323.29449 -14706911.22647  21430311.424    21430321.674
  20645000.965   -22532586.69149 -16650701.58047  20645000.344    20645009.612
  24711889.749    -1662802.74849  -1252397.20945  24711888.655    24711907.245
  20330440.229   -27518342.95549 -20213077.90748  20330439.470    20330448.554
  22689759.103   -12674071.70949  -9861020.48646  22689758.757    22689770.332
 02  3  7  2 12 30.0000000  0 11G23G26G18G14G 6G21G29G17G22G15G 3
  23102841.963   -11536435.72049  -8605019.71146  23102841.426    23102852.361
  23006284.950    -9787584.31549  -7606116.85346  23006284.930    23006295.778
  20432612.407   -27762009.71949 -21250287.89948  20432611.917    20432619.481
  24327429.244    -5515223.49949  -3959259.29045  24327428.642    24327446.563
  23619089.003    -9420558.09049  -7315878.73645  23619088.705    23619103.271
  21742859.755   -18213232.97849 -14157821.73047  21742859.232    21742869.419
  21415993.087   -19769567.42049 -14765542.85847  21415992.847    21416003.033
  20647794.442   -22517906.64749 -16639262.55247  20647793.840    20647803.087
  24724562.366    -1596207.72749  -1200505.11545  24724561.322    24724580.006
  20329715.635   -27522150.54849 -20216044.81848  20329714.881    20329723.937
  22676309.273   -12744750.43349  -9916094.64646  22676308.908    22676320.417
 02  3  7  2 13  0.0000000  0 11G23G26G18G14G 6G21G29G17G22G15G 3
  23117052.493   -11461758.56749  -8546829.70446  23117051.988    23117062.953
  23022646.148    -9701606.20949  -7539120.90046  23022646.084    23022656.829
  20435540.023   -27746624.94649 -21238299.72648  20435539.540    20435547.077
  24305763.861    -5629074.41649  -4047973.92245  24305763.370    24305781.097
  23639836.002    -9311532.11349  -7230923.57545  23639835.773    23639850.366
  21735634.620   -18251200.67249 -14187406.83547  21735634.104    21735644.298
  21401750.061   -19844414.30349 -14823864.94647  21401749.837    21401759.987
  20650641.922   -22502942.90049 -16627602.46347  20650641.279    20650650.509
  24737261.984    -1529471.23149  -1148502.80845  24737260.951    24737279.586
  20329046.924   -27525664.48949 -20218782.90448  20329046.174    20329055.198
  22662937.008   -12815021.30449  -9970851.01146  22662936.646    22662948.158
 02  3  7  2 13 30.0000000  0 11G23G26G18G14G 6G21G29G17G22G15G 3
  23131269.531   -11387047.72849  -8488613.46646  23131268.975    23131279.967
  23039085.452    -9615216.51849  -7471804.24446  23039085.493    23039096.194
  20438530.024   -27730912.28949 -21226056.05848  20438529.530    20438537.055
  24284108.649    -5742872.15349  -4136647.06945  24284108.063    24284125.637
  23660609.536    -9202367.17149  -7145860.12945  23660609.291    23660623.891
  21728456.270   -18288922.80849 -14216800.60147  21728455.733    21728465.912
  21387582.816   -19918863.04249 -14881876.79647  21387582.615    21387592.703
  20653543.303   -22487695.80749 -16615721.57247  20653542.700    20653551.924
  24749987.710    -1462597.39049  -1096393.48045  24749986.751    24750005.515
  20328433.982   -27528885.27649 -20221292.55148  20328433.229    20328442.236
  22649642.553   -12884883.54249 -10025288.96146  22649642.199    22649653.645
 02  3  7  2 14  0.0000000  0 11G23G26G18G14G 6G21G29G17G22G15G 3
  23145492.840   -11312304.00149  -8430371.59746  23145492.219    23145503.244
  23055602.749    -9528417.57849  -7404168.74046  23055602.698    23055613.596
  20441582.256   -27714872.57049 -21213557.53648  20441581.777    20441589.280
  24262464.155    -5856613.52849  -4225276.29145  24262463.606    24262481.050
  23681409.248    -9093065.16349  -7060689.88045  23681408.911    23681423.553
  21721324.693   -18326399.11849 -14246002.81747  21721324.140    21721334.269
  21373491.867   -19992910.64149 -14939576.06347  21373491.700    21373501.738
  20656498.894   -22472163.95149 -16603618.79247  20656498.284    20656507.492
  24762739.211    -1395588.67749  -1044179.07345  24762738.194    24762757.134
  20327877.126   -27531811.55849 -20223572.71548  20327876.364    20327885.351
  22636426.377   -12954334.43149 -10079406.36946  22636425.969    22636437.424
 02  3  7  2 14 30.0000000  0 11G23G26G18G14G 6G21G29G17G22G15G 3
  23159722.292   -11237527.73949  -8372104.35346  23159721.748    23159732.655
  23072197.389    -9441211.77549  -7336216.16246  23072197.360    23072208.213
  20444696.594   -27698506.48249 -21200804.70348  20444696.121    20444703.608
  24240830.786    -5970295.25549  -4313859.00045  24240830.343    24240847.723
  23702234.403    -8983627.87549  -6975414.22545  23702234.244    23702248.925
  21714239.966   -18363629.55049 -14275013.44347  21714239.375    21714249.476
  21359477.754   -20066554.50049 -14996960.72847  21359477.572    21359487.586
  20659508.966   -22456345.76449 -16591292.89747  20659508.350    20659517.567
  24775515.858    -1328447.12149   -991861.14645  24775514.907    24775533.974
  20327376.536   -27534441.94649 -20225622.33148  20327375.781    20327384.754
  22623289.022   -13023370.94449 -10133200.90546  22623288.634    22623300.042
 02  3  7  2 15  0.0000000  0 11G23G26G18G14G 6G21G29G17G22G15G 3
  23173957.787   -11162719.97849  -8313812.60346  23173957.223    23173968.143
  23088869.152    -9353601.85049  -7267948.67146  23088869.069    23088879.826
  20447872.832   -27681815.05449 -21187798.36548  20447872.363    20447879.828
  24219209.464    -6083914.72749  -4402393.18645  24219208.921    24219226.220
  23723085.161    -8874057.82349  -6890035.10845  23723084.869    23723099.568
  21707201.797   -18400615.02149 -14303833.18847  21707201.187    21707211.251
  21345540.945   -20139792.12049 -15054028.86047  21345540.820    21345550.771
  20662573.664   -22440240.40049 -16578743.24247  20662573.038    20662582.263
  24788317.451    -1261175.59849   -939441.96645  24788316.555    24788335.462
  20326932.476   -27536775.25949 -20227440.45548  20326931.708    20326940.678
  22610230.899   -13091990.63649 -10186670.65346  22610230.523    22610241.992
 02  3  7  2 15 30.0000000  0 11G23G26G18G14G 6G21G29G17G22G15G 3
  23188198.776   -11087882.90349  -8255497.99046  23188198.235    23188209.154
  23105616.884    -9265591.56349  -7199369.24046  23105616.794    23105627.684
  20451110.525   -27664800.71949 -21174540.40648  20451110.041    20451117.502
  24197600.175    -6197470.18849  -4490877.49145  24197599.701    24197616.918
  23743960.415    -8764358.34049  -6804555.12645  23743960.099    23743974.799
  21700210.005   -18437356.42449 -14332462.75147  21700209.438    21700219.451
  21331681.718   -20212622.35049 -15110779.53547  21331681.584    21331691.490
  20665693.008   -22423847.88449 -16565969.82047  20665692.399    20665701.628
  24801142.901    -1193777.86249   -886924.41545  24801141.977    24801161.018
  20326544.984   -27538811.37449 -20229026.98848  20326544.226    20326553.202
  22597252.423   -13160192.38749 -10239814.73446  22597252.058    22597263.472
 02  3  7  2 16  0.0000000  0 10G23G26G18G14G 6G21G29G17G15G 3
  23202446.414   -11013011.28149  -8197156.45146  23202445.871    23202456.740
  23122441.487    -9177177.50849  -7130475.15146  23122441.497    23122452.359
  20454410.686   -27647458.00949 -21161026.56648  20454410.217    20454417.670
  24176004.872    -6310952.80149  -4579305.01945  24176004.352    24176021.486
  23764860.956    -8654525.64149  -6718971.35045  23764860.708    23764875.418
  21693265.866   -18473848.09049 -14360897.71947  21693265.255    21693275.216
  21317901.658   -20285036.61049 -15167206.07947  21317901.524    21317911.374
  20668868.432   -22407160.78249 -16552966.84547  20668867.811    20668877.036
  20326215.437   -27540542.95949 -20230376.21448  20326214.674    20326223.650
  22584355.158   -13227967.46749 -10292626.34346  22584354.797    22584366.156
 02  3  7  2 16 30.0000000  0 10G23G26G18G14G 6G21G29G17G15G 3
  23216698.939   -10938114.03849  -8138794.96046  23216698.374    23216709.184
  23139340.969    -9088370.54149  -7061274.91646  23139340.927    23139351.775
  20457771.577   -27629796.21549 -21147264.09248  20457771.120    20457778.546
  24154422.203    -6424367.70749  -4667679.75645  24154421.644    24154438.822
  23785785.053    -8544569.81649  -6633291.64145  23785784.744    23785799.492
  21686367.517   -18510098.89949 -14389145.01047  21686366.891    21686376.802
  21304199.655   -20357040.48749 -15223312.84747  21304199.500    21304209.321
  20672098.560   -22390186.23949 -16539739.90347  20672097.944    20672107.161
  20325942.453   -27541977.16249 -20231493.71748  20325941.683    20325950.663
  22571537.966   -13295321.64549 -10345109.98346  22571537.610    22571548.969
 02  3  7  2 17  0.0000000  0 10G23G26G18G14G 6G21G29G17G15G 3
  23230956.054   -10863191.95549  -8080414.11346  23230955.534    23230966.365
  23156314.642    -8999173.04049  -6991770.37446  23156314.607    23156325.472
  20461193.017   -27611816.40649 -21133253.81548  20461192.531    20461199.948
  24132853.135    -6537711.76849  -4755999.30145  24132852.645    24132869.581
  23806731.754    -8434493.21149  -6547517.81545  23806731.762    23806746.510
  21679515.114   -18546107.92049 -14417203.89647  21679514.515    21679524.389
  21290576.200   -20428631.66849 -15279098.03747  21290576.031    21290585.820
  20675383.605   -22372923.02949 -16526288.02147  20675382.990    20675392.178
  20325726.337   -27543112.65149 -20232378.47448  20325725.573    20325734.544
  22558801.336   -13362252.32449 -10397263.64646  22558801.017    22558812.390
 02  3  7  2 17 30.0000000  0 10G23G26G18G14G 6G21G29G17G15G 3
  23245217.935   -10788245.66849  -8022014.39146  23245217.371    23245228.231
  23173362.248    -8909587.44149  -6921963.39846  23173362.274    23173373.089
  20464674.765   -27593519.55449 -21118996.49448  20464674.261    20464681.686
  24111298.183    -6650982.19749  -4844261.44045  24111297.627    24111314.458
  23827701.294    -8324297.89749  -6461651.50345  23827701.236    23827716.133
  21672708.757   -18581875.42249 -14445074.58447  21672708.137    21672717.986
  21277031.793   -20499807.43749 -15334559.52447  21277031.588    21277041.358
  20678723.868   -22355369.83449 -16512610.17447  20678723.248    20678732.399
  20325567.320   -27543948.08849 -20233029.41648  20325566.553    20325575.513
  22546145.895   -13428756.94349 -10449085.31946  22546145.548    22546156.771
 02  3  7  2 18  0.0000000  0 10G23G26G18G14G 6G21G29G17G15G 3
  23259484.124   -10713276.35149  -7963596.73646  23259483.544    23259494.380
  23190483.063    -8819616.84349  -6851856.43546  23190483.052    23190493.857
  20468216.611   -27574906.90249 -21104493.09348  20468216.119    20468223.541
  24089757.700    -6764176.38749  -4932464.18045  24089757.169    24089773.756
  23848693.089    -8213986.44249  -6375694.68145  23848692.893    23848707.879
  21665948.059   -18617402.45049 -14472757.88547  21665947.487    21665957.306
  21263566.804   -20570565.81049 -15389695.77147  21263566.600    21263576.331
  20682119.436   -22337525.83949 -16498705.72747  20682118.847    20682127.990
  20325465.547   -27544482.60149 -20233445.88448  20325464.794    20325473.740
  22533571.866   -13494833.12849 -10500573.14246  22533571.573    22533582.770
 02  3  7  2 18 30.0000000  0 10G23G26G18G14G 6G21G29G17G15G 3
  23273754.321   -10638285.72049  -7905162.47146  23273753.786    23273764.622
  23207676.416    -8729264.91349  -6781452.31345  23207676.431    23207687.213
  20471818.159   -27555980.44349 -21089745.16848  20471817.676    20471825.100
  24068231.803    -6877292.53249  -5020606.08345  24068231.322    24068248.091
  23869706.392    -8103561.81449  -6289649.69545  23869706.166    23869721.114
  21659232.990   -18652690.02749 -14500254.61047  21659232.396    21659242.248
  21250181.491   -20640905.38049 -15444505.68347  21250181.336    21250191.016
  20685570.334   -22319390.91649 -16484574.58347  20685569.758    20685578.885
  20325421.120   -27544715.90949 -20233627.64848  20325420.364    20325429.281
  22521079.703   -13560479.59949 -10551726.13646  22521079.361    22521090.631
 02  3  7  2 19  0.0000000  0 10G23G26G18G14G 6G21G29G17G15G 3
  23288028.875   -10563272.67349  -7846710.74346  23288028.263    23288039.113
  23224942.232    -8638532.43549  -6710751.66545  23224942.187    23224952.946
  20475479.565   -27536739.43049 -21074752.13048  20475479.091    20475486.498
  24046721.999    -6990325.80249  -5108683.42145  24046721.392    24046738.133
  23890741.042    -7993024.41649  -6203516.84445  23890740.755    23890755.843
  21652563.755   -18687736.76449 -14527563.67247  21652563.143    21652572.938
  21236876.685   -20710821.88249 -15498985.93347  21236876.547    21236886.177
  20689077.259   -22300961.92649 -16470214.29847  20689076.680    20689085.787
  20325434.589   -27544645.10649 -20233572.44148  20325433.835    20325442.722
  22508670.146   -13625691.92049 -10602540.83046  22508669.762    22508680.964
 02  3  7  2 19 30.0000000  0 10G23G26G18G14G 6G21G29G17G15G 3
  23302307.537   -10488237.69949  -7788241.91446  23302306.939    23302317.805
  23242280.052    -8547421.46449  -6639756.10945  23242279.886    23242290.800
  20479200.739   -27517184.35149 -21059514.36348  20479200.265    20479207.663
  24025228.542    -7103272.86349  -5196693.58545  24025227.962    24025244.585
  23911796.692    -7882375.98849  -6117297.50445  23911796.597    23911811.710
  21645940.434   -18722542.23549 -14554684.73247  21645939.828    21645949.613
  21223652.973   -20780312.43649 -15553134.27947  21223652.821    21223662.419
  20692640.394   -22282237.51149 -16455623.81247  20692639.784    20692648.894
  20325506.241   -27544268.46549 -20233278.90548  20325505.485    20325514.342
  22496343.798   -13690467.09949 -10653014.89346  22496343.406    22496354.490
 02  3  7  2 20  0.0000000  0 10G23G26G18G14G 6G21G29G17G15G 3
  23316589.782   -10413183.99249  -7729758.51346  23316589.151    23316600.062
  23259688.805    -8455937.31449  -6568469.75545  23259688.782    23259699.714
  20482980.997   -27497318.88849 -21044034.73948  20482980.508    20482987.894
  24003751.397    -7216133.24849  -5284636.22445  24003750.900    24003767.463
  23932872.767    -7771621.03549  -6030995.12445  23932872.616    23932887.776
  21639362.503   -18757109.19149 -14581619.93547  21639361.872    21639371.624
  21210510.341   -20849377.12349 -15606950.77947  21210510.140    21210519.712
  20696259.515   -22263218.82149 -16440804.02147  20696258.888    20696268.002
  20325635.838   -27543587.16449 -20232747.97248  20325635.106    20325643.962
  22484100.611   -13754804.93849 -10703148.17946  22484100.271    22484111.320
 02  3  7  2 20 30.0000000  0 10G23G26G18G14G 6G21G29G17G15G 3
  23330875.549   -10338111.61049  -7671260.54446  23330874.991    23330885.840
  23277168.184    -8364081.82249  -6496894.03845  23277168.272    23277179.211
  20486820.312   -27477143.10849 -21028313.31348  20486819.820    20486827.178
  23982291.714    -7328903.33649  -5372508.50145  23982291.126    23982307.537
  23953968.990    -7660761.01849  -5944610.86145  23953968.773    23953983.948
  21632829.950   -18791437.45549 -14608369.14647  21632829.354    21632839.081
  21197449.222   -20918013.02549 -15660433.16047  21197449.032    21197458.594
  20699934.966   -22243903.97749 -16425753.46247  20699934.324    20699943.474
  20325823.788   -27542599.28549 -20231978.14648  20325823.055    20325831.875
  22471941.259   -13818702.63749 -10752938.48946  22471940.879    22471951.859
 02  3  7  2 21  0.0000000  0 11G23G26G18G14G 6G21G29G17G 9G15G 3
  23345164.913   -10263019.89349  -7612747.52346  23345164.409    23345175.294
  23294718.090    -8271856.17549  -6425029.89545  23294718.281    23294729.070
  20490718.681   -27456656.78949 -21012349.91548  20490718.201    20490725.555
  23960849.766    -7441578.83849  -5460307.09345  23960849.310    23960865.581
  23975084.879    -7549796.82449  -5858145.46745  23975084.664    23975099.951
  21626343.236   -18825525.31849 -14634931.04047  21626342.625    21626352.295
  21184470.507   -20986216.13949 -15713578.31247  21184470.317    21184479.849
  20703667.268   -22224290.45049 -16410470.16647  20703666.630    20703675.761
  24461809.710    -4139718.18949  -2986689.99545  24461809.132    24461822.503
  20326070.657   -27541301.98549 -20230967.22848  20326069.915    20326078.710
  22459866.311   -13882156.37349 -10802382.85346  22459865.929    22459876.922
 02  3  7  2 21 30.0000000  0 11G23G26G18G14G 6G21G29G17G 9G15G 3
  23359457.757   -10187910.67749  -7554220.85846  23359457.165    23359468.052
  23312337.873    -8179264.62649  -6352880.63545  23312337.864    23312348.799
  20494675.698   -27435862.39149 -20996146.44948  20494675.202    20494682.565
  23939426.370    -7554158.06649  -5548030.68645  23939425.761    23939441.992
  23996220.080    -7438731.78549  -5771601.45645  23996219.842    23996235.038
  21619901.768   -18859374.84449 -14661307.20747  21619901.184    21619910.855
  21171574.269   -21053985.83349 -15766385.72947  21171574.065    21171583.551
  20707456.349   -22204378.45549 -16394954.28747  20707455.697    20707464.859
  24448535.088    -4209477.17349  -3041047.42945  24448534.282    24448547.747
  20326376.327   -27539695.51549 -20229715.37848  20326375.563    20326384.350
  22447876.096   -13945165.00249 -10851480.37946  22447875.709    22447886.721
 02  3  7  2 22  0.0000000  0 11G23G26G18G14G 6G21G29G17G 9G15G 3
  23373753.061   -10112788.08049  -7495683.74246  23373752.558    23373763.451
  23330026.027    -8086312.76149  -6280450.60445  23330026.059    23330036.975
  20498690.564   -27414763.97349 -20979706.08548  20498690.072    20498697.426
  23918020.952    -7666641.45649  -5635679.62145  23918020.630    23918036.622
  24017373.390    -7327571.45349  -5684983.19745  24017373.028    24017388.349
  21613505.115   -18892989.01449 -14687499.99347  21613504.542    21613514.194
  21158760.349   -21121322.84449 -15818855.99847  21158760.155    21158769.609
  20711301.879   -22184169.96149 -16379207.37047  20711301.264    20711310.389
  24435295.377    -4279051.50849  -3095261.06945  24435294.727    24435308.008
  20326740.464   -27537781.92649 -20228224.22248  20326739.701    20326748.469
  22435970.414   -14007729.12349 -10900231.53446  22435970.011    22435981.015
 02  3  7  2 22 30.0000000  0 11G23G26G18G14G 6G21G29G17G 9G15G 3
  23388051.301   -10037650.29249  -7437134.79446  23388050.839    23388061.631
  23347782.844    -7993000.72549  -6207739.92845  23347782.816    23347793.677
  20502763.584   -27393360.02149 -20963027.64548  20502763.083    20502770.447
  23896635.025    -7779023.46149  -5723249.58745  23896634.725    23896650.497
  24038544.936    -7216315.26349  -5598290.25945  24038544.632    24038559.847
  21607153.666   -18926365.85949 -14713507.84747  21607153.099    21607162.717
  21146029.706   -21188222.27249 -15870985.29347  21146029.519    21146038.939
  20715204.511   -22163661.32449 -16363226.57447  20715203.893    20715213.033
  24422092.142    -4348435.11649  -3149326.12845  24422091.488    24422104.717
  20327163.689   -27535557.40449 -20226490.77848  20327162.938    20327171.706
  22424150.278   -14069843.79849 -10948632.46446  22424149.904    22424160.879
 02  3  7  2 23  0.0000000  0 11G23G26G18G14G 6G21G29G17G 9G15G 3
  23402351.975    -9962499.79049  -7378575.97746  23402351.450    23402362.267
  23365607.018    -7899333.09249  -6134752.19145  23365607.087    23365618.086
  20506894.149   -27371653.49149 -20946113.43548  20506893.663    20506901.032
  23875268.690    -7891303.10249  -5810739.81245  23875268.266    23875283.964
  24059733.977    -7104967.12949  -5511525.66045  24059733.603    24059748.909
  21600846.919   -18959507.37549 -14739332.32447  21600846.375    21600855.982
  21133382.423   -21254683.72649 -15922773.31047  21133382.204    21133391.606
  20719164.156   -22142853.24849 -16347012.44947  20719163.532    20719172.615
  24408925.207    -4417626.35649  -3203241.21145  24408924.704    24408937.809
  20327646.007   -27533022.56449 -20224515.54048  20327645.264    20327654.034
  22412415.736   -14131508.78549 -10996682.98946  22412415.388    22412426.320
 02  3  7  2 23 30.0000000  0 11G23G26G18G14G 6G21G29G17G 9G15G 3
  23416654.909    -9887337.04949  -7320007.56646  23416654.409    23416665.276
  23383498.684    -7805312.22649  -6061489.17745  23383498.600    23383509.735
  20511082.210   -27349644.92749 -20928963.86848  20511081.714    20511089.089
  23853922.438    -8003477.02049  -5898147.69745  23853922.005    23853937.492
  24080939.905    -6993529.10549  -5424691.02745  24080939.812    24080955.030
  21594585.003   -18992413.69849 -14764973.53447  21594584.460    21594594.056
  21120819.026   -21320704.42949 -15974217.88347  21120818.792    21120828.160
  20723181.065   -22121744.34049 -16330563.90847  20723180.431    20723189.509
  24395795.851    -4486621.26149  -3257003.37845  24395795.312    24395808.278
  20328187.681   -27530175.79249 -20222297.23448  20328186.929    20328195.696
  22400767.325   -14192721.09849 -11044380.77746  22400766.952    22400777.842
 02  3  7  2 24  0.0000000  0 11G23G26G18G14G 6G21G29G17G 9G15G 3
  23430960.061    -9812162.54449  -7261430.03446  23430959.614    23430970.503
  23401456.992    -7710940.67149  -5987952.90245  23401456.940    23401468.039
  20515327.507   -27327335.45949 -20911579.83548  20515327.025    20515334.376
  23832596.782    -8115542.29149  -5985470.93545  23832596.298    23832611.674
  24102162.950    -6882003.23249  -5337787.93645  24102162.630    24102177.834
  21588367.839   -19025084.68649 -14790431.37547  21588367.334    21588376.877
  21108339.860   -21386282.27449 -16025317.37447  21108339.651    21108348.989
  20727255.393   -22100333.27249 -16313879.92047  20727254.760    20727263.803
  24382704.442    -4555416.27849  -3310609.67245  24382703.896    24382716.865
  20328788.911   -27527016.02349 -20219835.04348  20328788.173    20328796.946
  22389205.548   -14253478.54849 -11091724.12146  22389205.156    22389216.054
 02  3  7  2 24 30.0000000  0 11G23G26G18G14G 6G21G29G17G 9G15G 3
  23445267.187    -9736977.51449  -7202844.28346  23445266.810    23445277.724
  23419481.477    -7616221.67749  -5914145.90345  23419481.370    23419492.527
  20519629.842   -27304726.51749 -20893962.44448  20519629.346    20519636.694
  23811292.241    -8227496.56549  -6072707.69345  23811291.796    23811307.045
  24123401.958    -6770392.26349  -5250818.54645  24123401.635    24123416.924
  21582195.361   -19057521.01849 -14815706.36947  21582194.828    21582204.365
  21095945.271   -21451415.68949 -16076070.55747  21095945.071    21095954.376
  20731387.331   -22078619.69749 -16296960.21547  20731386.720    20731395.743
  24369651.269    -4624008.53449  -3364057.89944  24369650.628
  20329449.863   -27523542.55749 -20217128.41148  20329449.125    20329457.884
  22377730.721   -14313779.12049 -11138711.46946  22377730.330    22377741.162
 02  3  7  2 25  0.0000000  0 11G23G26G18G14G 6G21G29G17G 9G15G 3
  23459576.291    -9661782.60149  -7144250.85846  23459575.903    23459586.902
  23437571.432    -7521158.00749  -5840070.34645  23437571.328    23437582.522
  20523988.876   -27281819.29749 -20876112.63348  20523988.399    20523995.732
  23790009.392    -8339337.09049  -6159855.83345  23790008.900    23790024.119
  24144656.388    -6658698.33149  -5163784.51045  24144656.502    24144671.810
  21576067.375   -19089723.37649 -14840799.04747  21576066.860    21576076.389
  21083635.705   -21516102.28649 -16126475.57147  21083635.533    21083644.804
  20735577.079   -22056602.35049 -16279803.81147  20735576.459    20735585.437
  24356637.736    -4692394.41849  -3417345.55644  24356630.644
  20330170.758   -27519754.06649 -20214176.30848  20330170.026    20330178.765
  22366343.068   -14373620.63149 -11185341.10246  22366342.723    22366353.531
 02  3  7  2 25 30.0000000  0 11G23G26G18G14G 6G21G29G17G 9G15G 3
  23473887.046    -9586579.17049  -7085650.75246  23473886.646    23473897.621
  23455726.344    -7425752.90849  -5765728.69145  23455726.478    23455737.535
  20528404.444   -27258615.40649 -20858031.64748  20528403.952    20528411.264
  23768748.633    -8451061.28849  -6246913.33245  23768748.268    23768763.338
  24165926.623    -6546924.45549  -5076688.18845  24165926.517    24165941.888
  21569983.812   -19121692.54049 -14865710.01947  21569983.291    21569992.793
  21071411.517   -21580340.43149 -16176531.14147  21071411.346    21071420.584
  20739824.754   -22034280.70549 -16262410.28347  20739824.089    20739833.084
                  -4760571.10048  -3470470.36543
  20330951.694   -27515650.00049 -20210978.29648  20330950.966    20330959.706
  22355043.256   -14433001.34649 -11231611.67246  22355042.896    22355053.582
 02  3  7  2 26  0.0000000  0 11G23G26G18G14G 6G21G29G17G 9G15G 3
  23488199.082    -9511368.87649  -7027045.32946  23488198.599    23488209.703
  23473945.644    -7330009.99149  -5691123.84745  23473945.706    23473956.787
  20532876.025   -27235116.90749 -20839721.10048  20532875.556    20532882.842
  23747510.402    -8562667.19649  -6333878.64745  23747510.132    23747525.041
  24187211.496    -6435073.69749  -4989531.99245  24187211.192    24187226.675
  21563944.364   -19153429.68049 -14890440.18647  21563943.852    21563953.345
  21059272.838   -21644129.06549 -16226236.44747  21059272.669    21059281.894
  20744130.313   -22011654.72549 -16244779.60547  20744129.668    20744138.614
                  -4828536.36849   -828625.39643
  20331792.709   -27511230.26849 -20207534.31048  20331791.973    20331800.711
  22343831.331   -14491920.04749 -11277522.22846  22343830.928    22343841.589
 02  3  7  2 26 30.0000000  0 11G23G26G18G14G 6G21G29G17G 9G15G 3
  23502512.640    -9436151.15549  -6968434.15546  23502512.099    23502523.244
  23492228.973    -7233930.95449  -5616257.05545  23492228.987    23492239.964
  20537403.692   -27211323.61749 -20821180.83748  20537403.232    20537410.524
  23726295.662    -8674150.76349  -6420748.60845  23726295.168    23726309.973
  24208510.469    -6323146.91549  -4902316.54045  24208510.237    24208525.771
  21557949.245   -19184934.02949 -14914988.96147  21557948.743    21557958.226
  21047220.328   -21707464.86149 -16275588.88847  21047220.153    21047229.356
  20748494.182   -21988722.03049 -16226909.94147  20748493.557    20748502.535
                  -4896285.21349   -881416.24443
  20332694.281   -27506492.37249 -20203842.39748  20332693.539    20332702.264
  22332708.005   -14550373.01949 -11323069.86646  22332707.628    22332718.263
 02  3  7  2 27  0.0000000  0 11G23G26G18G14G 6G21G29G17G 9G15G 3
  23516826.793    -9360929.86149  -6909820.13046  23516826.211    23516837.321
  23510575.163    -7137521.37449  -5541132.68445  23510575.188    23510586.089
  20541986.698   -27187239.71149 -20802414.12248  20541986.219    20541993.519
  23705104.047    -8785512.11949  -6507523.35745  23705103.589    23705118.280
  24229823.123    -6211149.30549  -4815045.89845  24229822.863    24229838.571
  21551997.703   -19216209.40749 -14939359.31147  21551997.183    21552006.659
  21035253.819   -21770348.77649 -16324589.21547  21035253.657    21035262.825
  20752916.101   -21965484.76749 -16208802.94647  20752915.456    20752924.396
                  -4963817.44549   -934038.54244                  24304972.382
  20333656.014   -27501438.36149 -20199904.16248  20333655.263    20333663.989
  22321673.205   -14608361.28449 -11368255.40546  22321672.798    22321683.346
 02  3  7  2 27 30.0000000  0 11G23G26G18G14G 6G21G29G17G 9G15G 3
  23531142.170    -9285702.15449  -6851201.15746  23531141.649    23531152.753
  23528984.341    -7040780.63249  -5465750.29145  23528984.323    23528995.205
  20546625.458   -27162862.81449 -20783419.10448  20546624.958    20546632.257
  23683936.986    -8896745.00149  -6594197.96245  23683936.403    23683950.922
  24251149.556    -6099079.65449  -4727719.10545  24251149.138    24251164.898
  21546090.325   -19247252.56749 -14963548.70947  21546089.793    21546099.247
  21023374.346   -21832775.26649 -16373233.11047  21023374.181    21023383.309
  20757396.795   -21941938.32049 -16190455.03747  20757396.164    20757405.147
  24292178.668    -5031125.76049   -986486.49345  24292156.784    24292190.657
  20334678.761   -27496063.74349 -20195716.10948  20334677.996    20334686.704
  22310727.689   -14665879.08649 -11413074.34546  22310727.335    22310737.931
 02  3  7  2 28  0.0000000  0 11G23G26G18G14G 6G21G29G17G 9G15G 3
  23545458.183    -9210470.95649  -6792579.43346  23545457.599    23545468.769
  23547455.458    -6943713.83349  -5390113.81245  23547455.557    23547466.429
  20551319.290   -27138196.30149 -20764198.41648  20551318.798    20551326.108
  23662794.290    -9007849.00449  -6680772.13745  23662793.749    23662808.270
  24272488.571    -5986942.53749  -4640339.78045  24272488.276    24272504.164
  21540226.693   -19278065.64049 -14987558.81947  21540226.172    21540235.611
  21011581.939   -21894744.33949 -16421520.57747  21011581.775    21011590.851
  20761936.100   -21918083.99549 -16171867.22647  20761935.491    20761944.454
  24279413.069    -5098209.12148  -1038759.28045  24279412.854    24279424.945
  20335762.266   -27490369.82649 -20191279.24548  20335761.505    20335770.197
  22299871.879   -14722926.63449 -11457526.85646  22299871.501    22299882.037
 02  3  7  2 28 30.0000000  0 11G23G26G18G14G 6G21G29G17G 9G15G 3
  23559774.900    -9135236.09849  -6733954.85046  23559774.359    23559785.441
  23565988.503    -6846322.76149  -5314224.65545  23565988.446    23565999.184
  20556068.226   -27113240.38049 -20744752.21948  20556067.750    20556075.072
  23641676.891    -9118820.27349  -6767242.84945  23641676.329    23641690.792
  24293840.061    -5874739.44049  -4552909.00745  24293840.024    24293855.934
  21534406.967   -19308648.30449 -15011389.38547  21534406.441    21534415.876
  20999877.081   -21956253.34349 -16469449.54547  20999876.918    20999885.948
  20766534.359   -21893919.89949 -16153038.02247  20766533.728    20766542.707
  24266690.597    -5165063.45249  -1090853.22545  24266689.919    24266703.177
  20336906.944   -27484354.23349 -20186591.71748  20336906.193    20336914.851
  22289106.008   -14779501.00949 -11501610.66046  22289105.654    22289116.171
 02  3  7  2 29  0.0000000  0 11G23G26G18G14G 6G21G29G17G 9G15G 3
  23574091.457    -9060002.19549  -6675331.01346  23574090.848    23574102.103
  23584581.781    -6748614.21549  -5238088.11445  23584581.843    23584592.514
  20560871.258   -27088000.11149 -20725084.45548  20560870.785    20560878.073
  23620584.533    -9229659.93249  -6853611.00145  23620583.991    23620598.395
  24315203.855    -5762476.26549  -4465431.48545  24315203.195    24315219.100
  21528630.224   -19339005.00949 -15035043.88147  21528629.670    21528639.118
  20988259.415   -22017304.07649 -16517021.42747  20988259.261    20988268.249
  20771191.001   -21869448.80349 -16133969.60447  20771190.354    20771199.379
  24254012.520    -5231688.79849  -1142769.06445  24254011.956    24254024.737
  20338112.302   -27478019.91349 -20181655.84848  20338111.548    20338120.191
  22278429.943   -14835603.69149 -11545326.91746  22278429.574    22278440.000
 02  3  7  2 29 30.0000000  0 11G23G26G18G14G 6G21G29G17G 9G15G 3
  23588408.738    -8984764.12049  -6616703.93246  23588408.235    23588419.298
  23603236.080    -6650585.04649  -5161701.73545  23603236.141    23603246.901
  20565729.313   -27062470.88449 -20705191.51648  20565728.812    20565736.101
  23599518.875    -9340359.19749  -6939869.73345  23599518.324    23599532.696
  24336578.762    -5650149.60549  -4377904.46945  24336578.376    24336594.429
  21522897.511   -19369130.23549 -15058517.99647  21522896.959    21522906.394
  20976730.409   -22077888.94549 -16564230.29447  20976730.242    20976739.204
  20775907.330   -21844664.12449 -16114656.83547  20775906.699    20775915.693
  24241378.400    -5298076.45548  -1194499.56645  24241378.635    24241391.377
  20339379.588   -27471360.05649 -20176466.30248  20339378.851    20339387.466
  22267845.091   -14891226.80949 -11588669.48246  22267844.712    22267855.168
 02  3  7  2 30  0.0000000  0 11G23G26G18G14G 6G21G29G17G 9G15G 3
  23602725.655    -8909528.29249  -6558078.59046  23602725.145    23602736.134
  23621949.783    -6552243.92949  -5085072.33945  23621949.634    23621960.629
  20570641.025   -27036659.50549 -20685078.71748  20570640.512    20570647.790
  23578479.320    -9450921.24049  -7026021.53846  23578478.789    23578493.140
  24357964.833    -5537767.36849  -4290334.13745  24357964.231    24357980.321
  21517207.781   -19399029.63649 -15081816.14847  21517207.247    21517216.653
  20965289.381   -22138011.37049 -16611078.81747  20965289.213    20965298.150
  20780682.437   -21819570.47249 -16095103.30647  20780681.803    20780690.825
  24228790.131    -5364228.29949  -1246046.30245  24228790.456    24228803.233
  20340707.984   -27464379.13149 -20171026.57448  20340707.241    20340715.848
  22257350.805   -14946374.09749 -11631641.27747  22257350.447    22257360.892
 02  3  7  2 30 30.0000000  0 11G23G26G18G14G 6G21G29G17G 9G15G 3
  23617042.482    -8834292.72749  -6499453.47446  23617042.061    23617053.029
  23640722.652    -6453591.04049  -5008199.92045  23640722.758    23640733.704
  20575606.716   -27010564.63449 -20664745.03048  20575606.224    20575613.466
  23557466.893    -9561340.61949  -7112062.17246  23557466.366    23557480.649
  24379361.124    -5425329.35049  -4202720.33845  24379360.540    24379376.616
  21511561.311   -19428701.66449 -15104937.12447  21511560.767    21511570.143
  20953937.209   -22197667.18449 -16657563.74747  20953937.031    20953945.920
  20785517.022   -21794164.26549 -16075306.23147  20785516.407    20785525.398
  24216248.283    -5430138.56048  -1297404.90545  24216248.332    24216260.774
  20342098.147   -27457073.65649 -20165333.94348  20342097.389    20342106.000
  22246947.976   -15001041.08149 -11674238.81146  22246947.579    22246957.964
 02  3  7  2 31  0.0000000  0 11G23G26G18G14G 6G21G29G17G 9G15G 3
  23631359.363    -8759057.36049  -6440828.51646  23631358.910    23631369.831
  23659554.614    -6354628.36949  -4931086.16445  23659554.572    23659565.704
  20580626.267   -26984186.49149 -20644190.61148  20580625.779    20580632.998
  23536482.390    -9671613.60849  -7197988.73846  23536481.784    23536496.010
  24400767.872    -5312837.09849  -4115064.29645  24400767.350    24400783.305
  21505958.241   -19458145.73649 -15127880.47047  21505957.695    21505967.080
  20942674.266   -22256853.73549 -16703683.02147  20942674.069    20942682.949
  20790411.446   -21768443.88349 -16055264.34847  20790410.798    20790419.785
  24203751.810    -5495803.38549  -1348572.04845  24203752.190    24203764.514
  20343550.422   -27449441.70249 -20159386.91048  20343549.674    20343558.305
  22236637.036   -15055224.86749 -11716459.83546  22236636.657    22236646.944
 02  3  7  2 31 30.0000000  0 11G23G26G18G14G 6G21G29G17G 9G15G 3
  23645675.488    -8683825.43849  -6382206.22446  23645675.020    23645685.990
  23678444.434    -6255361.41249  -4853735.29245  23678444.492    23678455.585
  20585699.042   -26957528.81749 -20623418.36548  20585698.548    20585705.753
  23515525.500    -9781739.85149  -7283800.95046  23515525.071    23515539.291
  24422183.672    -5200295.34849  -4027369.64945  24422183.514    24422199.573
  21500397.937   -19487365.13449 -15150648.74947  21500397.375    21500406.707
  20931500.602   -22315571.34649 -16749436.88747  20931500.424    20931509.255
  20795365.333   -21742410.81849 -16034978.81247  20795364.738    20795373.697
  24191303.638    -5561221.44358  -1399547.06145  24191303.561    24191316.187
  20345064.526   -27441484.78349 -20153186.67248  20345063.796    20345072.409
  22226418.088   -15108925.69049 -11758304.53447  22226417.701    22226427.878
 02  3  7  2 32  0.0000000  0 11G23G26G18G14G 6G21G29G17G 9G15G 3
  23659991.084    -8608596.50449  -6323586.22246  23659990.629    23660001.419
  23697392.044    -6155791.44449  -4776148.25245  23697392.096    23697403.063
  20590824.971   -26930591.69249 -20602428.36348  20590824.479    20590831.676
  23494597.597    -9891715.67249  -7369495.95545  23494596.999    23494611.176
  24443609.059    -5087704.96349  -3939637.12645  24443608.921    24443625.055
  21494880.590   -19516358.68249 -15173241.04547  21494880.024    21494889.326
  20920416.618   -22373817.33249 -16794823.25147  20920416.467    20920425.262
  20800379.121   -21716063.15649 -16014448.13847  20800378.498    20800387.494
  24178902.497    -5626388.50049  -1450326.24445  24178903.633    24178912.483
  20346640.941   -27433200.60649 -20146731.42648  20346640.184    20346648.784
  22216291.625   -15162140.15249 -11799770.25147  22216291.242    22216301.453
 02  3  7  2 32 30.0000000  0 11G23G26G18G14G 6G21G29G17G 9G15G 3
  23674305.778    -8533372.42549  -6264970.09046  23674305.210    23674316.154
  23716396.398    -6055922.64149  -4698328.38545  23716396.322    23716407.372
  20596003.608   -26903377.54749 -20581222.50648  20596003.124    20596010.311
  23473698.450   -10001539.34649  -7455072.41945  23473697.888    23473712.030
  24465042.914    -4975069.47749  -3851869.42645  24465042.932    24465059.093
  21489405.767   -19545128.69649 -15195659.15347  21489405.215    21489414.506
  20909422.575   -22431590.87749 -16839841.48747  20909422.448    20909431.223
  20805452.766   -21689400.93149 -15993672.35447  20805452.155    20805461.113
  24166550.369    -5691301.80248  -1500908.11945  24166551.115    24166562.031
  20348279.524   -27424589.60449 -20140021.51848  20348278.760    20348287.330
  22206257.821   -15214867.80449 -11840856.63847  22206257.428    22206267.603
 02  3  7  2 33  0.0000000  0 11G23G26G18G14G 6G21G29G17G 9G15G 3
  23688619.472    -8458153.46949  -6206357.85046  23688618.981    23688629.754
  23735457.131    -5955757.62549  -4620277.70145  23735457.105    23735468.043
  20601234.941   -26875886.80649 -20559801.11148  20601234.432    20601241.614
  23452828.899   -10111207.62649  -7540527.78645  23452828.365    23452842.436
  24486485.366    -4862390.74349  -3764068.04245  24486485.229    24486501.272
  21483973.510   -19573674.92849 -15217902.88747  21483972.975    21483982.259
  20898518.903   -22488889.68949 -16884489.79947  20898518.757    20898527.482
  20810586.487   -21662422.93249 -15972650.50747  20810585.871    20810594.826
  24154246.283    -5755958.28549  -1551289.39845  24154246.273    24154258.138
  20349980.607   -27415650.19549 -20133055.70648  20349979.832    20349988.395
  22196317.039   -15267106.23449 -11881561.81547  22196316.690    22196326.846
 02  3  7  2 33 30.0000000  0 11G23G26G18G14G 6G21G29G17G 9G15G 3
  23702931.908    -8382940.75349  -6147750.52646  23702931.493    23702942.268
  23754573.689    -5855299.64849  -4541998.75645  23754573.532    23754584.590
  20606518.494   -26848121.40749 -20538165.70548  20606517.985    20606525.161
  23431989.457   -10220718.50949  -7625860.51745  23431988.833    23432002.740
  24507935.167    -4749671.85949  -3676235.37945  24507934.989    24507951.153
  21478583.757   -19601998.08149 -15239972.80147  21478583.216    21478592.463
  20887705.744   -22545712.79449 -16928767.43347  20887705.613    20887714.292
  20815780.396   -21635128.83249 -15951382.36047  20815779.796    20815788.695
  24141992.403    -5820354.72949  -1601468.48745  24141992.426    24142004.166
  20351744.294   -27406381.83949 -20125833.56948  20351743.521    20351752.064
  22186469.656   -15318854.24849 -11921884.85947  22186469.317    22186479.430
 02  3  7  2 34  0.0000000  0 11G23G26G18G14G 6G21G29G17G 9G15G 3
  23717242.993    -8307734.94649  -6089148.68646  23717242.583    23717253.713
  23773745.282    -5754551.65849  -4463493.85345  23773745.218    23773756.312
  20611854.058   -26820082.69049 -20516317.32548  20611853.561    20611860.732
  23411180.403   -10330069.07649  -7711068.35245  23411179.818    23411193.543
  24529392.450    -4636915.08649  -3588373.20145  24529392.165    24529408.093
  21473236.311   -19630098.93549 -15261869.48747  21473235.748    21473244.983
  20876983.486   -22602058.36549 -16972672.95947  20876983.326    20876991.967
  20821034.599   -21607517.63449 -15929867.11547  20821033.978    20821042.888
  24129788.110    -5884488.27149  -1651442.53445  24129787.967    24129799.870
  20353570.749   -27396783.51449 -20118354.30648  20353569.997    20353578.526
  22176715.981   -15370109.73049 -11961824.10547  22176715.639    22176725.765
 02  3  7  2 34 30.0000000  0 10G23G26G18G14G21G29G17G 9G15G 3
  23731553.397    -8232534.02549  -6030550.48645  23731552.890    23731563.852
  23792972.301    -5653513.92749  -4384763.10845  23792972.207    23792983.066
  20617241.954   -26791768.98949 -20494254.66948  20617241.461    20617248.619
  23390402.818   -10439254.18949  -7796147.25245  23390402.262    23390415.847
  21467931.451   -19657975.52249 -15283591.42747  21467930.941    21467940.161
  20866352.914   -22657921.92949 -17016202.90247  20866352.745    20866361.352
  20826349.780   -21579586.02649 -15908102.20347  20826349.178    20826358.087
  24117634.982    -5948352.62549  -1701206.71745  24117634.869    24117647.146
  20355460.688   -27386851.55649 -20110615.07948  20355459.958    20355468.491
  22167056.951   -15420868.11149 -12001376.00147  22167056.616    22167066.736
 02  3  7  2 35  0.0000000  0 10G23G26G18G14G21G29G17G 9G15G 3
  23745862.074    -8157340.53549  -5971958.15745  23745861.709    23745872.537
  23812253.322    -5552191.02049  -4305810.15545  23812253.350    23812264.134
  20622681.545   -26763183.50949 -20471980.22548  20622681.055    20622688.220
  23369657.001   -10548272.92749  -7881096.50845  23369656.384    23369669.811
  21462669.010   -19685629.69349 -15305140.04547  21462668.444    21462677.639
  20855813.993   -22713303.87349 -17059357.55447  20855813.841    20855822.418
  20831725.784   -21551334.90449 -15886088.31647  20831725.137    20831734.048
  24105533.447    -6011946.40449  -1750760.27645  24105533.188    24105545.352
  20357413.904   -27376587.08049 -20102616.74748  20357413.176    20357421.696
  22157492.417   -15471129.50249 -12040540.63347  22157492.088    22157502.149
 02  3  7  2 35 30.0000000  0 10G23G26G18G14G21G29G17G 9G15G 3
  23760168.806    -8082157.92849  -5913374.32545  23760168.507    23760179.372
  23831587.353    -5450588.67549  -4226639.52145  23831587.626    23831598.440
  20628172.124   -26734330.13849 -20449497.02748  20628171.644    20628178.792
  23348942.807   -10657125.18549  -7965916.07345  23348942.294    23348955.483
  21457448.189   -19713064.85649 -15326518.02247  21457447.648    21457456.840
  20845366.533   -22768205.15249 -17102137.66747  20845366.383    20845374.923
  20837162.139   -21522766.25649 -15863827.01247  20837161.523    20837170.472
  24093483.309    -6075269.18849  -1800102.55346  24093483.149    24093495.454
  20359430.061   -27365991.91649 -20094360.72848  20359429.311    20359437.848
  22148022.353   -15520894.74649 -12079318.65447  22148022.004    22148032.039
 02  3  7  2 36  0.0000000  0 10G23G26G18G14G21G29G17G 9G15G 3
  23774473.594    -8006985.86449  -5854798.69145  23774473.253    23774484.089
  23850974.657    -5348708.52949  -4147252.39445  23850974.764    23850985.573
  20633713.633   -26705209.21549 -20426805.35348  20633713.158    20633720.297
  23328261.040   -10765807.06249  -8050602.86445  23328260.552    23328273.567
  21452269.148   -19740280.55149 -15347724.98147  21452268.623    21452277.800
  20835011.107   -22822622.91549 -17144541.01147  20835010.932    20835019.456
  20842659.356   -21493878.16049 -15841316.78247  20842658.738    20842667.676
  24081485.227    -6138316.67149  -1849230.22345  24081485.386    24081498.018
  20361509.500   -27355064.21249 -20085845.59148  20361508.761    20361517.311
  22138647.204   -15570160.90949 -12117707.77147  22138646.834    22138656.900
 02  3  7  2 36 30.0000000  0 10G23G26G18G14G21G29G17G 9G15G 3
  23788776.448    -7931823.96149  -5796230.93845  23788776.082    23788786.969
  23870414.362    -5246552.68149  -4067650.40945  23870414.327    23870425.248
  20639306.074   -26675820.70949 -20403905.18448  20639305.586    20639312.717
  23307612.320   -10874315.09949  -8135154.21145  23307611.847    23307624.703
  21447131.979   -19767276.38849 -15368760.62547  21447131.410    21447140.553
  20824748.126   -22876554.70649 -17186565.68147  20824747.957    20824756.467
  20848217.636   -21464668.70149 -15818556.13847  20848217.070    20848226.047
  24069540.835    -6201084.44349  -1898140.01945  24069540.833    24069553.301
  20363652.629   -27343801.72049 -20077069.58748  20363651.887    20363660.435
  22129367.599   -15618925.29249 -12155705.90147  22129367.248    22129377.254
 02  3  7  2 37  0.0000000  0 10G23G26G18G14G21G29G17G 9G15G 3
  23803076.978    -7856674.44549  -5737672.83145  23803076.494    23803087.303
  23889905.550    -5144125.38849  -3987836.93445  23889905.563    23889916.565
  20644948.863   -26646167.52649 -20380798.77948  20644948.390    20644955.491
  23286997.076   -10982647.92949  -8219569.04046  23286996.488    23287009.279
  21442036.243   -19794054.21749 -15389626.39947  21442035.718    21442044.826
  20814577.669   -22930000.42949 -17228211.59647  20814577.498    20814585.981
  20853837.027   -21435138.59749 -15795545.63647  20853836.439    20853845.398
  24057650.385    -6263570.74049  -1946830.59045  24057650.216    24057662.279
  20365859.402   -27332204.88849 -20068033.06748  20365858.669    20365867.214
  22120183.489   -15667187.58449 -12193312.78047  22120183.146    22120193.150
 02  3  7  2 37 30.0000000  0 10G23G26G18G14G21G29G17G 9G15G 3
  23817375.056    -7781537.43449  -5679124.51245  23817374.463    23817385.389
  23909448.007    -5041429.14449  -3907813.90445  23909447.974    23909459.105
  20650641.885   -26616250.35649 -20357486.65948  20650641.408    20650648.500
  23266415.730   -11090802.35049  -8303844.87346  23266415.126    23266427.774
  21436982.032   -19820614.19049 -15410322.41447  21436981.487    21436990.562
  20804500.167   -22982957.84649 -17269477.01547  20804499.975    20804508.443
  20859517.690   -21405286.50549 -15772284.23547  20859517.077    20859526.028
  24045813.368    -6325772.07749  -1995298.81245  24045813.220    24045825.908
  20368130.079   -27320272.35749 -20058734.96448  20368129.328    20368137.851
  22111095.398   -15714945.53749 -12230526.68147  22111095.038    22111104.972
 02  3  7  2 38  0.0000000  0 10G23G26G18G14G21G29G17G 9G15G 3
  23831670.809    -7706413.57049  -5620586.34946  23831670.318    23831681.040
  23929041.155    -4938466.91049  -3827583.58845  23929041.099    23929052.129
  20656384.902   -26586070.43649 -20333969.80348  20656384.413    20656391.494
  23245868.725   -11198775.82449  -8387979.69346  23245868.181    23245880.774
  21431969.120   -19846956.91649 -15430849.14447  21431968.587    21431977.623
  20794515.765   -23035425.57549 -17310360.85847  20794515.587    20794524.052
  20865259.759   -21375111.82749 -15748771.46147  20865259.152    20865268.066
  24034031.802    -6387685.06049  -2043542.64645  24034031.647    24034043.883
  20370464.716   -27308003.56149 -20049174.83048  20370463.981    20370472.484
  22102103.613   -15762197.37149 -12267346.19147  22102103.253    22102113.223
 02  3  7  2 38 30.0000000  0 10G23G26G18G14G21G29G17G 9G15G 3
  23845963.804    -7631303.26849  -5562058.87545  23845963.205    23845974.088
  23948684.487    -4835241.20549  -3747147.94945  23948684.380    23948695.278
  20662177.759   -26555628.55049 -20310248.81548  20662177.282    20662184.348
  23225356.731   -11306565.45749  -8471971.28746  23225356.261    23225368.698
  21426997.494   -19873082.70849 -15451206.83647  21426996.959    21427005.962
  20784624.961   -23087401.82849 -17350861.73947  20784624.784    20784633.219
  20871063.390   -21344613.47749 -15725006.49147  20871062.724    20871071.662
  24022305.391    -6449306.11449  -2091558.82345  24022305.154    24022317.632
  20372863.603   -27295397.15149 -20039351.62048  20372862.871    20372871.359
  22093208.516   -15808941.07049 -12303769.74947  22093208.141    22093218.087
 02  3  7  2 39  0.0000000  0 10G23G26G18G14G21G29G17G 9G15G 3
  23860253.913    -7556207.45949  -5503542.67846  23860253.509    23860264.212
  23968377.229    -4731755.09049  -3666509.39045  23968377.118    23968388.039
  20668020.146   -26524926.34749 -20286324.98348  20668019.668    20668026.720
  23204880.325   -11414168.80949  -8555817.72146  23204879.727    23204892.126
  21422066.988   -19898992.36549 -15471396.11347  21422066.462    21422075.459
  20774827.894   -23138885.44249 -17390978.74247  20774827.696    20774836.117
  20876928.701   -21313790.88549 -15700988.85247  20876928.073    20876936.977
  24010635.576    -6510632.25349  -2139345.25145  24010635.333    24010647.784
  20375326.877   -27282452.52449 -20029264.86548  20375326.145    20375334.609
  22084410.313   -15855175.32849 -12339796.34647  22084409.941    22084419.873
 02  3  7  2 39 30.0000000  0 10G23G26G18G14G21G29G17G 9G15G 3
  23874541.507    -7481126.07049  -5445037.60646  23874541.310    23874551.674
  23988118.915    -4628010.89749  -3585669.75845  23988119.051    23988129.897
  20673912.006   -26493964.24749 -20262198.63348  20673911.539    20673918.587
  23184439.811   -11521582.37549  -8639516.29246  23184439.288    23184451.682
  21417177.670   -19924685.85349 -15491416.95347  21417177.107    21417186.091
  20765125.003   -23189873.98649 -17430709.98247  20765124.814    20765133.217
  20882856.018   -21282642.58849 -15676717.42947  20882855.390    20882864.272
  23999022.026    -6571659.95649  -2186899.26145  23999021.894    23999033.938
  20377854.869   -27269167.84149 -20018913.13148  20377854.135    20377862.562
  22075709.528   -15900897.87649 -12375424.21647  22075709.185    22075719.050
 02  3  7  2 40  0.0000000  0 10G23G26G18G14G21G29G17G 9G15G 3
  23888825.622    -7406061.92949  -5386546.13646  23888825.252    23888835.980
  24007908.971    -4524013.98649  -3504633.20245  24007909.010    24007919.929
  20679852.549   -26462746.16549 -20237872.82548  20679852.106    20679859.143
  23164035.550   -11628806.09149  -8723066.94346  23164035.033    23164047.351
  21412328.900   -19950165.99149 -15511271.54547  21412328.344    21412337.328
  20755516.107   -23240368.71549 -17470056.43347  20755515.916    20755524.311
  20888844.948   -21251170.36849 -15652193.59847  20888844.334    20888853.195
  23987465.984    -6632388.20349  -2234219.81745  23987465.953    23987477.930
  20380447.130   -27255545.22249 -20008298.07348  20380446.381    20380454.811
  22067106.016   -15946109.46649 -12410653.92847  22067105.651    22067115.492
 02  3  7  2 40 30.0000000  0 10G23G26G18G14G21G29G17G 9G15G 3
  23903106.773    -7331013.61249  -5328066.95846  23903106.662    23903117.551
  24027746.936    -4419764.65549  -3423399.98745  24027746.907    24027758.009
  20685842.149   -26431270.60349 -20213346.38048  20685841.690    20685848.706
  23143668.533   -11735834.63249  -8806465.51746  23143667.913    23143680.258
  21407521.067   -19975430.93349 -15530958.44847  21407520.532    21407529.520
  20746001.966   -23290365.40949 -17509014.80047  20746001.762    20746010.150
  20894896.165   -21219370.88549 -15627414.75747  20894895.535    20894904.410
  23975967.693    -6692811.29449  -2281302.54945  23975967.654    23975979.535
  20383104.428   -27241580.99849 -19997416.82348  20383103.671    20383112.083
  22058600.528   -15990805.77849 -12445482.12347  22058600.119    22058610.006
 02  3  7  2 41  0.0000000  0 10G23G26G18G14G21G29G17G 9G15G 3
  23917384.733    -7255983.01049  -5269601.50446  23917384.580    23917395.245
  24047631.965    -4315267.50649  -3341973.63345  24047632.042    24047643.093
  20691880.129   -26399540.64849 -20188621.71048  20691879.650    20691886.660
  23123338.748   -11842667.07649  -8889711.30146  23123338.136    23123350.435
  21402753.758   -20000483.05949 -15550479.52147  21402753.222    21402762.196
  20736582.520   -23339864.54949 -17547585.46747  20736582.343    20736590.702
  20901009.474   -21187245.13749 -15602381.67947  20901008.853    20901017.727
  23964527.998    -6752927.60749  -2328146.43545  23964527.632    23964539.236
  20385826.554   -27227275.89249 -19986269.95148  20385825.797    20385834.201
  22050193.049   -16034986.81549 -12479908.82147  22050192.690    22050202.519
 02  3  7  2 41 30.0000000  0 10G23G26G18G14G21G29G17G 9G15G 3
  23931659.073    -7180969.90849  -5211149.82545  23931658.866    23931669.631
  24067563.917    -4210524.73649  -3260355.84545  24067563.862    24067574.768
  20697966.487   -26367556.57249 -20163699.01048  20697966.016    20697973.019
  23103046.895   -11949300.11849  -8972801.70146  23103046.294    23103058.586
  21398026.949   -20025322.19349 -15569834.63247  21398026.405    21398035.372
  20727258.167   -23388863.95249 -17585766.72547  20727257.968    20727266.304
  20907185.082   -21154791.57649 -15577093.17247  20907184.498    20907193.409
  23953147.246    -6812733.53949  -2374748.22845  23953146.773    23953158.685
  20388613.871   -27212628.30249 -19974856.20848  20388613.107    20388621.526
  22041884.096   -16078650.49849 -12513932.38447  22041883.702    22041893.502
 02  3  7  2 42  0.0000000  0 10G23G26G18G14G21G29G17G 9G15G 3
  23945929.960    -7105976.58449  -5152713.39446  23945929.907    23945940.399
  24087541.774    -4105540.39749  -3178549.86445  24087541.712    24087552.674
  20704100.678   -26335320.89549 -20138580.26348  20704100.220    20704107.220
  23082793.303   -12055732.12949  -9055735.46846  23082792.726    23082804.919
  21393340.430   -20049949.88349 -15589024.98047  21393339.879    21393348.822
  20718028.941   -23437363.43249 -17623558.43847  20718028.767    20718037.081
  20913423.028   -21122010.88049 -15551549.75547  20913422.439    20913431.330
  23941825.878    -6872226.93449  -2421106.73045  23941825.589    23941836.760
  20391466.272   -27197638.68049 -19963175.95048  20391465.512    20391473.916
  22033673.643   -16121796.27649 -12547552.38447  22033673.266    22033683.073
 02  3  7  2 42 30.0000000  0 10G23G26G18G14G21G29G17G 9G15G 3
  23960197.307    -7031002.07649  -5094291.68945  23960197.002    23960207.490
  24107565.079    -4000316.21749  -3096557.04745  24107565.182    24107576.197
  20710282.761   -26302833.79749 -20113265.60948  20710282.300    20710289.280
  23062578.765   -12161959.39349  -9138509.68546  23062578.170    23062590.236
  21388694.235   -20074365.53449 -15608050.10047  21388693.686    21388702.619
  20708895.370   -23485360.22649 -17660958.44747  20708895.220    20708903.479
  20919723.626   -21088900.90849 -15525749.76547  20919723.017    20919731.957
  23930565.087    -6931403.34549  -2467218.01445  23930564.725    23930576.227
  20394384.196   -27182304.93949 -19951227.55448  20394383.442    20394391.822
  22025562.238   -16164421.45549 -12580766.72447  22025561.861    22025571.706
 02  3  7  2 43  0.0000000  0 10G23G26G18G14G21G29G17G 9G15G 3
  23974460.558    -6956047.79349  -5035885.75345  23974460.224    23974470.580
  24127633.449    -3894855.80049  -3014380.09245  24127633.418    24127644.559
  20716512.261   -26270097.36649 -20087756.67948  20716511.777    20716518.751
  23042403.510   -12267979.94149  -9221122.82446  23042402.987    23042414.897
  21384088.161   -20098570.45949 -15626911.02447  21384087.624    21384096.508
  20699857.569   -23532854.03349 -17697966.51747  20699857.377    20699865.604
  20926086.861   -21055461.89049 -15499693.36947  20926086.252    20926095.157
  23919364.276    -6990260.70349  -2513080.63145  23919364.039    23919376.310
  20397367.528   -27166627.24349 -19939011.13648  20397366.767    20397375.135
  22017550.128   -16206525.30149 -12613574.84247  22017549.748    22017559.519
 02  3  7  2 43 30.0000000  0 10G23G26G18G14G21G29G17G 9G15G 3
  23988720.004    -6881113.75149  -4977495.57745  23988719.784    23988730.077
  24147746.456    -3789161.37549  -2932020.74445  24147746.454    24147757.394
  20722789.126   -26237112.12449 -20062053.86948  20722788.642    20722795.598
  23022268.197   -12373790.55649  -9303572.39046  23022267.696    23022279.475
  21379522.201   -20122564.61149 -15645607.70747  21379521.635    21379530.495
  20690915.872   -23579842.74449 -17734581.00947  20690915.667    20690923.836
  20932512.961   -21021692.42049 -15473379.48347  20932512.353    20932521.266
  23908225.793    -7048794.96449  -2558691.78445  23908225.581    23908236.754
  20400416.670   -27150603.96649 -19926525.43448  20400415.916    20400424.251
  22009637.595   -16248105.46049 -12645974.89347  22009637.245    22009646.949
 02  3  7  2 44  0.0000000  0 10G23G26G18G14G21G29G17G 9G15G 3
  24002975.369    -6806201.99249  -4919122.72645  24002974.977    24002985.372
  24167903.277    -3683237.22549  -2849482.44045  24167903.099    24167913.851
  20729112.849   -26203880.57049 -20036159.12948  20729112.364    20729119.340
  23002173.129   -12479390.05749  -9385857.43346  23002172.558    23002184.267
  21374995.820   -20146350.58749 -15664142.17147  21374995.279    21375004.147
  20682070.258   -23626326.50649 -17770802.03247  20682070.061    20682078.183
  20939001.860   -20987593.19149 -15446808.63147  20939001.211    20939010.098
  23897148.444    -7107004.51849  -2604049.56645  23897148.338    23897160.181
  20403531.420   -27134235.61749 -19913770.84648  20403530.670    20403539.024
  22001824.739   -16289162.13649 -12677967.03247  22001824.364    22001834.055
 02  3  7  2 44 30.0000000  0 11G23G26G18G14G21G29G17G 9G31G15G 3
  24017226.119    -6731313.85049  -4860768.40045  24017225.559    24017236.114
  24188102.932    -3577087.35749  -2766768.28145  24188102.835    24188113.690
  20735482.989   -26170405.03349 -20010074.26748  20735482.514    20735489.462
  22982118.491   -12584776.73149  -9467976.64046  22982117.972    22982129.492
  21370508.918   -20169929.32849 -15682515.14547  21370508.365    21370517.205
  20673320.752   -23672305.14249 -17806629.44647  20673320.568    20673328.639
  20945553.353   -20953164.67949 -15419981.19647  20945552.756    20945561.586
  23886133.795    -7164887.21349  -2649152.88045  23886133.604    23886145.152
  24432885.899    -2095390.47349  -1608318.00145  24432885.355    24432899.144
  20406711.818   -27117522.44449 -19900747.56148  20406711.078    20406719.406
  21994111.540   -16329694.79149 -12709550.84847  21994111.174    21994120.834
 02  3  7  2 45  0.0000000  0 11G23G26G18G14G21G29G17G 9G31G15G 3
  24031471.736    -6656452.35249  -4802434.67845  24031471.359    24031481.772
  24208344.653    -3470716.94049  -2683882.21545  24208344.563    24208355.049
  20741898.961   -26136688.82849 -19983801.87148  20741898.473    20741905.400
  22962104.414   -12689950.38349  -9549929.83946  22962103.887    22962115.381
  21366060.837   -20193303.78149 -15700728.94447  21366060.294    21366069.115
  20664667.161   -23717779.62149 -17842064.01947  20664666.999    20664675.030
  20952167.264   -20918408.38449 -15392898.35847  20952166.627    20952175.468
  23875181.220    -7222442.32949  -2694000.83945  23875180.886    23875192.622
  24415843.622    -2184947.97849  -1678102.88845  24415843.014    24415856.863
  20409957.539   -27100465.77249 -19887456.61748  20409956.811    20409965.123
  21986497.936   -16369704.23749 -12740726.97147  21986497.565    21986507.247
 02  3  7  2 45 30.0000000  0 11G23G26G18G14G21G29G17G 9G31G15G 3
  24045713.312    -6581611.67549  -4744117.31145  24045713.017    24045723.506
  24228628.718    -3364122.61049  -2600821.66645  24228628.679    24228639.137
  20748361.625   -26102727.28449 -19957338.30348  20748361.139    20748368.064
  22942132.523   -12794902.10849  -9631710.12446  22942132.022    22942143.453
  21361652.753   -20216468.18849 -15718779.06847  21361652.196    21361661.017
  20656110.883   -23762742.59349 -17877100.00947  20656110.762    20656118.786
  20958844.807   -20883317.62649 -15365554.89447  20958844.174    20958852.967
  23864292.931    -7279660.57349  -2738586.20145  23864292.674    23864304.698
  24398860.555    -2274194.42749  -1747645.39945  24398859.891    24398873.530
  20413269.979   -27083058.73749 -19873892.65948  20413269.248    20413277.552
  21978985.328   -16409182.89149 -12771489.48547  21978984.975    21978994.648
 02  3  7  2 46  0.0000000  0 11G23G26G18G14G21G29G17G 9G31G15G 3
  24059950.889    -6506792.67749  -4685816.75845  24059950.743    24059961.017
  24248954.818    -3257307.30949  -2517588.98945  24248954.978    24248965.658
  20754870.748   -26068521.57249 -19930684.48148  20754870.252    20754877.164
  22922203.331   -12899629.44649  -9713315.55446  22922202.870    22922214.169
  21357284.427   -20239423.63449 -15736666.36347  21357283.860    21357292.695
  20647652.171   -23807193.06749 -17911736.65647  20647652.018    20647660.048
  20965586.152   -20847891.61749 -15337950.19947  20965585.527    20965594.288
  23853469.090    -7336538.77649  -2782907.03045  23853469.057    23853479.928
  24381937.034    -2363127.24249  -1816943.50845  24381936.327    24381950.074
  20416649.185   -27065300.67049 -19860055.17248  20416648.458    20416656.766
  21971574.061   -16448129.22149 -12801837.20247  21971573.666    21971583.392
 02  3  7  2 46 30.0000000  0 11G23G26G18G14G21G29G17G 9G31G15G 3
  24074183.754    -6431998.27249  -4627535.43345  24074183.569    24074193.865
  24269322.060    -3150276.25049  -2434188.16145  24269322.207    24269333.141
  20761425.620   -26034075.22049 -19903843.14448  20761425.144    20761432.042
  22902316.866   -13004132.33349  -9794746.08546  22902316.377    22902327.613
  21352955.395   -20262172.63249 -15754392.78547  21352954.827    21352963.681
  20639290.806   -23851132.09449 -17945974.76847  20639290.617    20639298.633
  20972390.938   -20812132.13649 -15310085.66047  20972390.346    20972399.111
  23842710.233    -7393076.60449  -2826962.16745  23842710.247    23842721.728
  24365073.238    -2451746.22249  -1885997.04245  24365072.482    24365086.420
  20420094.886   -27047193.19349 -19845945.41848  20420094.143    20420102.470
  21964263.811   -16486544.55549 -12831771.15847  21964263.407    21964273.104
 02  3  7  2 47  0.0000000  0 11G23G26G18G14G21G29G17G 9G31G15G 3
  24088412.088    -6357228.11649  -4569272.93945  24088411.812    24088422.152
  24289730.299    -3043031.63549  -2350620.87345  24289730.229    24289741.071
  20768026.247   -25999388.71349 -19876814.67648  20768025.785    20768032.684
  22882473.833   -13108407.12949  -9875998.88346  22882473.324    22882484.520
  21348665.567   -20284715.43849 -15771958.54147  21348664.987    21348673.843
  20631027.124   -23894557.72449 -17979812.83647  20631026.918    20631034.917
  20979259.418   -20776037.90749 -15281960.28347  20979258.831    20979267.628
  23832016.883    -7449270.01649  -2870749.20245  23832016.557    23832027.532
  24348269.898    -2540048.01049  -1954803.39045  24348269.264    24348283.026
  20423607.340   -27028734.76349 -19831562.19548  20423606.611    20423614.952
  21957054.979   -16524426.72349 -12861289.66847  21957054.597    21957064.265
 02  3  7  2 47 30.0000000  0 11G23G26G18G14G21G29G17G 9G31G15G 3
  24102635.375    -6282484.26649  -4511031.02245  24102634.825    24102645.325
  24310178.001    -2935577.98149  -2266890.73745  24310177.924    24310188.836
  20774672.016   -25964464.90549 -19849601.29248  20774671.524    20774678.408
  22862674.294   -13212453.07749  -9957073.38546  22862673.811    22862684.929
  21344414.553   -20307054.31749 -15789365.38047  21344413.990    21344422.857
  20622861.038   -23937470.38349 -18013251.18547  20622860.841    20622868.825
  20986191.460   -20739609.94149 -15253574.84747  20986190.842    20986199.608
  23821389.357    -7505117.72849  -2914266.60045  23821388.927    23821400.349
  24331527.069    -2628031.55149  -2023361.71745  24331526.505    24331539.932
  20427186.491   -27009926.28349 -19816906.20048  20427185.724    20427194.085
  21949947.657   -16561775.92349 -12890392.87247  21949947.268    21949956.858
 02  3  7  2 48  0.0000000  0 11G23G26G18G14G21G29G17G 9G31G15G 3
  24116853.583    -6207766.72849  -4452809.55245  24116853.040    24116863.507
  24330665.153    -2827917.43349  -2182999.39545  24330665.081    24330676.090
  20781362.807   -25929304.44449 -19822203.49348  20781362.332    20781369.215
  22842918.992   -13316266.65549 -10037966.80546  22842918.547    22842929.558
  21340202.380   -20329189.06249 -15806613.16347  21340201.826    21340210.692
  20614792.863   -23979868.36149 -18046288.48447  20614792.686    20614800.656
  20993187.205   -20702846.79849 -15224928.23047  20993186.589    20993195.416
  23810828.245    -7560615.87149  -2957511.86145  23810827.498    23810838.488
  24314845.338    -2715693.72249  -2091669.66445  24314844.773    24314858.275
  20430832.483   -26990766.09549 -19801976.15448  20430831.759    20430840.097
  21942942.108   -16598589.97149 -12919079.07147  21942941.708    21942951.283
 02  3  7  2 48 30.0000000  0 11G23G26G18G14G21G29G17G 9G31G15G 3
  24131066.997    -6133074.78349  -4394608.01445  24131066.432    24131076.811
  24351191.400    -2720051.71049  -2098948.15945  24351191.321    24351202.187
  20788098.598   -25893907.34049 -19794621.29548  20788098.139    20788105.023
  22823208.583   -13419844.36049 -10118676.46046  22823208.182    22823219.105
  21336029.208   -20351118.88249 -15823701.26147  21336028.655    21336037.488
  20606823.059   -24021749.52749 -18078923.07547  20606822.904    20606830.879
  21000247.129   -20665746.90449 -15196019.20347  21000246.452    21000255.269
  23800334.424    -7615760.32949  -3000481.27845  23800333.901    23800345.538
  24298225.526    -2803030.46649  -2159724.00645  24298224.960    24298238.261
  20434545.815   -26971252.42649 -19786770.66548  20434545.089    20434553.428
  21936038.826   -16634866.57549 -12947346.48447  21936038.427    21936047.969
 02  3  7  2 49  0.0000000  0 11G23G26G18G14G21G29G17G 9G31G15G 3
  24145275.122    -6058410.33449  -4336427.94445  24145274.505    24145285.144
  24371755.864    -2611984.87449  -2014740.24145  24371755.884    24371766.618
  20794878.998   -25858276.06749 -19766856.62248  20794878.515    20794885.411
  22803543.350   -13523184.82849 -10199201.26046  22803542.877    22803553.818
  21331894.589   -20372846.28849 -15840631.63547  21331894.047    21331902.864
  20598951.616   -24063113.90949 -18111154.97547  20598951.443    20598959.414
  21007370.905   -20628310.88449 -15166848.26047  21007370.260    21007379.062
  23789908.178    -7670549.18649  -3043173.74145  23789907.770    23789919.326
  24281667.912    -2890040.30649  -2227523.61945  24281667.432    24281680.509
  20438326.270   -26951385.97349 -19771290.27848  20438325.532    20438333.868
  21929237.843   -16670605.66749 -12975195.05747  21929237.455    21929246.941
 02  3  7  2 49 30.0000000  0 11G23G26G18G14G21G29G17G 9G31G15G 3
  24159478.013    -5983773.94049  -4278269.76045  24159477.322    24159488.105
  24392358.185    -2503720.06449  -1930378.05745  24392358.042    24392368.846
  20801703.640   -25822412.06449 -19738910.61448  20801703.161    20801710.068
  22783923.629   -13626285.81449 -10279539.44346  22783923.189    22783934.133
  21327798.461   -20394371.41949 -15857404.39747  21327797.903    21327806.687
  20591178.670   -24103960.78949 -18142983.63147  20591178.484    20591186.453
  21014558.812   -20590538.27849 -15137415.05347  21014558.124    21014566.961
  23779550.307    -7724979.61849  -3085586.96945  23779550.020    23779561.423
  24265172.996    -2976720.90549  -2295066.71945  24265172.531    24265185.508
  20442174.021   -26931165.99149 -19755534.41948  20442173.268    20442181.598
  21922539.287   -16705806.33749 -13002624.07647  21922538.922    21922548.424
 02  3  7  2 50  0.0000000  0 11G23G26G18G14G21G29G17G 9G31G15G 3
  24173675.279    -5909167.05649  -4220134.51645  24173674.623    24173685.319
  24412997.093    -2395261.06249  -1845864.53945  24412997.054    24413007.821
  20808572.188   -25786317.45749 -19710784.91147  20808571.726    20808578.626
  22764349.901   -13729145.48849 -10359689.62846  22764349.419    22764360.328
  21323740.418   -20415696.12349 -15874020.98147  21323739.872    21323748.646
  20583504.192   -24144290.04949 -18174408.94647  20583504.027    20583511.962
  21021810.641   -20552429.47549 -15107719.86647  21021810.014    21021818.755
  23769260.849    -7779049.88649  -3127719.47945  23769260.673    23769272.282
  24248740.979    -3063070.70849  -2362351.99145  24248740.426    24248753.550
  20446088.903   -26910592.81049 -19739503.34148  20446088.158    20446096.493
  21915943.336   -16740468.11449 -13029633.18047  21915942.959    21915952.466
 02  3  7  2 50 30.0000000  0 11G23G26G18G14G21G29G17G 9G31G15G 3
  24187867.113    -5834587.97749  -4162020.92945  24187866.578    24187877.153
  24433673.091    -2286608.39649  -1761200.09945  24433673.020    24433683.691
  20815484.790   -25749991.27249 -19682478.75547  20815484.310    20815491.220
  22744822.935   -13831759.40549 -10439648.30246  22744822.487    22744833.292
  21319720.921   -20436818.67249 -15890480.04447  21319720.355    21319729.068
  20575928.858   -24184098.47649 -18205428.41647  20575928.681    20575936.593
  21029126.994   -20513981.71449 -15077760.55947  21029126.339    21029135.145
  23759040.781    -7832754.71949  -3169567.19645  23759040.719    23759052.609
  24232372.751    -3149085.12849  -2429375.96845  24232372.318    24232385.342
  20450071.577   -26889663.53249 -19723194.78348  20450070.841    20450079.180
  21909450.597   -16774587.40949 -13056219.56847  21909450.233    21909459.723
 02  3  7  2 51  0.0000000  0 11G23G26G18G14G21G29G17G 9G31G15G 3
  24202053.285    -5760039.23649  -4103930.98545  24202052.876    24202063.444
  24454384.674    -2177767.18949  -1676388.80545  24454384.671    24454395.590
  20822440.811   -25713436.97149 -19653994.85847  20822440.335    20822447.230
  22725342.910   -13934126.86249 -10519414.95146  22725342.403    22725353.164
  21315739.279   -20457741.98049 -15906783.84947  21315738.741    21315747.425
  20568452.397   -24223387.22549 -18236042.94447  20568452.237    20568460.126
  21036507.543   -20475196.69449 -15047538.45547  21036506.929    21036515.687
  23748890.978    -7886093.11549  -3211129.55545  23748890.945    23748902.301
  24216068.522    -3234763.26149  -2496137.94545  24216068.195    24216080.861
  20454121.793   -26868379.39149 -19706609.71048  20454121.067    20454129.387
  21903060.789   -16808165.70249 -13082384.39547  21903060.417    21903069.904
 02  3  7  2 51 30.0000000  0 11G23G26G18G14G21G29G17G 9G31G15G 3
  24216233.879    -5685520.31249  -4045864.26045  24216233.351    24216243.951
  24475132.051    -2068739.33949  -1591432.06245  24475132.008    24475142.903
  20829440.260   -25676654.58049 -19625333.22747  20829439.789    20829446.676
  22705910.325   -14036244.38349 -10598986.84246  22705909.926    22705920.624
  21311795.675   -20478465.58349 -15922932.04147  21311795.121    21311803.797
  20561075.194   -24262154.44149 -18266251.08148  20561075.024    20561082.882
  21043952.579   -20436072.74249 -15017052.25047  21043951.926    21043960.740
  23738811.359    -7939061.37649  -3252403.32745  23738811.164    23738822.833
  24199829.000    -3320101.62549  -2562635.18545  24199828.578    24199841.369
  20458239.806   -26846738.86349 -19689746.92847  20458239.066    20458247.377
  21896774.412   -16841200.61349 -13108125.80647  21896774.049    21896783.503
 02  3  7  2 52  0.0000000  0 11G23G26G18G14G21G29G17G 9G31G15G 3
  24230408.539    -5611031.68749  -3987821.14945  24230408.000    24230418.620
  24495914.503    -1959527.58749  -1506331.98745  24495914.401    24495925.278
  20836482.860   -25639645.44449 -19596494.92547  20836482.383    20836489.235
  22686525.900   -14138109.52849 -10678362.08646  22686525.476    22686536.100
  21307889.923   -20498990.17949 -15938925.17947  21307889.385    21307898.001
  20553797.421   -24300399.16249 -18296052.08448  20553797.252    20553805.083
  21051462.120   -20396609.51749 -14986301.69047  21051461.526    21051470.375
  23728802.883    -7991656.33049  -3293386.27445  23728802.771    23728814.160
  24183654.740    -3405097.72149  -2628865.77345  24183654.214    24183666.937
  20462425.772   -26824741.42349 -19672606.03547  20462425.028    20462433.325
  21890591.693   -16873691.13149 -13133443.01947  21890591.309    21890600.702
 02  3  7  2 52 30.0000000  0 11G23G26G18G14G21G29G17G 9G31G15G 3
  24244577.317    -5536575.30249  -3929803.16445  24244576.551    24244587.147
  24516730.822    -1850136.17049  -1421091.92245  24516730.900    24516741.758
  20843568.126   -25602412.14849 -19567481.95247  20843567.638    20843574.446
  22667189.636   -14239721.36649 -10757539.94846  22667189.222    22667199.832
  21304021.660   -20519317.86349 -15954764.87747  21304021.103    21304029.714
  20546618.957   -24338121.87849 -18325446.32748  20546618.762    20546626.597
  21059036.183   -20356807.73149 -14955287.29747  21059035.533    21059044.366
  23718865.629    -8043876.37849  -3334077.11945  23718865.371    23718876.638
  24167545.669    -3489750.37849  -2694828.68245  24167544.978    24167557.971
  20466679.548   -26802387.49749 -19655187.36347  20466678.803    20466687.087
  21884512.442   -16905637.45249 -13158336.18247  21884512.068    21884521.400
 02  3  7  2 53  0.0000000  0 11G23G26G18G14G21G29G17G 9G31G15G 3
  24258739.749    -5462150.64949  -3871809.97845  24258739.057    24258749.772
  24537581.197    -1740566.96549  -1335713.37045  24537581.076    24537592.149
  20850696.010   -25564954.73249 -19538294.32847  20850695.544    20850702.322
  22647902.348   -14341076.02649 -10836517.41146  22647901.914    22647912.453
  21300190.890   -20539448.38849 -15970450.95347  21300190.355    21300198.922
  20539540.191   -24375320.60049 -18354432.26648  20539540.013    20539547.839
  21066674.861   -20316665.86949 -14924007.92447  21066674.295    21066683.088
  23709000.106    -8095717.68049  -3374472.75545  23709000.010    23709011.593
  24151502.689    -3574056.12249  -2760521.32145  24151502.044    24151514.823
  20471001.509   -26779675.34049 -19637489.55347  20471000.751    20471009.028
  21878537.196   -16937037.32749 -13182803.54247  21878536.824    21878546.102
 02  3  7  2 53 30.0000000  0 11G23G26G18G14G21G29G17G 9G31G15G 3
  24272896.367    -5387757.01649  -3813840.96245  24272895.665    24272906.608
  24558464.877    -1630821.63549  -1250197.53745  24558464.919    24558475.938
  20857866.517   -25527273.39049 -19508932.20947  20857866.050    20857872.809
  22628664.652   -14442170.00649 -10915291.74746  22628664.222    22628674.726
  21296397.848   -20559380.62449 -15985982.50947  21296397.331    21296405.877
  20532561.535   -24411993.37849 -18383008.37448  20532561.354    20532569.136
  21074378.677   -20276182.38749 -14892462.34447  21074378.052    21074386.818
  23699208.011    -8147176.13449  -3414570.10345  23699207.763    23699219.230
  24135526.265    -3658011.24848  -2825940.77945  24135525.672    24135538.172
  20475391.961   -26756603.39349 -19619511.38147  20475391.182    20475399.447
  21872666.327   -16967888.65249 -13206843.45547  21872665.949    21872675.235
 02  3  7  2 54  0.0000000  0 11G23G26G18G14G21G29G17G 9G31G15G 3
  24287046.501    -5313397.44349  -3755898.45745  24287045.769    24287056.880
  24579381.526    -1520905.70049  -1164548.76645  24579381.069    24579392.324
  20865078.891   -25489371.97049 -19479398.60447  20865078.407    20865085.163
  22609476.578   -14543003.43949 -10993863.05746  22609476.156    22609486.568
  21292641.813   -20579118.58849 -16001362.69747  21292641.281    21292649.794
  20525682.609   -24448142.11549 -18411176.14048  20525682.416    20525690.160
  21082146.995   -20235359.52849 -14860652.31147  21082146.384    21082155.119
  23689488.424    -8198251.60149  -3454369.13245  23689488.478    23689499.502
  24119616.602    -3741615.77949  -2891086.98345  24119616.147    24119628.634
  20479850.514   -26733173.59249 -19601254.36347  20479849.725    20479857.985
  21866899.517   -16998192.90849 -13230457.08747  21866899.171    21866908.466
 02  3  7  2 54 30.0000000  0 11G23G26G18G14G21G29G17G 9G31G15G 3
  24301190.273    -5239069.71849  -3697980.75345  24301189.786    24301200.839
  24600330.255    -1410819.17649  -1078767.08445  24600329.876    24600340.966
  20872333.461   -25451248.86549 -19449692.26547  20872332.965    20872339.716
  22590339.014   -14643571.03249 -11072227.21346  22590338.594    22590348.982
  21288923.162   -20598659.86849 -16016589.62447  21288922.646    21288931.163
  20518904.051   -24483763.33849 -18438932.86247  20518903.859    20518911.576
  21089980.533   -20194193.90149 -14828575.18947  21089979.951    21089988.672
  23679843.209    -8248938.62249  -3493865.30146  23679843.067    23679854.550
  24103774.619    -3824864.71349  -2955956.17245  24103774.404    24103786.639
  20484377.761   -26709382.45649 -19582715.78847  20484376.971    20484385.237
  21861237.589   -17027946.37549 -13253641.53847  21861237.220    21861246.446
 02  3  7  2 55  0.0000000  0 11G23G26G18G14G21G29G17G 9G31G15G 3
  24315327.934    -5164776.96949  -3640090.30145  24315327.179    24315338.219
  24621310.195    -1300567.71549   -992856.84845  24621310.122    24621320.960
  20879629.405   -25412908.22849 -19419816.41547  20879628.914    20879635.668
  22571252.004   -14743873.15349 -11150384.50246  22571251.538    22571261.940
  21285241.391   -20618007.58049 -16031665.71047  21285240.864    21285249.400
  20512225.482   -24518858.89549 -18466279.96748  20512225.312    20512233.007
  21097878.903   -20152687.86549 -14796232.81347  21097878.283    21097887.013
  23670271.607    -8299236.97949  -3533058.73846  23670271.551    23670282.780
  24088000.412    -3907758.01049  -3020548.20945  24088000.264    24088012.526
  20488973.405   -26685231.96949 -19563897.19747  20488972.630    20488980.886
  21855680.100   -17057151.00549 -13276398.31847  21855679.728    21855688.954
 02  3  7  2 55 30.0000000  0 11G23G26G18G14G21G29G17G 9G31G15G 3
  24329459.049    -5090517.76649  -3582225.96045  24329458.257    24329469.233
  24642321.524    -1190152.13049   -906818.74845  24642321.426    24642332.394
  20886966.876   -25374349.27649 -19389770.45747  20886966.394    20886973.163
  22552216.290   -14843905.49749 -11228331.58446  22552215.866    22552226.237
  21281596.654   -20637160.36649 -16046589.91147  21281596.138    21281604.679
  20505647.492   -24553426.20249 -18493215.45248  20505647.326    20505655.002
  21105842.459   -20110839.02849 -14763623.32647  21105841.840    21105850.562
  23660775.104    -8349141.82349  -3571945.48846  23660774.896    23660786.220
  24072294.746    -3990291.19049  -3084859.63445  24072294.628    24072306.788
  20493637.864   -26660719.91049 -19544796.86647  20493637.080    20493645.320
  21850227.570   -17085803.77249 -13298725.08447  21850227.213    21850236.439
